     2              OBSERVATION DATA    GPS                 RINEX VERSION / TYPE
ASHTORIN MIT 09 - JUN - 97 09:06                            PGM / RUN BY / DATE
                                                            COMMENT
--> THIS IS THE START OF A NEW SITE <---                    COMMENT
--> THIS IS THE START OF A NEW SITE <---                    COMMENT
Original Marker Name: GS25                                  COMMENT
Campaign Name: China Lake May 1997                          COMMENT
4-Character Station Name: GS25                              COMMENT
6-Character Antenna Code: ASHGD3                            COMMENT
Vertical Measurement Point: TGP                             COMMENT
Vertical Offset to Rinex Ref. Point: 0.0640                 COMMENT
Radial Measurement Point: RRP                               COMMENT
Radial Offset to Rinex Ref. Point: 0.0000                   COMMENT
Antenna Height from Field Measurement: 0.2120 m             COMMENT
Additional Antenna Identification Info.:                    COMMENT
The Whopper (700718AB)                                      COMMENT
Original XYZ: -2410768.7400 -4582720.7900 3712578.1800      COMMENT
New XYZ position is based on association with SCEC monument COMMENT
E1F4O4V6+0011. Position of that monument is believed to be  COMMENT
valid to within 1 m horizontally; vertical accuracy         COMMENT
should be no worse than 3-times this value.                 COMMENT
                                                            COMMENT
Revised Rinex header created by UCSD GPS archive for        COMMENT
GSAC on 01-Aug-2000 (2000:214) 21:55:32 GMT                 COMMENT
For assistance contact dagnew@ucsd.edu                      COMMENT
or anderson@python.ucsd.edu                                 COMMENT
                                                            COMMENT
BLM 065-94-66 GO25                                          MARKER NAME
gs25                                                        MARKER NUMBER
KEA US DEFENSE MAPPING AGENCY                               OBSERVER / AGENCY
426 ASHTECH Z-XII3 1G001C7                                  REC # / TYPE / VERS
452 ASHTECH GEODETIC III                                    ANT # / TYPE
 -2371482.7420 -4596804.5788  3720997.6559                  APPROX POSITION XYZ
        0.1480        0.0000        0.0000                  ANTENNA: DELTA H/E/N
     1     1     0                                          WAVELENGTH FACT L1/2
     7    L1    L2    C1    P1    P2    D1    D2            # / TYPES OF OBSERV
    30                                                      INTERVAL
  1997     5    15    15    26    0.000000                  TIME OF FIRST OBS
  1997     5    15    21    29   60.000000                  TIME OF LAST OBS
                                                            END OF HEADER
 97  5 15 15 26  0.0000000  0  6 19  2 27 26  7 15                  -0.000598403
     40697.93219     24606.48557  19999747.699           0.0005   19999756.3735
     -1553.613       -1210.608
    -44775.09719    -29377.69758  18373702.149           0.0005   18373707.9575
      1429.784        1114.117
    -15209.22519     -8617.60458  17491120.571           0.0005   17491127.3795
       541.136         421.664
    -80098.40019    -32253.96557  20414049.558           0.0005   20414055.6505
      2889.176        2251.306
    -90959.81819    -56372.98256  18639642.375           0.0005          0.0005
      3563.707        2776.915
    -66255.58719    -35998.60753  21031111.920           0.0005          0.0005
      2269.667        1768.572
 97  5 15 15 26 30.0000000  3  2
GS25                                                        MARKER NAME
--> THIS IS THE START OF A NEW SITE <---                    COMMENT
 97  5 15 15 26 30.0000000  0  6 19  2 27 26  7 15                  -0.000620472
     87322.666 9     60937.39847  20008621.973    20008622.8795   20008629.0634
     -1555.521       -1212.094
    -87680.522 9    -62810.48848  18365537.055    18365537.2835   18365543.3764
      1429.720        1114.068
    -31328.708 9    -21178.24248  17488054.137    17488054.6675   17488060.0024
       532.674         415.071
   -166649.899 9    -99696.69347  20397579.002    20397580.1625   20397585.5834
      2880.001        2244.157
   -197780.141 9   -139224.68256  18619317.230           0.0004          0.0005
      3556.726        2771.475
   -134215.676 9    -88954.45157  21018179.979           0.0005   21018185.8465
      2260.048        1761.076
 97  5 15 15 27  0.0000000  0  6 19  2 27 26  7 15                   0.000968766
    133987.552 9     97299.63647  23015428.441    23015427.4224   23015433.5004
     -1557.191       -1213.396
   -130574.244 9    -96234.15948  21355298.025    21355299.4744   21355305.5884
      1430.368        1114.572
    -47204.906 9    -33549.30848  20482957.751    20482958.1384   20482963.4064
       525.519         409.495
   -252903.253 9   -166907.08547  23379089.722    23379091.3404   23379096.6784
      2871.659        2237.656
   -304364.019 9   -221802.65756  21596958.850           0.0004          0.0005
      3550.615        2766.713
   -201872.599 9   -141674.15547  24003228.755    24003229.3495   24003235.7614
      2251.386        1754.327
 97  5 15 15 27 30.0000000  0  6 19  2 27 26  7 15                   0.000946435
    180701.081 9    133699.72957  23024315.682    23024316.6995   23024322.7865
     -1556.734       -1213.039
   -173525.332 9   -129702.52958  21347125.765    21347126.1625   21347132.2825
      1433.423        1116.953
    -62887.501 9    -45769.51458  20479972.992    20479973.8945   20479979.1485
       520.346         405.464
   -338957.105 9   -233962.02957  23362713.677    23362715.8855   23362721.2035
      2865.651        2232.975
   -410819.791 9   -304271.26454  21576702.061           0.0005          0.0005
      3546.879        2763.802
   -269314.578 9   -194226.32157  23990397.085    23990395.5615   23990401.9585
      2245.144        1749.463
 97  5 15 15 28  0.0000000  0  6 19  2 27 26  7 15                   0.000923959
    227461.761 9    170136.58247  23033214.215    23033214.9874   23033221.1114
     -1559.066       -1214.857
   -216507.375 9   -163195.02248  21338946.589    21338946.9744   21338953.0654
      1433.877        1117.307
    -78352.742 9    -57820.35748  20477030.023    20477030.9644   20477036.2264
       512.189         399.108
   -424774.258 9   -300832.53147  23346383.811    23346385.4314   23346390.7654
      2857.011        2226.242
   -517099.503 9   -386608.13254  21556477.768           0.0005          0.0005
      3539.969        2758.417
   -336515.160 9   -246590.39147  23977608.024    23977607.6064   23977614.1864
      2236.352        1742.612
 97  5 15 15 28 30.0000000  0  6 19  2 27 26  7 15                   0.000901352
    274280.062 9    206618.34547  23042123.413    23042124.2794   23042130.3554
     -1562.236       -1217.327
   -259539.926 9   -196726.86848  21330757.656    21330758.1654   21330764.2164
      1434.836        1118.054
    -93588.122 9    -69692.08948  20474130.805    20474131.7714   20474137.0834
       503.159         392.072
   -510343.684 9   -367509.99447  23330100.517    23330102.0934   23330107.4644
      2847.386        2218.742
   -623187.703 9   -468800.17454  21536289.864           0.0005          0.0005
      3532.506        2752.602
   -403465.587 9   -298759.48946  23964867.245    23964867.3224   23964873.9244
      2226.735        1735.118
 97  5 15 15 29  0.0000000  0  6 19  2 27 26  7 15                   0.000878598
    321131.595 9    243125.97647  23051038.784    23051039.8004   23051045.9944
     -1562.830       -1217.790
   -302664.796 9   -230330.65248  21322551.275    21322551.8024   21322557.8534
      1438.437        1120.860
   -108604.240 9    -81392.97048  20471273.371    20471274.3364   20471279.6424
       496.135         386.599
   -595684.275 9   -434009.13847  23313860.614    23313862.3024   23313867.7274
      2840.231        2213.167
   -729123.444 9    -68219.80058  21516130.973           0.0005   21516137.8885
      3528.119        2749.184
   -470179.820 9   -350744.57547  23952171.825    23952172.0614   23952178.6524
      2219.108        1729.175
 97  5 15 15 29 30.0000000  0  6 19  2 27 26  7 15                   0.000855696
    368004.131 9    279650.00847  23059958.558    23059959.4354   23059965.5684
     -1563.713       -1218.478
   -345883.095 9   -264007.24248  21314327.119    21314327.6414   21314333.7004
      1440.870        1122.756
   -123393.703 9    -92917.23448  20468459.085    20468460.0264   20468465.3364
       488.117         380.351
   -680789.308 9   -500324.74647  23297665.722    23297667.3564   23297672.7784
      2831.601        2206.442
   -834908.201 9   -150649.45048  21496000.802    21496001.8035   21496007.7834
      3522.329        2744.672
   -536647.193 9   -402537.31447  23939523.381    23939523.7004   23939530.3434
      2210.193        1722.228
 97  5 15 15 30  0.0000000  0  6 19  2 27 26  7 15                   0.000832684
    414926.254 9    316212.65947  23068887.438    23068888.4714   23068894.6034
     -1564.435       -1219.040
   -389150.020 9   -297721.72648  21306093.776    21306094.2484   21306100.2814
      1443.586        1124.872
   -137920.754 9   -104237.02148  20465694.757    20465695.6454   20465700.9684
       480.210         374.190
   -765601.427 9   -566412.11847  23281526.885    23281528.2084   23281533.6134
      2822.512        2199.360
   -940488.086 9   -232919.47348  21475909.627    21475910.6484   21475916.6464
      3516.382        2740.038
   -602814.798 9   -454096.47546  23926932.077    23926932.3794   23926939.0594
      2200.841        1714.941
 97  5 15 15 30 30.0000000  0  6 19  2 27 26  7 15                   0.000809565
    461909.178 9    352822.69847  23077827.912    23077829.0034   23077835.2324
     -1567.333       -1221.298
   -432456.547 9   -331467.06448  21297852.901    21297853.3394   21297859.3664
      1443.643        1124.917
   -152174.560 9   -115343.89148  20462982.361    20462983.2584   20462988.5874
       470.423         366.563
   -850109.925 9   -632262.90247  23265445.608    23265446.8374   23265452.2344
      2811.811        2191.022
  -1045871.194 9   -315036.17048  21455855.890    21455856.8374   21455862.8724
      3509.588        2734.744
   -668661.889 9   -505405.84647  23914401.648    23914402.1214   23914408.7764
      2189.321        1705.964
 97  5 15 15 31  0.0000000  0  6 19  2 27 26  7 15                   0.000786349
    508983.506 9    389503.96647  23086785.974    23086787.0094   23086793.1534
     -1571.191       -1224.305
   -475737.241 9   -365192.26948  21289616.870    21289617.3274   21289623.3224
      1441.476        1123.228
   -166128.234 9   -126216.89348  20460327.084    20460327.9874   20460333.3314
       459.616         358.142
   -934287.843 9   -697856.07947  23249427.239    23249428.3904   23249433.7684
      2799.678        2181.567
  -1151042.830 9   -396988.06948  21435842.395    21435843.3354   21435849.3524
      3501.275        2728.266
   -734151.787 9   -556436.90047  23901939.288    23901939.7584   23901946.4534
      2176.412        1695.905
 97  5 15 15 31 30.0000000  0  6 19  2 27 26  7 15                   0.000763070
    556190.611 9    426288.69347  23095769.173    23095770.3674   23095776.4424
     -1576.522       -1228.459
   -518933.794 9   -398851.91148  21281396.790    21281397.3314   21281403.3104
      1437.655        1120.251
   -179746.926 9   -136828.86748  20457735.614    20457736.4634   20457741.8244
       447.706         348.862
  -1018082.180 9   -763150.36847  23233481.543    23233482.8684   23233488.2584
      2786.140        2171.018
  -1255931.144 9   -478719.19548  21415882.834    21415883.7904   21415889.8074
      3490.753        2720.067
   -799242.890 9   -607157.20347  23889552.870    23889553.3824   23889560.0564
      2162.381        1684.972
 97  5 15 15 32  0.0000000  0  6 19  2 27 26  7 15                   0.000739736
    603564.544 9    463203.40547  23104784.139    23104785.3424   23104791.4984
     -1582.227       -1232.904
   -562005.693 9   -432414.42648  21273200.571    21273201.0664   21273207.0304
      1433.307        1116.862
   -192996.717 9   -147153.38848  20455214.324    20455215.1594   20455220.5074
       435.056         339.005
  -1101476.965 9   -828133.31447  23217612.078    23217613.3884   23217618.8064
      2773.094        2160.852
  -1360508.302 9   -560207.86848  21395982.543    21395983.4454   21395989.4694
      3480.628        2712.178
   -863910.488 9   -657547.53547  23877246.990    23877247.5084   23877254.2374
      2148.267        1673.974
 97  5 15 15 32 30.0000000  0  6 19  2 27 26  7 15                   0.000716319
    651098.483 9    500242.81647  23113829.698    23113830.8114   23113836.8874
     -1586.405       -1236.160
   -604961.131 9   -465886.19648  21265026.390    21265026.9594   21265032.9044
      1430.635        1114.781
   -205883.177 9   -157194.79148  20452762.190    20452762.9874   20452768.3334
       424.261         330.593
  -1184500.661 9   -892827.09447  23201813.213    23201814.5334   23201819.9944
      2761.842        2152.085
  -1464798.097 9   -641472.63248  21376136.849    21376137.7594   21376143.7804
      3471.959        2705.423
   -928177.956 9   -707626.06347  23865017.235    23865017.8484   23865024.5344
      2136.334        1664.676
 97  5 15 15 33  0.0000000  0  6 19  2 27 26  7 15                   0.000692854
    698824.992 9    537432.26947  23122911.794    23122913.0154   23122919.1224
     -1593.713       -1241.854
   -647770.875 9   -499244.43448  21256879.921    21256880.5384   21256886.5094
      1425.184        1110.533
   -218363.372 9   -166919.62548  20450387.333    20450388.1174   20450393.4744
       409.387         319.003
  -1267101.344 9   -957191.27047  23186094.913    23186096.1804   23186101.6404
      2746.570        2140.184
  -1568731.437 9   -722459.63548  21356359.004    21356359.9354   21356365.9514
      3458.536        2694.963
   -992009.318 9   -757364.76747  23852870.602    23852871.1674   23852877.8184
      2120.707        1652.499
 97  5 15 15 33 30.0000000  0  6 19  2 27 26  7 15                   0.000669351
    746754.920 9    574780.23047  23132032.527    23132033.7164   23132039.8264
     -1601.227       -1247.709
   -690440.103 9   -532493.17448  21248760.234    21248760.8614   21248766.8344
      1419.886        1106.405
   -230411.607 9   -176307.86448  20448094.659    20448095.4394   20448100.8114
       394.163         307.140
  -1349262.885 9  -1021213.23847  23170460.093    23170461.3684   23170466.8004
      2731.387        2128.354
  -1672278.326 9   -803145.51148  21336654.738    21336655.6364   21336661.6664
      3445.264        2684.621
  -1055387.363 9   -806750.25847  23840810.236    23840810.7344   23840817.3624
      2104.744        1640.060
 97  5 15 15 34  0.0000000  0  6 19  2 27 26  7 15                   0.000645828
    794924.104 9    612314.60747  23141198.786    23141199.9864   23141206.2714
     -1609.978       -1254.528
   -732953.792 9   -565620.71548  21240670.157    21240670.7744   21240676.7694
      1414.398        1102.128
   -241995.017 9   -185333.89848  20445890.442    20445891.2144   20445896.5814
       378.063         294.595
  -1430960.789 9  -1084873.94147  23154913.402    23154914.7834   23154920.2294
      2715.041        2115.616
  -1775431.972 9   -883524.96448  21317025.247    21317026.1894   21317032.1724
      3431.546        2673.932
  -1118275.025 9   -855753.61347  23828843.087    23828843.5954   23828850.2634
      2087.671        1626.757
 97  5 15 15 34 30.0000000  0  6 19  2 27 26  7 15                   0.000622305
    843331.904 9    650034.95547  23150410.585    23150411.7714   23150417.9284
     -1618.057       -1260.824
   -775338.127 9   -598647.46148  21232604.729    21232605.3294   21232611.3114
      1410.314        1098.946
   -253129.297 9   -194009.96548  20443771.722    20443772.4634   20443777.8334
       363.322         283.108
  -1512183.809 9  -1148164.60647  23139457.142    23139458.5864   23139463.9994
      2698.888        2103.030
  -1878191.854 9   -963597.58548  21297470.746    21297471.6144   21297477.5994
      3418.210        2663.540
  -1180671.936 9   -904374.57947  23816969.331    23816969.8924   23816976.5114
      2071.148        1613.882
 97  5 15 15 35  0.0000000  0  6 19  2 27 26  7 15                   0.000598787
    891965.278 9    687931.05947  23159665.303    23159666.4904   23159672.7054
     -1624.227       -1265.631
   -817612.848 9   -631588.80348  21224560.164    21224560.7554   21224566.7064
      1407.899        1097.064
   -263832.843 9   -202350.39948  20441734.873    20441735.6844   20441741.0384
       350.406         273.044
  -1592937.874 9  -1211089.84347  23124090.236    23124091.5674   23124096.9894
      2684.889        2092.121
  -1980565.516 9  -1043369.24748  21277989.604    21277990.5734   21277996.5464
      3406.803        2654.652
  -1242576.883 9   -952612.21647  23805189.256    23805189.8134   23805196.3874
      2055.870        1601.977
 97  5 15 15 35 30.0000000  0  6 19  2 27 26  7 15                   0.000575283
    940849.867 9    726022.90547  23168967.761    23168968.9364   23168975.2204
     -1633.913       -1273.179
   -859746.270 9   -664420.04048  21216542.514    21216543.0774   21216549.0054
      1401.848        1092.349
   -274092.723 9   -210345.11248  20439782.501    20439783.3424   20439788.6864
       334.353         260.535
  -1673214.011 9  -1273642.67247  23108814.282    23108815.5614   23108821.0004
      2667.703        2078.730
  -2082532.721 9  -1122824.19848  21258586.062    21258586.9144   21258592.8734
      3391.810        2642.969
  -1303962.239 9  -1000444.95247  23793507.996    23793508.6074   23793515.1844
      2037.225        1587.448
 97  5 15 15 36  0.0000000  0  6 19  2 27 26  7 15                   0.000551790
    989981.205 9    764307.02947  23178317.177    23178318.3134   23178324.6154
     -1641.445       -1279.048
   -901744.270 9   -697145.75748  21208550.545    21208551.1334   21208557.0434
      1397.689        1089.108
   -283910.752 9   -217995.53148  20437914.232    20437915.0504   20437920.4084
       320.028         249.372
  -1753019.888 9  -1335829.06647  23093627.793    23093629.0754   23093634.4824
      2652.519        2066.898
  -2184082.949 9  -1201954.23448  21239261.607    21239262.5584   21239268.5224
      3377.934        2632.156
  -1364832.808 9  -1047876.54047  23781924.706    23781925.3924   23781931.8914
      2020.656        1574.537
 97  5 15 15 36 30.0000000  0  6 19  2 27 26  7 15                   0.000528296
   1039346.811 9    802773.71347  23187711.220    23187712.3734   23187718.6254
     -1648.561       -1284.593
   -943593.076 9   -729755.22248  21200587.022    21200587.5814   21200593.4984
      1393.011        1085.463
   -293284.285 9   -225299.58948  20436130.520    20436131.3514   20436136.7154
       305.599         238.129
  -1832359.927 9  -1397652.46847  23078529.834    23078531.1994   23078536.6364
      2637.688        2055.341
  -2285192.047 9  -1280740.53548  21220021.207    21220022.1494   21220028.1164
      3363.460        2620.878
  -1425192.104 9  -1094909.73647  23770438.804    23770439.4104   23770445.9014
      2004.099        1561.636
 97  5 15 15 37  0.0000000  0  6 19  2 27 26  7 15                   0.000504819
   1088986.372 9    841453.83847  23197157.197    23197158.3724   23197164.7534
     -1659.264       -1292.933
   -985223.549 9   -762194.55248  21192664.961    21192665.5574   21192671.4834
      1383.657        1078.174
   -302150.062 9   -232207.98948  20434443.479    20434444.2814   20434449.6364
       286.802         223.482
  -1911192.499 9  -1459080.44147  23063528.774    23063529.8474   23063535.2894
      2619.045        2040.814
  -2385791.741 9  -1359129.90148  21200877.750    21200878.6614   21200884.6384
      3344.569        2606.158
  -1484984.567 9  -1141501.21447  23759060.645    23759061.2604   23759067.7684
      1983.398        1545.505
 97  5 15 15 37 30.0000000  0  6 19  2 27 26  7 15                   0.000481374
   1138927.697 9    880369.15047  23206660.838    23206662.0034   23206668.3344
     -1669.403       -1300.833
  -1026591.149 9   -794429.04148  21184793.068    21184793.5824   21184799.5094
      1374.752        1071.235
   -310475.659 9   -238695.47048  20432859.177    20432859.9874   20432865.3584
       268.601         209.299
  -1989479.417 9  -1520083.22947  23048631.185    23048632.3524   23048637.8344
      2600.524        2026.382
  -2485847.377 9  -1437095.32648  21181837.809    21181838.6854   21181844.6604
      3326.531        2592.102
  -1544181.513 9  -1187628.69047  23747795.812    23747796.4714   23747802.9494
      1963.518        1530.014
 97  5 15 15 38  0.0000000  0  6 19  2 27 26  7 15                   0.000457961
   1189179.495 9    919526.37847  23216223.482    23216224.6844   23216230.9994
     -1680.091       -1309.162
  -1067679.465 9   -826445.90548  21176974.120    21176974.7474   21176980.6704
      1364.959        1063.604
   -318250.214 9   -244753.57048  20431379.710    20431380.5374   20431385.9404
       250.266         195.012
  -2067202.862 9  -1580646.94147  23033840.912    23033842.0774   23033847.5714
      2581.426        2011.501
  -2585373.947 9  -1514648.48848  21162898.556    21162899.4104   21162905.4004
      3309.229        2578.620
  -1602777.728 9  -1233288.06847  23736645.417    23736645.9994   23736652.4194
      1943.377        1514.320
 97  5 15 15 38 30.0000000  0  6 19  2 27 26  7 15                   0.000434585
   1239740.650 9    958924.61447  23225844.950    23225846.1964   23225852.5324
     -1691.813       -1318.296
  -1108491.343 9   -858247.36548  21169207.835    21169208.5034   21169214.4584
      1354.796        1055.685
   -325494.690 9   -250398.62048  20430001.142    20430001.9694   20430007.3854
       231.377         180.294
  -2144353.851 9  -1640764.59247  23019159.577    23019160.7414   23019166.2514
      2560.775        1995.409
  -2684410.409 9  -1591819.73848  21144052.586    21144053.4054   21144059.3894
      3292.045        2565.230
  -1660779.908 9  -1278484.55347  23725607.984    23725608.5544   23725614.9694
      1922.228        1497.840
 97  5 15 15 39  0.0000000  0  6 19  2 27 26  7 15                   0.000411269
   1290637.874 9    998584.77947  23235530.488    23235531.7974   23235537.9694
     -1702.200       -1326.390
  -1149021.148 9   -889829.02748  21161495.350    21161495.9704   21161501.9154
      1346.477        1049.203
   -332185.905 9   -255612.56148  20428727.882    20428728.6894   20428734.1174
       213.817         166.611
  -2220892.183 9  -1700404.85347  23004594.697    23004595.9684   23004601.4784
      2540.912        1979.931
  -2782960.626 9  -1668612.11848  21125299.066    21125299.9154   21125305.9114
      3277.216        2553.675
  -1718168.698 9  -1323203.10247  23714687.240    23714687.8994   23714694.2434
      1902.792        1482.695
 97  5 15 15 39 30.0000000  0  6 19  2 27 26  7 15                   0.000388015
   1341864.718 9   1038501.75747  23245278.562    23245279.8024   23245286.1884
     -1712.929       -1334.750
  -1189295.226 9   -921211.42448  21153831.580    21153832.0814   21153838.0054
      1338.447        1042.946
   -338332.400 9   -260402.04048  20427558.253    20427559.0604   20427564.5004
       195.640         152.447
  -2296818.725 9  -1759568.38047  22990146.385    22990147.6184   22990153.1714
      2520.797        1964.257
  -2881053.990 9  -1745048.49548  21106632.553    21106633.3884   21106639.3864
      3262.201        2541.975
  -1774958.738 9  -1367455.06847  23703880.512    23703881.0964   23703887.4434
      1882.994        1467.268
 97  5 15 15 40  0.0000000  0  6 19  2 27 26  7 15                   0.000364818
   1393418.657 9   1078673.62647  23255089.128    23255090.4224   23255096.7254
     -1724.340       -1343.641
  -1229337.847 9   -952413.46348  21146211.692    21146212.2384   21146218.1394
      1330.685        1036.897
   -343922.559 9   -264758.00948  20426494.490    20426495.3014   20426500.7604
       176.520         137.548
  -2372140.369 9  -1818260.56647  22975813.028    22975814.3974   22975819.9494
      2500.180        1948.192
  -2978696.500 9  -1821133.55648  21088051.764    21088052.6794   21088058.6834
      3246.516        2529.753
  -1831151.327 9  -1411241.47247  23693187.395    23693188.0044   23693194.3334
      1862.622        1451.394
 97  5 15 15 40 30.0000000  0  6 19  2 27 26  7 15                   0.000341665
   1445267.914 9   1119075.61747  23264955.574    23264956.9104   23264963.2584
     -1731.786       -1349.444
  -1269197.872 9   -983473.22148  21138626.530    21138627.1424   21138633.0154
      1326.896        1033.945
   -348972.546 9   -268693.06948  20425533.494    20425534.3344   20425539.8164
       160.389         124.978
  -2446886.883 9  -1876504.59347  22961589.271    22961590.6174   22961596.1724
      2483.445        1935.152
  -3075894.110 9  -1896871.94548  21069555.720    21069556.6184   21069562.5974
      3233.475        2519.591
  -1886770.489 9  -1454581.07147  23682603.380    23682604.0334   23682610.3654
      1845.638        1438.159
 97  5 15 15 41  0.0000000  0  6 19  2 27 26  7 15                   0.000318519
   1497363.326 9   1159669.39547  23274869.290    23274870.5504   23274876.9334
     -1741.970       -1357.379
  -1308902.398 9  -1014411.80548  21131071.062    21131071.6214   21131077.4824
      1319.272        1028.004
   -353502.193 9   -272222.66748  20424671.582    20424672.3844   20424677.8724
       140.990         109.862
  -2521106.553 9  -1934338.09347  22947465.839    22947467.0494   22947472.6124
      2463.925        1919.942
  -3172660.101 9  -1972274.00348  21051141.800    21051142.6624   21051148.6324
      3216.873        2506.654
  -1941845.373 9  -1497496.55747  23672122.929    23672123.6084   23672129.9574
      1825.233        1422.259
 97  5 15 15 41 30.0000000  0  6 19  2 27 26  7 15                   0.000295412
   1549767.369 9   1200503.73446  23284841.387    23284842.6304   23284848.8054
     -1751.183       -1364.558
  -1348374.732 9  -1045169.46848  21123559.619    21123560.2964   21123566.1704
      1312.615        1022.817
   -357455.280 9   -275302.99748  20423919.335    20423920.1604   20423925.6494
       122.990          95.836
  -2594750.253 9  -1991722.78447  22933451.930    22933453.1404   22933458.7004
      2445.954        1905.938
  -3268919.509 9  -2047281.31748  21032824.231    21032825.1244   21032831.0944
      3200.834        2494.156
  -1996301.788 9  -1539930.12747  23661760.308    23661760.9134   23661767.2694
      1805.586        1406.950
 97  5 15 15 42  0.0000000  0  6 19  2 27 26  7 15                   0.000272319
   1602431.704 9   1241540.84747  23294863.286    23294864.4784   23294870.7524
     -1761.836       -1372.859
  -1387660.228 9  -1075781.54548  21116083.952    21116084.5404   21116090.3934
      1304.088        1016.172
   -360890.927 9   -277980.12648  20423265.577    20423266.3804   20423271.8734
       104.002          81.041
  -2667867.135 9  -2048696.97447  22919538.256    22919539.4494   22919545.0454
      2426.394        1890.697
  -3364720.542 9  -2121931.46148  21014593.808    21014594.7334   21014600.7284
      3183.490        2480.642
  -2050185.998 9  -1581917.81247  23651506.479    23651507.0634   23651513.4154
      1784.465        1390.492
 97  5 15 15 42 30.0000000  0  6 19  2 27 26  7 15                   0.000249257
   1655384.235 9   1282802.49446  23304939.652    23304940.9504   23304947.1894
     -1769.024       -1378.460
  -1426700.277 9  -1106202.36848  21108654.811    21108655.4694   21108661.3284
      1297.935        1011.378
   -363791.448 9   -280240.27848  20422713.667    20422714.4524   20422719.9414
        88.742          69.150
  -2740424.225 9  -2105234.96447  22905731.198    22905732.3054   22905737.8854
      2410.105        1878.004
  -3460021.397 9  -2196191.85248  20996458.746    20996459.6074   20996465.5984
      3169.314        2469.595
  -2103459.075 9  -1623429.28247  23641368.914    23641369.5274   23641375.9294
      1766.433        1376.441
 97  5 15 15 43  0.0000000  0  6 19  2 27 26  7 15                   0.000226217
   1708608.582 9   1324276.01246  23315068.071    23315069.1824   23315075.3804
     -1777.143       -1384.787
  -1465499.140 9  -1136435.25548  21101271.763    21101272.2764   21101278.1654
      1290.906        1005.901
   -366191.959 9   -282110.80648  20422256.810    20422257.6814   20422263.1594
        73.440          57.226
  -2812437.999 9  -2161349.58447  22892027.456    22892028.6024   22892034.1344
      2392.862        1864.568
  -3554847.458 9  -2270082.27348  20978413.939    20978414.8324   20978420.8214
      3154.506        2458.057
  -2156142.335 9  -1664481.15147  23631343.774    23631344.2584   23631350.6244
      1747.888        1361.991
 97  5 15 15 43 30.0000000  0  6 19  2 27 26  7 15                   0.000203195
   1762097.479 9   1365955.56247  23325246.550    23325247.8964   23325254.1974
     -1787.649       -1392.973
  -1504074.938 9  -1166494.32048  21093930.982    21093931.5534   21093937.4654
      1281.899         998.882
   -368116.759 9   -283610.65848  20421890.570    20421891.4024   20421896.9064
        55.679          43.386
  -2883918.860 9  -2217048.94547  22878425.142    22878426.2894   22878431.7974
      2373.462        1849.451
  -3649208.388 9  -2343610.24648  20960457.613    20960458.5414   20960464.5224
      3137.232        2444.596
  -2208254.825 9  -1705088.26247  23621427.088    23621427.5804   23621433.9214
      1727.353        1345.989
 97  5 15 15 44  0.0000000  0  6 19  2 27 26  7 15                   0.000180196
   1815865.621 9   1407852.90446  23335478.746    23335479.6924   23335485.7434
     -1798.848       -1401.700
  -1542403.190 9  -1196360.49348  21086637.306    21086637.9514   21086643.8544
      1271.348         990.661
   -369533.838 9   -284714.88248  20421620.943    20421621.7534   20421627.2574
        36.758          28.643
  -2954847.180 9  -2272317.76447  22864927.967    22864929.0904   22864934.5754
      2353.162        1833.633
  -3743080.144 9  -2416757.06248  20942594.413    20942595.3554   20942601.3334
      3118.602        2430.079
  -2259783.270 9  -1745240.26947  23611621.595    23611622.0364   23611628.3844
      1705.800        1329.195
 97  5 15 15 44 30.0000000  0  6 19  2 27 26  7 15                   0.000157232
   1869938.949 9   1449987.80647  23345768.223    23345769.4944   23345775.8744
     -1807.644       -1408.554
  -1580451.647 9  -1226008.64548  21079396.982    21079397.6164   21079403.4954
      1263.807         984.785
   -370410.965 9   -285398.36448  20421454.105    20421454.8724   20421460.3584
        20.019          15.599
  -3025194.963 9  -2327134.20747  22851541.274    22851542.3384   22851547.8054
      2334.957        1819.447
  -3836416.513 9  -2489486.69148  20924833.189    20924834.0804   20924840.0464
      3102.387        2417.444
  -2310697.786 9  -1784913.92047  23601932.810    23601933.3454   23601939.6264
      1686.887        1314.457
 97  5 15 15 45  0.0000000  0  6 19  2 27 26  7 15                   0.000134302
   1924300.560 9   1492347.52646  23356113.226    23356114.2634   23356120.3674
     -1816.889       -1415.758
  -1618255.897 9  -1255466.49348  21072203.156    21072203.7314   21072209.6024
      1256.096         978.776
   -370755.526 9   -285666.85748  20421388.538    20421389.2884   20421394.7964
         2.548           1.985
  -3094965.750 9  -2381501.05247  22838264.223    22838265.3814   22838270.8334
      2315.949        1804.636
  -3929239.290 9  -2561816.11648  20907169.658    20907170.5124   20907176.4824
      3085.430        2404.231
  -2361016.733 9  -1824123.47247  23592357.434    23592357.9724   23592364.2624
      1667.127        1299.060
 97  5 15 15 45 30.0000000  0  6 19  2 27 26  7 15                   0.000111423
   1978969.871 9   1534946.93047  23366516.172    23366517.4544   23366523.6664
     -1825.803       -1422.704
  -1655812.604 9  -1284731.46348  21065056.246    21065056.9394   21065062.8204
      1249.547         973.673
   -370548.929 9   -285505.87848  20421427.877    20421428.6294   20421434.1394
       -14.483         -11.285
  -3164142.245 9  -2435404.80647  22825100.205    22825101.4884   22825106.9284
      2297.612        1790.347
  -4021533.631 9  -2633733.77248  20889606.553    20889607.4984   20889613.4534
      3069.514        2391.829
  -2410714.761 9  -1862849.21447  23582900.202    23582900.7194   23582907.0064
      1647.857        1284.044
 97  5 15 15 46  0.0000000  0  6 19  2 27 26  7 15                   0.000088568
   2033884.836 9   1577737.75546  23376966.426    23376967.5034   23376973.8464
     -1835.675       -1430.396
  -1693190.987 9  -1313857.47248  21057943.443    21057944.0774   21057949.9794
      1242.069         967.846
   -369853.808 9   -284964.22948  20421560.132    20421560.9154   20421566.4214
       -32.156         -25.057
  -3232775.749 9  -2488885.45247  22812039.759    22812040.9894   22812046.3984
      2277.562        1774.724
  -4113367.748 9  -2705292.81048  20872131.077    20872132.0454   20872137.9884
      3052.313        2378.426
  -2459846.240 9  -1901133.46547  23573550.766    23573551.2484   23573557.5614
      1627.181        1267.933
 97  5 15 15 46 30.0000000  0  6 19  2 27 26  7 15                   0.000065753
   2089050.082 9   1620723.66747  23387463.861    23387465.1294   23387471.1724
     -1842.003       -1435.327
  -1730407.798 9  -1342857.58648  21050861.240    21050861.9544   21050867.8674
      1238.890         965.369
   -368676.740 9   -284047.04748  20421784.068    20421784.8934   20421790.4284
       -46.313         -36.088
  -3300848.706 9  -2541929.31247  22799085.757    22799087.1324   22799092.5314
      2260.669        1761.560
  -4204737.921 9  -2776490.34048  20854743.885    20854744.8364   20854750.7924
      3039.156        2368.174
  -2508405.831 9  -1938972.11347  23564310.106    23564310.6834   23564316.9784
      1610.108        1254.630
 97  5 15 15 47  0.0000000  0  6 19  2 27 26  7 15                   0.000042997
   2144491.163 9   1663924.45146  23398014.312    23398015.3814   23398021.6104
     -1851.277       -1442.553
  -1767430.414 9  -1371706.37148  21043816.079    21043816.7754   21043822.7244
      1231.938         959.952
   -366992.921 9   -282734.98648  20422104.521    20422105.3174   20422110.8764
       -63.225         -49.266
  -3368336.050 9  -2594516.84247  22786243.383    22786244.7484   22786250.1144
      2241.378        1746.528
  -4295628.782 9  -2847314.38048  20837447.966    20837448.8984   20837454.8364
      3022.879        2355.490
  -2556364.564 9  -1976342.54647  23555183.866    23555184.4394   23555190.7304
      1589.894        1238.878
 97  5 15 15 47 30.0000000  0  6 19  2 27 26  7 15                   0.000020297
   2200227.109 9   1707354.96546  23408620.137    23408621.4794   23408627.7044
     -1862.755       -1451.497
  -1804228.671 9  -1400380.32448  21036813.715    21036814.2904   21036820.2614
      1222.608         952.682
   -364780.702 9   -281011.18848  20422525.505    20422526.2934   20422531.8714
       -82.974         -64.655
  -3435230.196 9  -2646642.14747  22773514.018    22773515.2414   22773520.5934
      2219.751        1729.676
  -4386009.357 9  -2917740.79148  20820249.025    20820250.0454   20820255.9864
      3003.864        2340.673
  -2603701.499 9  -2013228.45847  23546175.950    23546176.5104   23546182.8154
      1567.414        1221.361
 97  5 15 15 48  0.0000000  0  6 19  2 27 26  7 15                  -0.000002382
   2256205.741 9   1750974.73446  23419272.946    23419274.0984   23419280.1414
     -1869.350       -1456.636
  -1840826.328 9  -1428897.97448  21029849.421    21029849.9924   21029855.9424
      1217.252         948.508
   -362057.810 9   -278889.46048  20423043.689    20423044.4504   20423050.0514
       -98.687         -76.899
  -3501564.283 9  -2698331.03847  22760891.165    22760892.3264   22760897.6684
      2202.481        1716.219
  -4475903.929 9  -2987788.49948  20803142.655    20803143.7034   20803149.6454
      2988.959        2329.059
  -2650454.964 9  -2049659.72747  23537279.122    23537279.6904   23537285.9514
      1549.338        1207.276
 97  5 15 15 48 29.9990000  0  6 19  2 27 26  7 15                  -0.000025027
   2312459.436 9   1794808.60947  23429977.397    23429978.6544   23429985.1274
     -1878.961       -1464.125
  -1877184.246 9  -1457228.81748  21022930.659    21022931.2964   21022937.2294
      1208.690         941.836
   -358780.488 9   -276335.71848  20423667.351    20423668.1414   20423673.7234
      -117.587         -91.626
  -3567309.161 9  -2749560.81647  22748380.260    22748381.5034   22748386.8654
      2182.828        1700.905
  -4565272.003 9  -3057425.95348  20786136.525    20786137.5354   20786143.4704
      2971.291        2315.292
  -2696585.161 9  -2085605.31347  23528500.851    23528501.4374   23528507.6904
      1528.137        1190.756
 97  5 15 15 48 59.9990000  0  6 19  2 27 26  7 15                  -0.000047667
   2368962.576 9   1838837.06146  23440729.963    23440731.1314   23440737.2574
     -1888.207       -1471.330
  -1913325.341 9  -1485390.69748  21016053.216    21016053.8684   21016059.7954
      1200.623         935.550
   -354984.640 9   -273377.91748  20424389.706    20424390.5004   20424396.0614
      -135.740        -105.771
  -3632515.951 9  -2800371.29748  22735971.823    22735973.0284   22735978.4104
      2164.039        1686.264
  -4654155.882 9  -3126686.10448  20769222.569    20769223.5004   20769229.4524
      2954.103        2301.898
  -2742121.935 9  -2121088.49247  23519835.498    23519836.0734   23519842.3444
      1507.393        1174.592
 97  5 15 15 49 29.9990000  0  6 19  2 27 26  7 15                  -0.000070283
   2425739.338 9   1883078.62746  23451533.969    23451535.1914   23451541.4464
     -1896.550       -1477.831
  -1949239.802 9  -1513375.98348  21009218.944    21009219.6144   21009225.5024
      1193.874         930.291
   -350644.594 9   -269996.07348  20425215.596    20425216.4124   20425221.9424
      -153.332        -119.479
  -3697158.780 9  -2850742.33347  22723670.560    22723671.9064   22723677.2784
      2145.717        1671.987
  -4742528.988 9  -3195548.25448  20752405.747    20752406.6474   20752412.6184
      2937.827        2289.216
  -2787038.407 9  -2156088.34847  23511288.117    23511288.7894   23511295.0204
      1487.315        1158.947
 97  5 15 15 49 59.9990000  0  6 19  2 27 26  7 15                  -0.000092882
   2482770.249 9   1927518.24147  23462386.638    23462388.0194   23462394.2504
     -1904.447       -1483.985
  -1984949.924 9  -1541202.05048  21002423.641    21002424.2224   21002430.0734
      1187.973         925.693
   -345778.787 9   -266204.54448  20426141.528    20426142.3674   20426147.8854
      -169.947        -132.426
  -3761249.526 9  -2900683.17148  22711474.475    22711475.8044   22711481.1804
      2128.182        1658.324
  -4830426.255 9  -3264039.62348  20735679.337    20735680.3134   20735686.2754
      2922.966        2277.636
  -2831353.703 9  -2190619.75147  23502855.161    23502855.8534   23502862.1234
      1468.070        1143.951
 97  5 15 15 50 29.9990000  0  6 19  2 27 26  7 15                  -0.000115461
   2540061.606 9   1972160.77946  23473288.785    23473290.0974   23473296.4864
     -1914.375       -1491.721
  -2020463.995 9  -1568875.34648  20995665.436    20995666.1324   20995671.9554
      1179.931         919.427
   -340395.442 9   -262009.73548  20427166.000    20427166.8154   20427172.2874
      -188.349        -146.765
  -3824798.606 9  -2950201.93348  22699381.510    22699382.8314   22699388.2214
      2108.747        1643.179
  -4917850.654 9  -3332162.51848  20719042.999    20719043.9624   20719049.9424
      2905.741        2264.214
  -2875066.212 9  -2224681.44547  23494536.875    23494537.6244   23494543.8994
      1446.649        1127.259
 97  5 15 15 50 59.9990000  0  6 19  2 27 26  7 15                  -0.000138031
   2597586.594 9   2016985.48447  23484235.534    23484236.8104   23484242.9994
     -1922.225       -1497.838
  -2055790.162 9  -1596402.21848  20988943.221    20988943.7944   20988949.6114
      1173.552         914.456
   -334518.986 9   -257430.68548  20428284.274    20428285.0774   20428290.5594
      -205.156        -159.862
  -3887812.264 9  -2999303.47548  22687390.524    22687391.7424   22687397.1414
      2090.400        1628.883
  -5004816.269 9  -3399927.92048  20702493.959    20702494.9594   20702500.9574
      2890.197        2252.102
  -2918199.494 9  -2258291.76647  23486328.978    23486329.6544   23486335.9634
      1427.229        1112.126
 97  5 15 15 51 29.9990000  0  6 19  2 27 26  7 15                  -0.000160564
   2655378.590 9   2062018.11746  23495233.184    23495234.3424   23495240.8414
     -1929.352       -1503.391
  -2090889.640 9  -1623752.46148  20982263.991    20982264.6004   20982270.4074
      1167.551         909.780
   -328094.030 9   -252424.23948  20429506.899    20429507.7424   20429513.2084
      -221.922        -172.926
  -3950229.560 9  -3047940.33448  22675512.660    22675514.1174   22675519.5264
      2072.009        1614.552
  -5091270.411 9  -3467294.77748  20686042.349    20686043.2924   20686049.3114
      2874.584        2239.936
  -2960714.110 9  -2291420.01047  23478238.786    23478239.3414   23478245.6684
      1408.254        1097.341
 97  5 15 15 51 59.9990000  0  6 19  2 27 26  7 15                  -0.000183070
   2713414.835 9   2107241.08146  23506276.982    23506278.2344   23506284.7154
     -1939.361       -1511.190
  -2125778.212 9  -1650938.35648  20975625.046    20975625.5324   20975631.3284
      1158.817         902.974
   -321139.570 9   -247005.18148  20430830.332    20430831.1494   20430836.6214
      -241.096        -187.867
  -4012064.405 9  -3096123.32448  22663745.921    22663747.3514   22663752.7494
      2050.853        1598.067
  -5177228.263 9  -3534274.91348  20669685.181    20669686.0794   20669692.1044
      2856.307        2225.694
  -3002631.220 9  -2324082.66947  23470262.241    23470262.7794   23470269.1024
      1386.588        1080.458
 97  5 15 15 52 29.9990000  0  6 19  2 27 26  7 15                  -0.000205517
   2771735.093 9   2152685.49846  23517375.279    23517376.4414   23517382.5904
     -1949.420       -1519.029
  -2160423.163 9  -1677934.42748  20969032.364    20969032.8064   20969038.6024
      1150.088         896.172
   -313639.835 9   -241161.24248  20432257.462    20432258.3114   20432263.7784
      -259.496        -202.205
  -4073281.058 9  -3143824.61448  22652096.839    22652098.2324   22652103.6054
      2029.431        1581.375
  -5262650.302 9  -3600837.53048  20653429.943    20653430.8124   20653436.8414
      2837.830        2211.296
  -3043915.191 9  -2356251.98047  23462406.136    23462406.6474   23462413.0144
      1364.967        1063.611
 97  5 15 15 52 59.9990000  0  6 19  2 27 26  7 15                  -0.000227904
   2830334.717 9   2198347.32846  23528526.168    23528527.3534   23528533.9904
     -1957.846       -1525.594
  -2194837.939 9  -1704751.13248  20962483.334    20962483.8984   20962489.7024
      1143.796         891.270
   -305617.144 9   -234909.80248  20433784.148    20433784.9884   20433790.4394
      -276.075        -215.123
  -4133876.716 9  -3191042.01248  22640565.772    22640567.2624   22640572.5984
      2009.816        1566.090
  -5347547.271 9  -3666991.00348  20637274.408    20637275.4464   20637281.4624
      2821.331        2198.440
  -3084580.178 9  -2387938.95647  23454667.917    23454668.3664   23454674.6914
      1345.290        1048.278
 97  5 15 15 53 29.9990000  0  6 19  2 27 26  7 15                  -0.000250235
   2889201.922 9   2244217.91646  23539728.276    23539729.6534   23539735.8854
     -1965.929       -1531.893
  -2229060.285 9  -1731417.89648  20955971.071    20955971.6004   20955977.4094
      1138.201         886.910
   -297080.667 9   -228258.00848  20435408.574    20435409.4474   20435414.8684
      -292.384        -227.832
  -4193880.411 9  -3237798.13748  22629147.423    22629148.9684   22629154.2994
      1991.218        1551.598
  -5431936.295 9  -3732748.67448  20621215.683    20621216.7104   20621222.7324
      2805.342        2185.981
  -3124635.015 9  -2419150.50147  23447045.573    23447046.1554   23447052.4964
      1325.658        1032.980
 97  5 15 15 53 59.9990000  0  6 19  2 27 26  7 15                  -0.000272518
   2948342.377 8   2290301.33746  23550982.356    23550983.5904   23550990.0304
     -1977.305       -1540.757
  -2263080.998 9  -1757927.54948  20949497.095    20949497.7044   20949503.4874
      1129.231         879.920
   -288035.504 9   -221209.84048  20437129.839    20437130.6864   20437136.1264
      -311.299        -242.571
  -4253307.616 9  -3284105.05048  22617839.088    22617840.3944   22617845.7244
      1970.006        1535.070
  -5515827.246 9  -3798118.23348  20605251.765    20605252.7884   20605258.8124
      2786.741        2171.486
  -3164072.161 9  -2449880.73247  23439540.950    23439541.5134   23439547.8634
      1302.833        1015.195
 97  5 15 15 54 29.9990000  0  6 19  2 27 26  7 15                  -0.000294762
   3007745.997 9   2336589.74447  23562286.492    23562287.8824   23562294.4394
     -1984.838       -1546.627
  -2296903.239 9  -1784282.54648  20943061.015    20943061.5394   20943067.3204
      1123.630         875.556
   -278488.043 9   -213770.27148  20438946.712    20438947.5424   20438952.9704
      -327.215        -254.973
  -4312169.376 9  -3329971.35948  22606638.155    22606639.3914   22606644.7254
      1952.169        1521.171
  -5599219.866 9  -3863099.48648  20589382.581    20589383.7084   20589389.7124
      2770.803        2159.067
  -3202892.598 9  -2480130.41347  23432153.665    23432154.2314   23432160.5114
      1283.225         999.916
 97  5 15 15 54 59.9990000  0  6 19  2 27 26  7 15                  -0.000316983
   3067394.672 9   2383069.22046  23573637.460    23573638.7204   23573645.1744
     -1991.949       -1552.168
  -2330532.566 9  -1810487.21848  20936661.500    20936662.1064   20936667.8474
      1117.991         871.162
   -268434.237 9   -205936.14848  20440859.914    20440860.7674   20440866.1704
      -343.410        -267.592
  -4370482.826 9  -3375410.42048  22595541.402    22595542.6864   22595547.9744
      1935.169        1507.924
  -5682111.772 9  -3927690.57448  20573608.884    20573609.9094   20573615.9014
      2755.091        2146.824
  -3241099.575 9  -2509902.07547  23424883.104    23424883.7014   23424889.9384
      1263.619         984.638
 97  5 15 15 55 29.9990000  0  6 19  2 27 26  7 15                  -0.000339196
   3127287.538 9   2429738.97346  23585034.757    23585036.0114   23585042.3614
     -2000.858       -1559.110
  -2363945.745 9  -1836523.45848  20930303.223    20930303.8144   20930309.5484
      1109.451         864.507
   -257859.172 9   -197695.84548  20442872.328    20442873.1894   20442878.5854
      -361.466        -281.662
  -4428255.653 9  -3420428.21148  22584547.684    22584548.9174   22584554.1684
      1916.366        1493.272
  -5764505.262 9  -3991893.28148  20557929.924    20557930.9864   20557936.9624
      2737.987        2133.496
  -3278683.678 9  -2539188.37647  23417731.097    23417731.6704   23417737.9394
      1242.111         967.879
 97  5 15 15 55 59.9990000  0  6 19  2 27 26  7 15                  -0.000361393
   3187444.124 9   2476614.11946  23596482.253    23596483.5354   23596489.9964
     -2010.085       -1566.300
  -2397105.508 9  -1862362.23648  20923993.094    20923993.7284   20923999.4444
      1100.739         857.719
   -246758.855 9   -189046.25948  20444984.715    20444985.5204   20444990.9014
      -379.254        -295.523
  -4485466.941 9  -3465008.44248  22573660.805    22573662.0034   22573667.2474
      1897.026        1478.202
  -5846393.522 9  -4055702.30748  20542347.081    20542348.1744   20542354.1494
      2720.425        2119.812
  -3315635.928 9  -2567982.30747  23410699.344    23410699.8954   23410706.1464
      1220.743         951.228
 97  5 15 15 56 29.9990000  0  6 19  2 27 26  7 15                  -0.000383569
   3247861.023 9   2523692.16346  23607979.311    23607980.5774   23607986.9844
     -2018.536       -1572.885
  -2430017.118 9  -1888007.64348  20917730.238    20917730.8734   20917736.5754
      1092.501         851.299
   -235132.915 9   -179987.09248  20447197.083    20447197.8704   20447203.2624
      -396.733        -309.143
  -4542104.264 9  -3509141.41748  22562883.048    22562884.2634   22562889.5354
      1877.858        1463.266
  -5927753.552 9  -4119099.71548  20526864.819    20526865.8674   20526871.8594
      2702.730        2106.023
  -3351959.302 9  -2596286.22347  23403787.232    23403787.7714   23403794.0004
      1199.940         935.018
 97  5 15 15 56 59.9990000  0  6 19  2 27 26  7 15                  -0.000405722
   3308539.382 9   2570973.97246  23619526.087    23619527.2864   23619533.5434
     -2027.493       -1579.865
  -2462674.328 9  -1913454.82248  20911515.805    20911516.4354   20911522.1214
      1083.779         844.503
   -222975.579 9   -170513.85548  20449510.536    20449511.3474   20449516.7324
      -414.797        -323.218
  -4598157.550 9  -3552819.31248  22552216.349    22552217.6834   22552222.9664
      1857.988        1447.783
  -6008587.349 9  -4182087.08148  20511482.605    20511483.7204   20511489.6784
      2685.417        2092.533
  -3387656.131 9  -2624101.89147  23396994.225    23396994.8424   23397001.0924
      1178.973         918.680
 97  5 15 15 57 29.9990000  0  6 19  2 27 26  7 15                  -0.000427832
   3369490.874 9   2618468.56946  23631124.990    23631126.1224   23631132.3244
     -2035.984       -1586.481
  -2495068.279 9  -1938696.86548  20905351.522    20905352.0854   20905357.7634
      1075.764         838.258
   -210267.055 9   -160611.11948  20451928.933    20451929.7054   20451935.1184
      -432.506        -337.018
  -4653594.444 9  -3596016.89348  22541667.204    22541668.4074   22541673.7024
      1837.671        1431.951
  -6088898.714 9  -4244667.35048  20496200.022    20496200.9544   20496206.9484
      2668.433        2079.298
  -3422717.490 9  -2651422.41347  23390322.209    23390322.8434   23390329.1004
      1158.286         902.561
 97  5 15 15 57 59.9990000  0  6 19  2 27 26  7 15                  -0.000449905
   3430682.047 9   2666149.88746  23642769.200    23642770.3424   23642776.7644
     -2044.135       -1592.832
  -2527244.139 9  -1963768.97348  20899228.575    20899229.2374   20899234.8934
      1068.607         832.681
   -197040.954 9   -150305.08148  20454445.767    20454446.5764   20454451.9954
      -450.094        -350.723
  -4708428.305 9  -3638744.58448  22531232.294    22531233.8934   22531239.1754
      1817.057        1415.889
  -6168694.482 9  -4306845.86048  20481015.424    20481016.3294   20481022.3314
      2650.432        2065.272
  -3457167.124 9  -2678266.27747  23383766.674    23383767.2424   23383773.5634
      1137.477         886.346
 97  5 15 15 58 29.9990000  0  6 19  2 27 26  7 15                  -0.000471923
   3492114.516 9   2714019.26846  23654459.332    23654460.6364   23654466.9014
     -2052.447       -1599.309
  -2559205.709 9  -1988674.10048  20893146.446    20893147.1754   20893152.8134
      1061.145         826.866
   -183282.658 9   -139584.34248  20457063.883    20457064.6974   20457070.1254
      -468.117        -364.766
  -4762635.247 9  -3680983.76248  22520917.076    22520918.6824   22520923.9564
      1795.889        1399.394
  -6247954.564 9  -4368606.95148  20465932.780    20465933.6384   20465939.6594
      2632.771        2051.510
  -3490987.456 9  -2704619.77447  23377330.871    23377331.4484   23377337.7944
      1116.209         869.773
 97  5 15 15 58 59.9990000  0  6 19  2 27 26  7 15                  -0.000493861
   3553825.737 9   2762105.94946  23666202.816    23666204.0794   23666210.1214
     -2060.746       -1605.776
  -2590920.799 9  -2013387.15948  20887111.339    20887112.0084   20887117.6044
      1054.076         821.358
   -168964.313 9   -128427.19848  20459788.549    20459789.3644   20459794.8164
      -485.439        -378.264
  -4816186.370 9  -3722711.90648  22510726.924    22510728.2524   22510733.5384
      1775.237        1383.302
  -6326671.737 9  -4429944.99548  20450953.417    20450954.2254   20450960.2434
      2615.929        2038.386
  -3524145.222 9  -2730457.01247  23371021.152    23371021.7314   23371028.0564
      1095.071         853.302
 97  5 15 15 59 29.9990000  0  6 19  2 27 26  7 15                  -0.000515755
   3615766.246 8   2810371.19246  23677989.840    23677990.9664   23677997.1734
     -2069.032       -1612.233
  -2622447.655 9  -2037953.54548  20881111.975    20881112.6124   20881118.1894
      1047.367         816.130
   -154157.155 9   -116889.16248  20462606.259    20462607.0684   20462612.5444
      -502.125        -391.266
  -4869149.186 9  -3763981.63048  22500648.469    22500649.7864   22500655.0744
      1755.386        1367.833
  -6404895.452 9  -4490898.52348  20436067.872    20436068.7194   20436074.7414
      2598.535        2024.832
  -3556685.155 9  -2755812.78647  23364829.037    23364829.5844   23364835.9334
      1073.774         836.707
 97  5 15 15 59 59.9990000  0  6 19  2 27 26  7 15                  -0.000537616
   3677927.178 9   2858808.16446  23689818.636    23689819.7394   23689825.9904
     -2074.964       -1616.855
  -2653805.434 9  -2062388.17948  20875144.771    20875145.4134   20875150.9824
      1043.172         812.861
   -138880.312 9   -104985.13148  20465513.327    20465514.1714   20465519.6494
      -516.394        -402.385
  -4921551.123 9  -3804814.30648  22490676.504    22490678.0514   22490683.3434
      1738.111        1354.372
  -6482624.958 9  -4551466.95548  20421276.450    20421277.2804   20421283.3344
      2583.682        2013.259
  -3588614.846 9  -2780693.04947  23358753.057    23358753.5574   23358759.9244
      1054.935         822.027
 97  5 15 16  0 29.9990000  0  6 19  2 27 26  7 15                  -0.000559440
   3740329.263 9   2907433.18146  23701693.564    23701694.6914   23701700.7714
     -2084.575       -1624.344
  -2684974.501 9  -2086675.76848  20869213.518    20869214.1714   20869219.7354
      1035.244         806.684
   -123114.211 9    -92699.86748  20468513.457    20468514.3534   20468519.8624
      -534.132        -416.207
  -4973387.537 9  -3845206.31148  22480812.467    22480813.9164   22480819.2474
      1718.369        1338.989
  -6559866.669 9  -4611655.28448  20406577.770    20406578.6644   20406584.7404
      2566.221        1999.653
  -3619925.523 9  -2805090.96247  23352794.958    23352795.3324   23352801.6824
      1033.009         804.942
 97  5 15 16  0 59.9990000  0  6 19  2 27 26  7 15                  -0.000581238
   3802983.526 8   2956254.58746  23713616.202    23713617.2754   23713623.6264
     -2091.830       -1629.997
  -2715933.393 9  -2110799.58448  20863322.377    20863322.9214   20863328.4844
      1029.204         801.977
   -106844.535 9    -80022.20848  20471609.502    20471610.3734   20471615.9074
      -550.153        -428.691
  -5024667.176 9  -3885164.47348  22471054.510    22471055.7214   22471061.0704
      1700.642        1325.176
  -6636607.228 9  -4671453.10948  20391974.442    20391975.4124   20391981.4784
      2550.266        1987.220
  -3650609.272 9  -2829000.36547  23346955.935    23346956.3904   23346962.7564
      1013.011         789.359
 97  5 15 16  1 29.9990000  0  6 19  2 27 26  7 15                  -0.000603010
   3865873.934 9   3005260.00446  23725583.713    23725584.9984   23725591.3664
     -2100.854       -1637.029
  -2746684.109 9  -2134761.18348  20857470.726    20857471.2854   20857476.8314
      1020.878         795.489
    -90049.163 9    -66934.91048  20474805.560    20474806.4244   20474811.9854
      -569.584        -443.832
  -5075373.763 9  -3924676.09348  22461405.411    22461406.5704   22461411.9184
      1679.710        1308.865
  -6712836.707 9  -4730852.68948  20377468.426    20377469.3894   20377475.4744
      2531.740        1972.784
  -3680664.424 9  -2852419.97347  23341236.582    23341237.0944   23341243.4274
       990.758         772.019
 97  5 15 16  1 59.9990000  0  6 19  2 27 26  7 15                  -0.000624746
   3929001.623 9   3054450.40346  23737596.735    23737598.0014   23737604.1884
     -2108.308       -1642.837
  -2777212.533 9  -2158549.57048  20851661.224    20851661.9314   20851667.4704
      1013.450         789.701
    -72699.785 9    -53415.92648  20478107.048    20478107.9214   20478113.4884
      -587.688        -457.939
  -5125478.302 9  -3963718.58948  22451870.863    22451872.0124   22451877.3684
      1659.818        1293.365
  -6788548.582 9  -4789848.94648  20363060.949    20363061.9344   20363068.0104
      2514.925        1959.682
  -3710091.677 9  -2875350.28147  23335636.819    23335637.2934   23335643.6014
       970.329         756.101
 97  5 15 16  2 29.9990000  0  6 19  2 27 26  7 15                  -0.000646444
   3992377.217 8   3103833.87946  23749656.788    23749657.9174   23749664.2434
     -2116.451       -1649.183
  -2807479.268 9  -2182134.03548  20845901.833    20845902.3954   20845907.9114
      1004.663         782.854
    -54780.084 9    -39452.53148  20481517.069    20481517.9354   20481523.5184
      -606.575        -472.656
  -5174958.799 9  -4002274.81748  22442454.861    22442456.1904   22442461.5604
      1639.140        1277.252
  -6863723.906 9  -4848427.10348  20348755.497    20348756.5764   20348762.6514
      2496.963        1945.685
  -3738874.182 9  -2897778.18847  23330159.697    23330160.1874   23330166.4764
       948.753         739.288
 97  5 15 16  2 59.9990000  0  6 19  2 27 26  7 15                  -0.000668132
   4055935.722 9   3153359.93046  23761751.550    23761752.7854   23761758.9364
     -2120.695       -1652.490
  -2837546.379 9  -2205562.95648  20840180.244    20840180.8594   20840186.3564
      1000.096         779.296
    -36356.154 9    -25096.23848  20485023.055    20485023.9064   20485029.4804
      -621.572        -484.342
  -5223862.516 9  -4040381.61048  22433148.630    22433150.1274   22433155.5074
      1621.347        1263.387
  -6938415.617 9  -4906628.42948  20334542.163    20334543.2144   20334549.3164
      2482.642        1934.526
  -3767063.129 9  -2919743.58147  23324795.448    23324795.9814   23324802.2724
       930.627         725.164
 97  5 15 16  3 29.9990000  0  6 19  2 27 26  7 15                  -0.000689783
   4119707.725 9   3203052.42746  23773887.252    23773888.4084   23773894.3924
     -2129.030       -1658.984
  -2867396.644 9  -2228822.91048  20834499.941    20834500.5734   20834506.0374
       991.749         772.791
    -17405.279 9    -10329.34648  20488629.317    20488630.1254   20488635.7224
      -639.715        -498.479
  -5272159.113 9  -4078015.32148  22423957.905    22423959.6104   22423964.9854
      1600.574        1247.201
  -7012594.310 9  -4964429.99848  20320426.417    20320427.4794   20320433.5834
      2464.501        1920.390
  -3794627.305 9  -2941222.17847  23319550.167    23319550.7404   23319556.9964
       908.919         708.249
 97  5 15 16  3 59.9990000  0  6 19  2 27 26  7 15                  -0.000711401
   4183722.948 8   3252934.34146  23786068.931    23786070.1234   23786076.2924
     -2138.033       -1666.000
  -2897010.601 9  -2251898.71848  20828864.701    20828865.2584   20828870.7074
       983.126         766.072
      2057.235 9      4836.24048  20492332.929    20492333.7384   20492339.3194
      -657.242        -512.137
  -5319867.994 9  -4115191.07248  22414879.341    22414880.9184   22414886.3134
      1580.485        1231.547
  -7086245.544 9  -5021820.56048  20306410.952    20306412.1214   20306418.2354
      2446.114        1906.063
  -3821557.536 9  -2962206.77447  23314425.456    23314426.1274   23314432.3394
       886.983         691.156
 97  5 15 16  4 29.9990000  0  6 19  2 27 26  7 15                  -0.000732997
   4247963.838 9   3302991.97946  23798293.282    23798294.6454   23798300.9904
     -2144.730       -1671.218
  -2926416.018 9  -2274812.03348  20823269.071    20823269.6034   20823275.0474
       977.470         761.665
     22007.026 9     20381.52648  20496129.263    20496130.0714   20496135.6534
      -672.656        -524.148
  -5367012.953 9  -4151927.40148  22405908.015    22405909.5054   22405914.8914
      1562.595        1217.606
  -7159389.398 9  -5078815.76348  20292492.153    20292493.2954   20292499.4004
      2430.186        1893.651
  -3847866.450 9  -2982707.23747  23309419.034    23309419.6744   23309425.9244
       867.056         675.628
 97  5 15 16  4 59.9990000  0  6 19  2 27 26  7 15                  -0.000754558
   4312443.486 9   3353235.90046  23810563.533    23810564.8614   23810570.9044
     -2153.906       -1678.368
  -2955623.197 9  -2297570.87448  20817711.154    20817711.6474   20817717.1034
       969.484         755.442
     42451.140 9     36311.99448  20500019.699    20500020.4834   20500026.0384
      -690.506        -538.057
  -5413590.765 9  -4188221.79848  22397044.586    22397046.0104   22397051.3954
      1542.556        1201.992
  -7232024.095 9  -5135414.22748  20278670.218    20278671.3334   20278677.4514
      2411.901        1879.403
  -3873549.448 9  -3002719.95847  23304531.827    23304532.3814   23304538.6104
       845.044         658.476
 97  5 15 16  5 29.9990000  0  6 19  2 27 26  7 15                  -0.000776078
   4377190.734 8   3403688.19546  23822884.724    23822885.9114   23822892.0854
     -2163.068       -1685.508
  -2984594.720 9  -2320146.08648  20812198.004    20812198.5344   20812204.0224
       961.226         749.007
     63420.707 9     52651.90748  20504010.075    20504010.8624   20504016.4494
      -708.014        -551.699
  -5459581.407 9  -4224058.65948  22388292.840    22388294.2744   22388299.6664
      1522.762        1186.568
  -7304119.981 9  -5191592.83848  20264950.815    20264951.9134   20264958.0304
      2393.893        1865.371
  -3898587.966 9  -3022230.45647  23299767.056    23299767.7064   23299773.9564
       823.514         641.699
 97  5 15 16  5 59.9990000  0  6 19  2 27 26  7 15                  -0.000797561
   4442192.243 8   3454338.38546  23835253.743    23835254.9744   23835261.6394
     -2169.257       -1690.330
  -3013333.897 9  -2342540.25148  20806729.019    20806729.6524   20806735.1424
       955.779         744.763
     84903.553 9     69391.77348  20508098.090    20508098.9354   20508104.5004
      -723.260        -563.579
  -5504984.347 9  -4259437.57048  22379653.133    22379654.3774   22379659.8174
      1504.767        1172.546
  -7375690.610 9  -5247362.15648  20251331.506    20251332.4734   20251338.6204
      2378.457        1853.343
  -3922992.391 9  -3041246.88247  23295122.968    23295123.7104   23295129.9674
       804.376         626.786
 97  5 15 16  6 29.9990000  0  6 19  2 27 26  7 15                  -0.000818990
   4507442.105 9   3505182.24246  23847670.640    23847671.9934   23847678.4754
     -2179.519       -1698.326
  -3041841.165 9  -2364753.69848  20801304.220    20801304.9094   20801310.4144
       945.964         737.115
    106916.451 9     86544.67448  20512287.044    20512287.8484   20512293.4524
      -743.029        -578.984
  -5549769.810 9  -4294335.32348  22371130.828    22371132.0084   22371137.4544
      1482.296        1155.036
  -7446730.359 9  -5302717.80048  20237813.238    20237814.0824   20237820.2274
      2358.710        1837.956
  -3946751.342 9  -3059760.35147  23290601.726    23290602.4834   23290608.7484
       780.729         608.360
 97  5 15 16  6 59.9990000  0  6 19  2 27 26  7 15                  -0.000840377
   4572934.412 9   3556215.17246  23860133.681    23860135.0184   23860141.0764
     -2185.623       -1703.083
  -3070110.783 9  -2386781.97148  20795924.666    20795925.3374   20795930.8714
       939.604         732.159
    129459.751 9    104110.86448  20516576.902    20516577.7154   20516583.3224
      -759.141        -591.538
  -5593952.362 9  -4328763.28948  22362723.087    22362724.3714   22362729.8314
      1463.920        1140.717
  -7517238.197 9  -5357658.97448  20224396.065    20224396.9004   20224403.0664
      2342.710        1825.488
  -3969868.711 9  -3077773.87347  23286202.735    23286203.3644   23286209.6224
       761.209         593.150
 97  5 15 16  7 29.9990000  0  6 19  2 27 26  7 15                  -0.000861747
   4638616.407 8   3607395.71145  23872632.407    23872633.5904   23872640.1814
     -2192.626       -1708.540
  -3098183.357 9  -2408656.69848  20790582.641    20790583.2644   20790588.8294
       932.327         726.489
    152505.080 9    122068.25748  20520962.295    20520963.0834   20520968.7134
      -776.737        -605.250
  -5637561.468 9  -4362744.40948  22354424.604    22354425.8304   22354431.3104
      1443.767        1125.013
  -7587255.168 9  -5412217.65148  20211072.144    20211073.1504   20211079.2884
      2325.515        1812.090
  -3992383.633 9  -3095317.96547  23281918.356    23281918.9644   23281925.1944
       740.156         576.745
 97  5 15 16  7 59.9990000  0  6 19  2 27 26  7 15                  -0.000883106
   4704460.787 9   3658702.72846  23885162.303    23885163.4744   23885170.2214
     -2197.183       -1712.091
  -3126076.996 9  -2430392.00748  20785274.625    20785275.2734   20785280.8664
       927.119         722.430
    176044.397 9    140410.57348  20525441.665    20525442.4934   20525448.1224
      -792.681        -617.673
  -5680606.034 9  -4396285.63248  22346233.371    22346234.6964   22346240.1784
      1425.748        1110.972
  -7656791.948 9  -5466402.15548  20197839.686    20197840.7334   20197846.8834
      2310.134        1800.104
  -4014301.350 9  -3112396.71747  23277747.556    23277748.1834   23277754.3294
       720.853         561.704
 97  5 15 16  8 29.9990000  0  6 19  2 27 26  7 15                  -0.000904442
   4770486.559 9   3710151.20946  23897726.841    23897728.0844   23897734.8104
     -2204.148       -1717.518
  -3153764.408 9  -2451966.61848  20780005.863    20780006.5264   20780012.1474
       919.199         716.259
    200103.475 9    159157.89448  20530019.934    20530020.7794   20530026.4264
      -810.848        -631.830
  -5723067.814 9  -4429372.73748  22338153.103    22338154.4774   22338160.0134
      1405.653        1095.314
  -7725822.841 9  -5520192.45848  20184703.407    20184704.6074   20184710.7624
      2292.300        1786.208
  -4035595.410 9  -3128989.49647  23273695.512    23273696.0464   23273702.2374
       699.130         544.777
 97  5 15 16  8 59.9990000  0  6 19  2 27 26  7 15                  -0.000925764
   4836689.804 8   3761738.03945  23910325.083    23910326.3774   23910332.9074
     -2209.391       -1721.603
  -3181248.036 9  -2473382.43348  20774775.866    20774776.5464   20774782.2104
       913.072         711.485
    224669.735 9    178300.41848  20534694.713    20534695.5744   20534701.2404
      -826.789        -644.251
  -5764959.473 9  -4462015.58648  22330181.381    22330182.7664   22330188.3024
      1387.083        1080.844
  -7794349.181 9  -5573589.61048  20171663.236    20171664.4604   20171670.5864
      2276.176        1773.644
  -4056273.785 9  -3145102.49847  23269760.509    23269761.0674   23269767.2574
       679.389         529.394
 97  5 15 16  9 29.9990000  0  6 19  2 27 26  7 15                  -0.000947062
   4903074.660 8   3813466.40745  23922957.367    23922958.8714   23922965.4724
     -2216.039       -1726.784
  -3208529.118 9  -2494640.42148  20769584.472    20769585.1424   20769590.7834
       905.915         705.908
    249726.422 9    197825.08748  20539462.857    20539463.7094   20539469.3764
      -843.226        -657.059
  -5806267.749 9  -4494203.85148  22322320.830    22322322.0964   22322327.6234
      1367.187        1065.341
  -7862369.725 9  -5626592.63348  20158719.430    20158720.5694   20158726.6924
      2258.722        1760.043
  -4076333.885 9  -3160733.74647  23265943.187    23265943.7484   23265949.9204
       658.193         512.878
 97  5 15 16  9 59.9990000  0  6 19  2 27 26  7 15                  -0.000968328
   4969660.185 9   3865351.09946  23935628.399    23935629.9254   23935636.5964
     -2222.934       -1732.156
  -3235596.143 9  -2515731.60648  20764433.801    20764434.4724   20764440.1094
       898.819         700.378
    275264.340 9    217724.74848  20544322.581    20544323.4304   20544329.0964
      -859.034        -669.377
  -5846988.918 9  -4525934.62648  22314571.947    22314573.1254   22314578.6514
      1347.863        1050.283
  -7929867.067 9  -5679187.96148  20145875.229    20145876.2914   20145882.3824
      2241.403        1746.548
  -4095762.529 9  -3175872.96847  23262245.936    23262246.5444   23262252.7754
       637.308         496.604
 97  5 15 16 10 29.9990000  0  6 19  2 27 26  7 15                  -0.000989578
   5036435.821 9   3917384.00746  23948335.795    23948337.1434   23948343.8564
     -2228.569       -1736.547
  -3262479.513 9  -2536679.69148  20759318.084    20759318.7564   20759324.3744
       893.590         696.304
    301250.240 9    237973.48848  20549267.539    20549268.4034   20549274.0764
      -873.422        -680.589
  -5887156.155 9  -4557233.77548  22306928.379    22306929.5324   22306935.0524
      1330.147        1036.478
  -7996872.197 9  -5731399.74948  20133124.725    20133125.6754   20133131.7514
      2225.634        1734.260
  -4114592.195 9  -3190545.44247  23258662.767    23258663.4084   23258669.5594
       618.147         481.673
 97  5 15 16 10 59.9990000  0  6 19  2 27 26  7 15                  -0.001010796
   5103431.929 8   3969588.65145  23961084.726    23961085.9104   23961092.9254
     -2235.492       -1741.942
  -3289164.897 9  -2557473.49648  20754240.007    20754240.7304   20754246.3224
       887.548         691.596
    327722.436 9    258601.15548  20554305.005    20554305.9004   20554311.5584
      -889.271        -692.938
  -5926746.931 9  -4588083.73048  22299394.466    22299395.6384   22299401.1224
      1311.362        1021.841
  -8063356.343 9  -5783205.57548  20120473.115    20120474.1694   20120480.2274
      2208.796        1721.140
  -4132802.280 9  -3204735.11547  23255197.567    23255198.1414   23255204.2864
       598.008         465.980
 97  5 15 16 11 29.9980000  0  6 19  2 27 26  7 15                  -0.001031968
   5170660.815 8   4021974.65445  23973877.766    23973878.9564   23973886.1224
     -2245.410       -1749.670
  -3315643.712 9  -2578106.34248  20749201.336    20749201.9974   20749207.6034
       878.702         684.703
    354707.992 9    279628.85048  20559440.236    20559441.0894   20559446.7594
      -908.840        -708.187
  -5965745.179 9  -4618471.97448  22291973.450    22291974.5424   22291980.0164
      1289.669        1004.937
  -8129302.935 9  -5834592.52248  20107923.911    20107924.9684   20107931.0084
      2188.720        1705.496
  -4150377.507 9  -3218430.09246  23251853.104    23251853.6874   23251859.8384
       574.712         447.828
 97  5 15 16 11 59.9980000  0  6 19  2 27 26  7 15                  -0.001053112
   5238114.612 9   4074536.13546  23986714.027    23986715.2954   23986722.0884
     -2252.609       -1755.280
  -3341930.303 9  -2598589.40148  20744199.171    20744199.8324   20744205.4424
       872.588         679.939
    382211.023 9    301059.76548  20564673.903    20564674.7544   20564680.4464
      -925.918        -721.495
  -6004178.127 9  -4648419.73248  22284659.864    22284660.9814   22284666.4704
      1271.395         990.697
  -8194723.991 9  -5885569.97048  20095474.728    20095475.7424   20095481.7874
      2171.591        1692.149
  -4167334.495 9  -3231643.32446  23248626.275    23248626.8354   23248633.0624
       554.582         432.142
 97  5 15 16 12 29.9980000  0  6 19  2 27 26  7 15                  -0.001074236
   5305785.758 8   4127266.89946  23999591.691    23999592.9224   23999599.7984
     -2257.844       -1759.359
  -3368031.772 9  -2618928.21148  20739232.242    20739232.8784   20739238.5004
       868.159         676.488
    410233.687 9    322895.58448  20570006.460    20570007.3034   20570013.0004
      -941.576        -733.696
  -6042058.369 9  -4677936.80848  22277451.302    22277452.6214   22277458.1044
      1254.581         977.596
  -8259627.226 9  -5936143.91648  20083124.095    20083125.0894   20083131.1274
      2156.022        1680.017
  -4183681.725 9  -3244381.43147  23245515.474    23245516.0374   23245522.2504
       535.883         417.571
 97  5 15 16 12 59.9980000  0  6 19  2 27 26  7 15                  -0.001095327
   5373675.806 8   4180168.15445  24012510.782    24012511.8774   24012519.0094
     -2265.232       -1765.116
  -3393931.623 9  -2639109.91348  20734303.622    20734304.2994   20734309.9264
       860.947         670.868
    438787.664 9    345145.42348  20575440.143    20575440.9794   20575446.6834
      -959.236        -747.457
  -6079367.287 9  -4707008.69248  22270351.714    22270352.9804   22270358.4574
      1235.135         962.443
  -8324001.275 9  -5986305.50548  20070874.122    20070875.0834   20070881.1164
      2138.267        1666.182
  -4199399.193 9  -3256628.83346  23242524.560    23242525.1094   23242531.3214
       514.478         400.892
 97  5 15 16 13 29.9980000  0  6 19  2 27 26  7 15                  -0.001116400
   5441750.648 8   4233213.26445  24025464.608    24025465.8624   24025473.6294
     -2272.413       -1770.711
  -3419638.609 9  -2659141.33148  20729411.743    20729412.4204   20729418.0634
       853.286         664.898
    467832.367 9    367777.65248  20580967.196    20580968.0224   20580973.7314
      -976.594        -760.982
  -6116117.787 9  -4735645.43448  22263358.327    22263359.5944   22263365.0764
      1215.314         946.998
  -8387881.171 9  -6036082.03748  20058718.110    20058719.1284   20058725.1614
      2120.860        1652.618
  -4214503.312 9  -3268398.28346  23239650.350    23239650.8884   23239657.1664
       492.911         384.086
 97  5 15 16 13 59.9980000  0  6 19  2 27 26  7 15                  -0.001137464
   5509981.743 8   4286380.31745  24038448.724    24038450.0554   24038457.3894
     -2276.916       -1774.220
  -3445161.249 9  -2679029.10148  20724555.073    20724555.6374   20724561.2974
       847.407         660.317
    497340.882 9    390771.28948  20586582.469    20586583.3084   20586589.0334
      -991.489        -772.589
  -6152323.596 9  -4763857.75448  22256468.393    22256469.8544   22256475.3454
      1197.583         933.182
  -8451298.139 9  -6085497.85148  20046650.360    20046651.2934   20046657.3224
      2106.195        1641.191
  -4229011.110 9  -3279703.05246  23236889.561    23236890.1724   23236896.4204
       473.481         368.946
 97  5 15 16 14 29.9980000  0  6 19  2 27 26  7 15                  -0.001158495
   5578382.321 8   4339679.57645  24051464.995    24051466.4864   24051473.3954
     -2282.978       -1778.944
  -3470457.033 9  -2698740.10848  20719741.348    20719741.9864   20719747.6264
       838.856         653.654
    527338.387 9    414145.96348  20592290.826    20592291.6684   20592297.3924
     -1008.392        -785.760
  -6187942.055 9  -4791612.40448  22249690.365    22249691.8464   22249697.3544
      1176.902         917.066
  -8514229.405 9  -6134535.19048  20034675.009    20034675.8954   20034681.8984
      2089.044        1627.826
  -4242887.188 9  -3290515.57847  23234249.091    23234249.6424   23234255.8914
       451.549         351.856
 97  5 15 16 14 59.9980000  0  6 19  2 27 26  7 15                  -0.001179509
   5646918.584 8   4393084.48345  24064507.149    24064508.5174   24064515.6844
     -2286.482       -1781.674
  -3495537.215 9  -2718283.11248  20714968.707    20714969.4034   20714975.0314
       832.836         648.963
    557797.569 9    437880.37748  20598087.049    20598087.8834   20598093.5854
     -1022.490        -796.745
  -6222981.662 9  -4818915.99148  22243022.640    22243024.0224   22243029.5674
      1158.857         903.005
  -8576679.829 9  -6183197.85048  20022790.970    20022791.9594   20022797.9394
      2073.930        1616.049
  -4256148.217 9  -3300848.85146  23231725.622    23231726.1694   23231732.3514
       432.279         336.841
 97  5 15 16 15 29.9980000  0  6 19  2 27 26  7 15                  -0.001200520
   5715582.064 7   4446588.36845  24077573.267    24077574.6634   24077582.1424
     -2291.291       -1785.422
  -3520416.267 9  -2737669.39148  20710234.475    20710235.0734   20710240.7024
       825.812         643.490
    588700.434 9    461960.51948  20603967.675    20603968.4984   20603974.2384
     -1037.853        -808.717
  -6257462.269 9  -4845783.99948  22236461.393    22236462.6084   22236468.1304
      1139.856         888.199
  -8638652.718 9  -6231488.40748  20010997.850    20010998.9114   20011004.8964
      2057.465        1603.219
  -4268812.514 9  -3310717.14346  23229315.727    23229316.2394   23229322.4104
       412.035         321.066
 97  5 15 16 15 59.9980000  0  6 19  2 27 26  7 15                  -0.001221514
   5784405.24918   4500216.58255  24090669.595    24090671.0705   24090678.9725
     -2296.475       -1789.461
  -3545078.456 9  -2756886.68648  20705541.317    20705542.0284   20705547.6594
       818.877         638.086
    620076.358 9    486409.28048  20609938.311    20609939.1644   20609944.9164
     -1053.289        -820.745
  -6291362.887 9  -4872200.07348  22230010.250    22230011.5514   22230017.0684
      1120.864         873.401
  -8700112.841 9  -6279379.40748  19999302.432    19999303.4084   19999309.3964
      2040.339        1589.875
  -4280861.042 9  -3320105.62247  23227023.020    23227023.5144   23227029.6364
       391.725         305.240
 97  5 15 16 16 29.9980000  0  6 19  2 27 26  7 15                  -0.001242485
   5853406.669 9   4553983.86646  24103800.681    24103801.8564   24103809.3854
     -2303.240       -1794.732
  -3569522.871 9  -2775934.28048  20700889.657    20700890.3964   20700896.0594
       811.404         632.263
    651929.564 9    511229.94148  20615999.731    20616000.6054   20616006.3774
     -1069.744        -833.567
  -6324679.254 9  -4898160.88248  22223670.461    22223671.6534   22223677.1754
      1100.878         857.827
  -8761025.780 9  -6326844.02648  19987711.081    19987712.0444   19987718.0224
      2021.132        1574.908
  -4292285.808 9  -3329008.04446  23224848.913    23224849.4514   23224855.5384
       370.424         288.642
 97  5 15 16 16 59.9980000  0  6 19  2 27 26  7 15                  -0.001263458
   5922567.855 9   4607875.68846  24116961.812    24116962.9324   24116970.2754
     -2307.956       -1798.407
  -3593809.186 9  -2794858.68048  20696268.074    20696268.8384   20696274.5274
       807.232         629.012
    684227.635 9    536397.25648  20622145.886    20622146.7294   20622152.5234
     -1083.910        -844.605
  -6357456.170 9  -4923701.34148  22217433.176    22217434.4224   22217439.9464
      1083.871         844.575
  -8821420.693 9  -6373904.98548  19976218.330    19976219.2624   19976225.2374
      2005.105        1562.419
  -4303127.924 9  -3337456.45846  23222785.636    23222786.2424   23222792.4154
       352.015         274.297
 97  5 15 16 17 29.9980000  0  6 19  2 27 26  7 15                  -0.001284407
   5991915.976 8   4661913.23445  24130158.345    24130159.5474   24130166.6814
     -2315.087       -1803.964
  -3617918.430 9  -2813645.11248  20691680.261    20691680.9914   20691686.6834
       799.933         623.324
    717003.804 9    561937.10848  20628382.944    20628383.8274   20628389.6254
     -1101.286        -858.145
  -6389673.787 9  -4948805.98348  22211302.408    22211303.6174   22211309.1344
      1063.876         828.994
  -8881306.157 9  -6420568.97748  19964822.494    19964823.4084   19964829.3634
      1987.167        1548.442
  -4313370.732 9  -3345437.88746  23220836.386    23220837.0714   23220843.3214
       330.764         257.738
 97  5 15 16 17 59.9980000  0  6 19  2 27 26  7 15                  -0.001305336
   6061440.70117   4716088.45155  24143388.517    24143389.4775   24143396.6335
     -2321.199       -1808.726
  -3641843.209 9  -2832287.79448  20687127.573    20687128.2494   20687133.9944
       793.712         618.477
    750261.939 9    587852.52148  20634711.798    20634712.6574   20634718.4264
     -1117.216        -870.558
  -6421331.012 9  -4973473.95248  22205278.146    22205279.4204   22205284.9414
      1045.508         814.682
  -8940686.400 9  -6466839.29248  19953522.926    19953523.7544   19953529.6984
      1970.206        1535.225
  -4323012.677 9  -3352951.09746  23219001.603    23219002.2884   23219008.5514
       310.674         242.084
 97  5 15 16 18 29.9980000  0  6 19  2 27 26  7 15                  -0.001326249
   6131147.77018   4770405.29455  24156653.044    24156652.8555   24156662.1815
     -2327.099       -1813.324
  -3665571.353 9  -2850777.26348  20682612.300    20682612.9314   20682618.6944
       787.071         613.302
    784004.995 9    614145.79148  20641132.916    20641133.8034   20641139.5194
     -1133.409        -883.176
  -6452437.872 9  -4997713.06948  22199358.588    22199359.9794   22199365.4814
      1027.267         800.468
  -8999555.122 9  -6512711.01648  19942320.629    19942321.4274   19942327.3704
      1953.575        1522.266
  -4332045.068 9  -3359989.33746  23217282.760    23217283.4344   23217289.8154
       290.396         226.282
 97  5 15 16 18 59.9980000  0  6 19  2 27 26  7 15                  -0.001346943
   6201040.321 8   4824866.86546  24169953.295    24169953.7614   24169962.0484
     -2332.555       -1817.575
  -3689085.939 9  -2869100.31748  20678137.588    20678138.2534   20678144.0104
       780.094         607.865
    818238.079 9    640820.91448  20647647.254    20647648.1534   20647653.8684
     -1149.062        -895.373
  -6482991.682 9  -5021521.23748  22193544.596    22193545.7624   22193551.2524
      1009.232         786.415
  -9057942.268 9  -6558207.48848  19931209.766    19931210.6824   19931216.6504
      1938.534        1510.546
  -4340468.401 9  -3366552.98546  23215679.895    23215680.5324   23215686.8714
       270.781         210.998
 97  5 15 16 19 29.9980000  0  6 19  2 27 26  7 15                  -0.001367822
   6271091.792 8   4879452.39946  24183283.831    24183284.5514   24183292.4084
     -2337.315       -1821.284
  -3712376.766 9  -2887249.01848  20673705.573    20673706.1784   20673711.9064
       772.882         602.246
    852935.365 9    667857.75448  20654249.939    20654250.8404   20654256.5634
     -1163.847        -906.894
  -6513006.144 9  -5044909.13648  22187833.047    22187834.2254   22187839.7084
       991.886         772.898
  -9115871.801 9  -6603347.37748  19920186.031    19920187.0064   19920192.9824
      1923.209        1498.604
  -4348298.014 9  -3372653.99546  23214189.915    23214190.5984   23214197.0014
       251.284         195.806
 97  5 15 16 19 59.9980000  0  6 19  2 27 26  7 15                  -0.001388717
   6341307.041 8   4934165.49846  24196645.383    24196646.3064   24196654.1394
     -2344.018       -1826.508
  -3735442.573 9  -2905222.37848  20669316.356    20669316.9064   20669322.6124
       764.791         595.941
    888084.465 9    695246.64648  20660938.647    20660939.5344   20660945.2074
     -1179.647        -919.205
  -6542480.918 9  -5067876.49848  22182224.351    22182225.4134   22182230.8764
       972.895         758.100
  -9173306.032 9  -6648101.31948  19909256.623    19909257.5854   19909263.5634
      1905.594        1484.878
  -4355525.736 9  -3378286.01046  23212814.561    23212815.1934   23212821.6464
       230.300         179.454
 97  5 15 16 20 29.9980000  0  6 19  2 27 26  7 15                  -0.001409620
   6411693.663 8   4989012.08945  24210039.597    24210040.5874   24210048.2624
     -2349.522       -1830.796
  -3758302.012 9  -2923034.93148  20664966.353    20664966.9454   20664972.6124
       757.997         590.647
    923677.461 9    722981.43248  20667711.793    20667712.6984   20667718.3484
     -1194.410        -930.709
  -6571414.030 9  -5090421.78648  22176718.600    22176719.6784   22176725.0844
       954.627         743.865
  -9230249.491 9  -6692472.83648  19898420.676    19898421.5984   19898427.5764
      1889.440        1472.291
  -4362158.445 9  -3383454.36946  23211552.373    23211553.0654   23211559.4944
       210.644         164.138
 97  5 15 16 20 59.9980000  0  7 19  2 27 26  9  7 15               -0.001430520
   6482242.505 8   5043985.05945  24223464.398    24223465.8354   24223473.5334
     -2354.388       -1834.588
  -3780959.650 9  -2940690.24148  20660654.749    20660655.3544   20660661.0114
       751.872         585.874
    959709.244 9    751058.13348  20674568.460    20674569.3464   20674575.0094
     -1208.472        -941.666
  -6599790.713 9  -5112533.49348  22171318.761    22171319.7984   22171325.1754
       936.368         729.637
  -2399097.95919  -1822303.86256  24700590.434    24700591.6355   24700597.7895
      4453.942        3470.604
  -9286705.946 9  -6736464.87348  19887677.318    19887678.2934   19887684.2734
      1873.285        1459.703
  -4368201.078 9  -3388162.93547  23210402.580    23210403.2204   23210409.5994
       191.291         149.058
 97  5 15 16 21 29.9980000  0  7 19  2 27 26  9  7 15               -0.001451420
   6552933.987 8   5099069.29545  24236916.841    24236918.2604   24236925.4654
     -2358.499       -1837.791
  -3803445.424 9  -2958211.62948  20656375.839    20656376.4584   20656382.1314
       747.383         582.376
    996167.039 9    779466.79448  20681506.123    20681507.0284   20681512.6844
     -1222.088        -952.276
  -6627618.901 9  -5134217.80248  22166023.101    22166024.2404   22166029.6234
       918.793         715.942
  -2532706.888 9  -1926414.70246  24675165.595    24675166.6994   24675172.7814
      4453.403        3470.184
  -9342660.753 9  -6780066.01548  19877029.604    19877030.4944   19877036.4674
      1857.042        1447.046
  -4373657.603 9  -3392414.78147  23209364.333    23209364.9244   23209371.2454
       172.422         134.355
 97  5 15 16 21 59.9980000  0  7 19  2 27 26  9  7 15               -0.001472273
   6623804.712 8   5154293.20845  24250403.369    24250404.5294   24250411.7844
     -2365.373       -1843.148
  -3825755.883 9  -2975596.40248  20652130.263    20652130.9264   20652136.6014
       740.800         577.247
   1033093.225 9    808240.42648  20688532.940    20688533.8474   20688539.4844
     -1238.711        -965.229
  -6654855.799 9  -5155441.36848  22160839.941    22160841.2014   22160846.6014
       898.031         699.764
  -2666252.107 9  -2030475.91046  24649752.904    24649753.9074   24649759.9134
      4450.637        3468.029
  -9398082.336 9  -6823251.65848  19866483.119    19866484.1574   19866490.1184
      1838.914        1432.920
  -4378497.401 9  -3396186.06946  23208443.311    23208443.9224   23208450.2444
       151.129         117.763
 97  5 15 16 22 29.9980000  0  7 19  2 27 26  9  7 15               -0.001493079
   6694823.543 8   5209632.47846  24263917.956    24263919.0494   24263926.4314
     -2368.750       -1845.779
  -3847916.300 9  -2992864.26648  20647913.322    20647913.9664   20647919.6464
       736.878         574.191
   1070469.812 9    837365.02548  20695645.469    20695646.4044   20695652.0444
     -1252.719        -976.145
  -6681526.504 9  -5176223.74148  22155764.570    22155765.9164   22155771.3224
       880.481         686.089
  -2799774.612 8  -2134519.41646  24624344.095    24624345.3544   24624351.4934
      4451.342        3468.578
  -9453028.789 9  -6866067.07348  19856027.277    19856028.2314   19856034.1874
      1824.596        1421.763
  -4382751.041 9  -3399500.59546  23207633.888    23207634.5174   23207640.8354
       132.805         103.484
 97  5 15 16 22 59.9980000  0  7 19  2 27 26  9  7 15               -0.001513821
   6765991.307 8   5265087.76246  24277460.849    24277461.9974   24277469.3834
     -2374.350       -1850.143
  -3869909.395 9  -3010001.74548  20643728.274    20643728.8314   20643734.5204
       730.723         569.394
   1108316.982 9    866856.31348  20702847.588    20702848.4844   20702854.1154
     -1269.265        -989.038
  -6707618.073 9  -5196554.84348  22150799.551    22150800.8914   22150806.2494
       860.281         670.349
  -2933258.720 9  -2238533.00746  24598942.920    24598944.1534   24598950.4364
      4448.955        3466.718
  -9507497.226 9  -6908510.00148  19845662.271    19845663.2324   19845669.1724
      1807.872        1408.731
  -4386400.798 9  -3402344.57147  23206939.427    23206940.0294   23206946.3324
       111.803          87.119
 97  5 15 16 23 29.9980000  0  7 19  2 27 26  9  7 15               -0.001534496
   6837284.089 7   5320640.41145  24291027.123    24291028.4634   24291036.1444
     -2377.088       -1852.276
  -3891758.553 9  -3027027.06348  20639570.461    20639571.0804   20639576.7734
       727.183         566.636
   1146630.292 9    896710.82848  20710138.405    20710139.2964   20710144.9264
     -1283.428       -1000.074
  -6733138.996 9  -5216441.28848  22145942.896    22145944.4584   22145949.8004
       842.716         656.662
  -3066708.040 9  -2342519.47546  24573547.950    24573549.5444   24573555.8124
      4449.092        3466.825
  -9561498.702 9  -6950589.06848  19835386.134    19835387.0854   19835393.0144
      1793.737        1397.717
  -4389458.440 9  -3404727.16147  23206357.559    23206358.2044   23206364.4884
        93.532          72.882
 97  5 15 16 23 59.9980000  0  7 19  2 27 26  9  7 15               -0.001555123
   6908702.311 7   5376290.83745  24304617.636    24304618.7274   24304626.6704
     -2384.480       -1858.036
  -3913449.759 9  -3043929.30248  20635442.766    20635443.3954   20635449.0614
       718.236         559.664
   1185403.719 9    926923.87948  20717516.777    20717517.6234   20717523.2874
     -1301.848       -1014.427
  -6758105.098 9  -5235895.40148  22141192.133    22141193.5694   22141198.9044
       821.426         640.072
  -3200132.552 8  -2446486.62046  24548158.175    24548159.7394   24548166.0104
      4445.372        3463.926
  -9615040.525 9  -6992309.95948  19825197.319    19825198.4274   19825204.3744
      1775.219        1383.288
  -4391931.036 9  -3406653.86847  23205887.070    23205887.7084   23205893.9834
        70.800          55.169
 97  5 15 16 24 29.9980000  0  7 19  2 27 26  9  7 15               -0.001575708
   6980279.295 8   5432064.98845  24318238.069    24318239.3344   24318247.3174
     -2387.501       -1860.390
  -3934914.610 9  -3060655.16348  20631358.132    20631358.7894   20631364.4324
       712.553         555.236
   1224669.757 9    957520.78448  20724988.835    20724989.7034   20724995.3784
     -1316.120       -1025.548
  -6782498.127 9  -5254902.96648  22136550.614    22136551.7644   22136557.0984
       804.580         626.945
  -3333492.135 8  -2550403.17746  24522781.163    24522782.2554   24522788.5274
      4444.943        3463.592
  -9668077.423 9  -7033637.40748  19815104.792    19815105.8484   19815111.7924
      1760.075        1371.487
  -4393776.187 9  -3408091.67546  23205535.951    23205536.5874   23205542.8684
        51.924          40.460
 97  5 15 16 24 59.9980000  0  7 19  2 27 26  9  7 15               -0.001596295
   7051979.327 8   5487934.99145  24331882.197    24331883.6074   24331891.5394
     -2393.115       -1864.765
  -3956178.838 9  -3077224.69248  20627311.710    20627312.3584   20627317.9934
       704.473         548.940
   1264387.542 9    988469.69448  20732546.892    20732547.7494   20732553.4314
     -1332.211       -1038.086
  -6806360.872 9  -5273497.31748  22132009.754    22132010.8224   22132016.1614
       785.772         612.290
  -3466802.393 8  -2654281.29246  24497413.297    24497414.0594   24497420.3864
      4441.984        3461.286
  -9720615.337 9  -7074576.03148  19805107.179    19805108.1974   19805114.1294
      1741.843        1357.280
  -4395025.065 9  -3409064.85146  23205298.406    23205298.9664   23205305.1474
        30.794          23.995
 97  5 15 16 25 29.9980000  0  7 19  2 27 26  9  7 15               -0.001616910
   7123828.361 8   5543921.15045  24345554.876    24345556.0734   24345563.9154
     -2397.468       -1868.157
  -3977213.027 9  -3093614.97648  20623309.083    20623309.7064   20623315.3384
       697.403         543.431
   1304557.772 9   1019771.15548  20740191.054    20740191.9074   20740197.5814
     -1346.086       -1048.898
  -6829698.355 9  -5291682.38748  22127568.616    22127569.8364   22127575.2104
       769.727         599.787
  -3600061.206 8  -2758119.32946  24472055.504    24472055.7954   24472062.1104
      4441.781        3461.128
  -9772624.700 9  -7115102.80648  19795210.121    19795211.1114   19795217.0084
      1725.104        1344.237
  -4395666.961 9  -3409565.03447  23205176.337    23205176.8574   23205182.9914
        11.657           9.083
 97  5 15 16 25 59.9980000  0  7 19  2 27 26  9  7 15               -0.001637579
   7195826.236 8   5600023.39845  24359255.737    24359256.8334   24359264.4164
     -2401.508       -1871.305
  -3998018.815 9  -3109827.28648  20619349.943    20619350.5184   20619356.1384
       690.601         538.131
   1345158.760 9   1051408.27248  20747917.159    20747918.0044   20747923.6964
     -1359.881       -1059.648
  -6852545.304 9  -5309485.21148  22123221.047    22123222.2434   22123227.5884
       754.084         587.598
  -3733305.575 8  -2861946.10146  24446699.578    24446700.2304   24446706.6994
      4441.975        3461.279
  -9824122.012 9  -7155230.57748  19785410.448    19785411.4744   19785417.3594
      1708.871        1331.588
  -4395721.759 9  -3409607.74347  23205165.876    23205166.4754   23205172.5894
        -7.198          -5.609
 97  5 15 16 26 29.9980000  0  7 19  2 27 26  9  7 15               -0.001658283
   7267970.870 8   5656240.01345  24372984.576    24372985.7604   24372993.3574
     -2407.562       -1876.022
  -4018595.921 9  -3125861.40048  20615434.295    20615434.8174   20615440.4744
       682.023         531.446
   1386207.073 9   1083393.95448  20755728.368    20755729.2414   20755734.9364
     -1375.966       -1072.181
  -6874884.441 9  -5326892.33948  22118970.147    22118971.2454   22118976.6254
       735.837         573.379
  -3866522.672 8  -2965751.64645  24421349.563    24421349.9324   24421356.3204
      4439.918        3459.676
  -9875098.007 9  -7194952.12148  19775709.990    19775711.0914   19775716.9434
      1690.218        1317.053
  -4395179.458 9  -3409185.17847  23205269.129    23205269.6904   23205275.7924
       -28.244         -22.008
 97  5 15 16 26 59.9980000  0  7 19  2 27 26  9  7 15               -0.001679014
   7340248.800 8   5712560.42145  24386738.829    24386740.0424   24386747.6864
     -2412.337       -1879.743
  -4038982.040 9  -3141746.68848  20611554.964    20611555.4334   20611561.1224
       675.671         526.497
   1427686.387 9   1115715.48448  20763621.649    20763622.5094   20763628.2064
     -1390.674       -1083.642
  -6896722.700 9  -5343909.16948  22114814.606    22114815.5734   22114820.9924
       718.489         559.861
  -3999737.637 9  -3069555.50445  24395999.816    24395999.9734   24396006.3194
      4439.571        3459.406
  -9925575.254 9  -7234285.03548  19766104.621    19766105.6084   19766111.4804
      1673.782        1304.246
  -4394059.276 9  -3408312.31947  23205482.354    23205482.8644   23205488.9524
       -47.767         -37.221
 97  5 15 16 27 29.9980000  0  7 19  2 27 26  9  7 15               -0.001699712
   7412699.579 8   5769015.43145  24400525.918    24400526.9344   24400534.8554
     -2416.469       -1882.963
  -4059143.390 9  -3157456.84048  20607718.378    20607718.9034   20607724.5874
       669.610         521.774
   1469647.110 9   1148412.13648  20771606.522    20771607.3874   20771613.0814
     -1405.727       -1095.372
  -6917996.405 9  -5360486.08848  22110766.246    22110767.3424   22110772.7834
       700.729         546.023
  -4132915.705 8  -3173330.61645  24370656.689    24370657.0414   24370663.3054
      4439.769        3459.560
  -9975538.368 9  -7273217.32748  19756597.046    19756597.9904   19756603.8384
      1658.159        1292.072
  -4392324.593 9  -3406960.63847  23205812.417    23205812.9894   23205819.0824
       -66.817         -52.065
 97  5 15 16 27 59.9980000  0  7 19  2 27 26  9  7 15               -0.001720359
   7485280.300 8   5825571.70245  24414337.746    24414338.4644   24414346.7494
     -2420.429       -1886.049
  -4079108.649 9  -3173014.19548  20603919.241    20603919.6604   20603925.3514
       663.157         516.746
   1512086.827 9   1181482.02948  20779682.592    20779683.4114   20779689.1224
     -1421.816       -1107.909
  -6938707.911 9  -5376624.93848  22106824.890    22106826.1314   22106831.5384
       681.716         531.207
  -4266051.571 8  -3277072.86245  24345321.404    24345322.2184   24345328.3584
      4437.544        3457.826
 -10025019.615 9  -7311774.13948  19747181.105    19747181.9984   19747187.8454
      1642.281        1279.699
  -4389994.525 9  -3405145.01846  23206255.803    23206256.3504   23206262.4904
       -86.769         -67.612
 97  5 15 16 28 29.9980000  0  7 19  2 27 26  9  7 15               -0.001740948
   7557972.692 8   5882215.03846  24428170.787    24428171.4944   24428179.6864
     -2424.946       -1889.568
  -4098886.572 9  -3188425.56848  20600155.570    20600156.0574   20600161.7554
       656.274         511.382
   1554991.740 9   1214914.41048  20787847.104    20787847.9694   20787853.6594
     -1437.593       -1120.202
  -6958856.375 9  -5392325.04348  22102990.928    22102992.0154   22102997.4324
       662.281         516.063
  -4399136.179 8  -3380775.15745  24319996.506    24319996.9824   24320003.0824
      4435.478        3456.217
 -10074039.655 9  -7349971.56748  19737852.830    19737853.7924   19737859.6594
      1626.589        1267.472
  -4387078.684 9  -3402872.94546  23206810.691    23206811.2614   23206817.3974
      -106.731         -83.167
 97  5 15 16 28 59.9980000  0  8 19  2  4 27 26  9  7 15            -0.001761462
   7630802.401 8   5938965.34546  24442029.689    24442030.7974   24442038.9324
     -2431.279       -1894.503
  -4118462.930 9  -3203679.88048  20596430.331    20596430.8134   20596436.5134
       647.691         504.694
   -376188.73418   -263491.10755  24154786.741           0.0005   24154801.2085
      4554.003        3548.574
   1598369.316 9   1248715.10648  20796101.630    20796102.4644   20796108.1754
     -1455.224       -1133.941
  -6978413.275 9  -5407564.18748  22099269.340    22099270.4534   22099275.8684
       640.563         499.140
  -4532146.674 8  -3484419.68445  24294685.516    24294685.8104   24294692.0734
      4430.798        3452.570
 -10122596.533 9  -7387808.08948  19728612.756    19728613.7254   19728619.5884
      1609.398        1254.076
  -4383568.822 9  -3400138.00947  23207478.652    23207479.2244   23207485.3714
      -128.256         -99.940
 97  5 15 16 29 29.9980000  0  8 19  2  4 27 26  9  7 15            -0.001781924
   7703744.806 8   5995803.50146  24455910.222    24455911.4254   24455919.4414
     -2432.936       -1895.794
  -4137842.692 9  -3218781.00148  20592742.431    20592742.9664   20592748.6704
       642.889         500.952
   -512903.334 8   -370021.92145  24128772.253    24128776.1645   24128784.9904
      4558.920        3552.405
   1642201.093 9   1282869.72748  20804442.612    20804443.3884   20804449.1084
     -1468.271       -1144.107
  -6997396.448 9  -5422356.27248  22095656.861    22095658.0874   22095663.5084
       623.771         486.055
  -4665082.266 8  -3588005.86845  24269388.734    24269388.8534   24269395.2384
      4430.172        3452.082
 -10170688.830 9  -7425282.60248  19719461.131    19719462.0554   19719467.9204
      1595.233        1243.039
  -4379478.762 9  -3396950.96447  23208257.059    23208257.5754   23208263.7604
      -145.841        -113.642
 97  5 15 16 29 59.9980000  0  8 19  2  4 27 26  9  7 15            -0.001802357
   7776810.583 8   6052737.81346  24469814.185    24469815.4814   24469823.4374
     -2438.052       -1899.781
  -4157019.542 9  -3233724.00648  20589093.134    20589093.7554   20589099.4404
       635.653         495.314
   -649700.426 8   -476616.90955  24102741.180    24102745.4184   24102752.0635
      4560.754        3553.834
   1686476.663 9   1317370.15448  20812868.001    20812868.7694   20812874.4924
     -1483.249       -1155.778
  -7015821.963 9  -5436713.82348  22092150.593    22092151.8274   22092157.2554
       604.721         471.211
  -4797932.896 8  -3691525.82345  24244108.184    24244108.3024   24244114.7614
      4426.566        3449.272
 -10218290.280 9  -7462374.63848  19710402.901    19710403.8424   19710409.6874
      1578.222        1229.783
  -4374797.666 9  -3393303.36847  23209147.868    23209148.3474   23209154.4924
      -166.156        -129.472
 97  5 15 16 30 29.9980000  0  8 19  2  4 27 26  9  7 15            -0.001822765
   7850035.034 9   6109795.74946  24483748.394    24483749.6784   24483757.7074
     -2443.727       -1904.203
  -4175985.275 9  -3248502.50448  20585484.090    20585484.7034   20585490.3794
       628.393         489.657
   -786542.725 8   -583247.25345  24076702.234    24076704.9755   24076712.2414
      4561.686        3554.561
   1731187.823 9   1352210.00648  20821376.277    20821377.0514   20821382.7704
     -1497.806       -1167.121
  -7033679.288 9  -5450628.63048  22088752.638    22088753.6784   22088759.1344
       585.427         456.177
  -4930687.072 8  -3794970.62345  24218845.552    24218846.1994   24218852.4444
      4423.073        3446.550
 -10265380.914 9  -7499068.63348  19701441.946    19701442.7904   19701448.6464
      1560.790        1216.200
  -4369512.907 9  -3389185.39346  23210153.510    23210153.9644   23210160.1904
      -186.576        -145.384
 97  5 15 16 30 59.9980000  0  8 19  2  4 27 26  9  7 15            -0.001843178
   7923379.471 8   6166947.20946  24497705.435    24497706.7484   24497714.7464
     -2447.023       -1906.771
  -4194772.719 9  -3263142.07748  20581908.937    20581909.5934   20581915.2234
       622.661         485.190
   -923437.534 8   -689918.44445  24050652.138    24050654.2254   24050661.6354
      4563.291        3555.811
   1776296.322 9   1387359.47948  20829960.170    20829960.9364   20829966.6124
     -1510.739       -1177.199
  -7051000.509 9  -5464125.68948  22085456.403    22085457.5334   22085462.9934
       568.277         442.813
  -5063366.821 8  -3898357.41945  24193597.616    24193597.9734   24193604.3814
      4420.866        3444.831
 -10311978.274 9  -7535378.26148  19692574.763    19692575.6134   19692581.4604
      1544.310        1203.358
  -4363652.092 9  -3384618.54647  23211268.786    23211269.2474   23211275.4584
      -205.539        -160.160
 97  5 15 16 31 29.9980000  0  8 19  2  4 27 26  9  7 15            -0.001863598
   7996859.039 8   6224203.96446  24511688.236    24511689.5814   24511697.5264
     -2450.230       -1909.270
  -4213343.106 9  -3277612.52148  20578375.180    20578375.7804   20578381.3894
       616.725         480.565
  -1060342.891 8   -796597.82445  24024600.356    24024602.1274   24024609.8504
      4564.986        3557.132
   1821831.591 9   1422841.48848  20838625.214    20838626.0344   20838631.6974
     -1523.709       -1187.306
  -7067783.451 9  -5477203.31548  22082262.609    22082263.8154   22082269.2314
       551.755         429.939
  -5195947.526 8  -4001667.04745  24168368.693    24168368.7174   24168375.3564
      4419.039        3443.407
 -10358042.582 9  -7571272.52648  19683809.153    19683809.8694   19683815.7164
      1528.177        1190.787
  -4357181.456 9  -3379576.50946  23212500.090    23212500.5604   23212506.7724
      -224.469        -174.911
 97  5 15 16 31 59.9980000  0  8 19  2  4 27 26  9  7 15            -0.001884003
   8070449.493 8   6281547.11346  24525692.040    24525693.4744   24525701.4784
     -2454.835       -1912.858
  -4231718.854 9  -3291931.28648  20574878.396    20574878.9934   20574884.5874
       609.245         474.736
  -1197283.974 8   -903305.12245  23998541.393    23998543.3804   23998550.9764
      4565.093        3557.215
   1867783.818 9   1458648.42448  20847369.664    20847370.4774   20847376.1394
     -1538.963       -1199.192
  -7084044.549 9  -5489874.30448  22079168.187    22079169.4704   22079174.8194
       533.123         415.421
  -5328449.578 8  -4104915.40045  24143154.343    24143154.5114   24143161.0994
      4415.295        3440.490
 -10403620.593 9  -7606787.85548  19675135.961    19675136.6714   19675142.4964
      1511.193        1177.553
  -4350129.982 9  -3374081.87447  23213841.953    23213842.4214   23213848.6394
      -244.756        -190.719
 97  5 15 16 32 29.9980000  0  7  2  4 27 26  9  7 15               -0.001904388
  -4249888.095 9  -3306089.14148  20571421.031    20571421.5254   20571427.1424
       600.891         468.227
  -1334245.529 8  -1010028.36045  23972478.385    23972480.2364   23972488.1084
      4564.700        3556.909
   1914177.835 9   1494799.59048  20856198.130    20856198.9484   20856204.6104
     -1555.187       -1211.834
  -7099764.630 9  -5502123.71748  22076176.916    22076178.0514   22076183.3994
       513.933         400.467
  -5460859.720 8  -4208092.13245  24117957.680    24117957.5134   24117964.1904
      4411.060        3437.190
 -10448706.168 9  -7641919.46748  19666556.442    19666557.1554   19666563.0044
      1493.407        1163.694
  -4342490.657 9  -3368129.18746  23215295.743    23215296.1524   23215302.4064
      -265.658        -207.006
 97  5 15 16 32 59.9980000  0  7  2  4 27 26  9  7 15               -0.001924761
  -4267851.618 9  -3320086.70048  20568002.698    20568003.2074   20568008.8164
       594.842         463.513
  -1471253.178 8  -1116787.45845  23946406.946    23946408.5674   23946416.4134
      4567.082        3558.765
   1961023.945 9   1531303.04248  20865112.616    20865113.4704   20865119.1254
     -1569.857       -1223.265
  -7114961.931 9  -5513965.77248  22073284.913    22073286.1224   22073291.4634
       497.317         387.520
  -5593195.604 8  -4311210.99145  24092774.884    24092774.8644   24092781.2744
      4409.738        3436.159
 -10493305.591 9  -7676672.25948  19658069.462    19658070.1384   19658075.9854
      1477.928        1151.632
  -4334271.154 9  -3361724.40446  23216859.879    23216860.2964   23216866.5544
      -284.291        -221.525
 97  5 15 16 33 29.9980000  0  7  2  4 27 26  9  7 15               -0.001945116
  -4285611.860 9  -3333925.85948  20564623.039    20564623.5534   20564629.1674
       589.067         459.013
  -1608302.675 8  -1223579.20045  23920327.312    23920328.8464   23920336.9224
      4569.499        3560.649
   2008338.742 9   1568171.70248  20874116.317    20874117.1724   20874122.8414
     -1584.571       -1234.731
  -7129626.356 9  -5525392.59848  22070494.289    22070495.5784   22070500.9184
       479.999         374.025
  -5725466.590 8  -4414279.27145  24067605.153    24067604.6074   24067610.9974
      4408.107        3434.889
 -10537416.107 9  -7711044.09148  19649675.419    19649676.1604   19649682.0054
      1462.576        1139.670
  -4325467.475 9  -3354864.40546  23218535.134    23218535.5834   23218541.8294
      -302.779        -235.932
 97  5 15 16 33 59.9980000  0  7  2  4 27 26  9  7 15               -0.001965446
  -4303173.009 9  -3347609.87448  20561281.272    20561281.7704   20561287.3874
       582.279         453.724
  -1745381.570 8  -1330393.88645  23894241.813    23894243.4664   23894251.7544
      4569.770        3560.860
   2056114.181 9   1605399.30748  20883207.662    20883208.5164   20883214.2024
     -1599.893       -1246.670
  -7143740.982 9  -5536391.00448  22067808.388    22067809.6324   22067815.0014
       461.621         359.705
  -5857663.761 8  -4517290.04245  24042448.460    24042448.2454   24042454.5804
      4405.431        3432.803
 -10581031.274 9  -7745029.92948  19641375.617    19641376.4714   19641382.3224
      1445.534        1126.390
  -4316080.547 9  -3347549.92746  23220321.462    23220321.8594   23220328.1284
      -322.493        -251.293
 97  5 15 16 34 29.9980000  0  7  2  4 27 26  9  7 15               -0.001985718
  -4320554.287 9  -3361153.73248  20557973.662    20557974.2294   20557979.8584
       577.627         450.099
  -1882495.211 8  -1437235.58645  23868150.323    23868151.8474   23868159.7124
      4572.420        3562.925
   2104314.614 9   1642958.06648  20892379.855    20892380.7374   20892386.4684
     -1612.287       -1256.328
  -7157333.787 9  -5546982.81048  22065221.921    22065222.9744   22065228.4094
       445.791         347.370
  -5989810.918 8  -4620261.83745  24017301.344    24017301.3374   24017307.7534
      4405.384        3432.767
 -10624159.000 9  -7778635.95448  19633168.574    19633169.5464   19633175.4004
      1430.955        1115.030
  -4306127.316 9  -3339794.19546  23222215.465    23222215.9074   23222222.2214
      -339.884        -264.845
 97  5 15 16 34 59.9980000  0  7  2  4 27 26  9  7 15               -0.002006016
  -4337737.605 9  -3374543.33148  20554703.833    20554704.3764   20554710.0044
       570.190         444.304
  -2019619.210 8  -1544085.37945  23842056.534    23842057.8324   23842065.6554
      4571.387        3562.120
   2152940.953 9   1680848.70548  20901633.120    20901634.0444   20901639.7574
     -1627.202       -1267.950
  -7170388.821 9  -5557155.55948  22062737.414    22062738.7094   22062744.1554
       426.718         332.507
  -6121896.849 8  -4723185.93445  23992165.702    23992166.0974   23992172.5614
      4402.353        3430.405
 -10666802.197 9  -7811864.41448  19625053.883    19625054.8554   19625060.6944
      1414.129        1101.919
  -4295593.772 9  -3331586.23346  23224219.849    23224220.4144   23224226.6964
      -360.125        -280.617
 97  5 15 16 35 29.9970000  0  7  2  4 27 26  9  7 15               -0.002026280
  -4354711.450 9  -3387769.70648  20551473.863    20551474.3994   20551480.0004
       561.778         437.749
  -2156727.607 8  -1650923.05945  23815965.680    23815967.1504   23815974.6224
      4569.990        3561.031
   2201987.536 9   1719066.81148  20910966.443    20910967.2904   20910972.9834
     -1642.358       -1279.759
  -7182889.161 9  -5566896.08748  22060358.778    22060359.9824   22060365.4094
       407.177         317.281
  -6253895.366 9  -4826041.90645  23967047.838    23967047.7504   23967054.1134
      4397.903        3426.937
 -10708960.950 9  -7844715.38848  19617031.352    19617032.3364   19617038.1874
      1396.919        1088.508
  -4284477.091 9  -3322923.89946  23226335.391    23226335.8814   23226342.1104
      -380.649        -296.610
 97  5 15 16 35 59.9970000  0  7  2  4 27 26  9  7 15               -0.002046519
  -4371464.797 9  -3400824.26648  20548285.763    20548286.3604   20548291.9624
       555.047         432.504
  -2293832.294 8  -1757757.76745  23789875.456    23789877.0134   23789884.4904
      4570.320        3561.288
   2251451.333 9   1757610.01548  20920379.191    20920379.9514   20920385.6294
     -1655.563       -1290.049
  -7194854.489 9  -5576219.71548  22058081.691    22058083.0404   22058088.4924
       390.374         304.188
  -6385799.241 9  -4928824.13545  23941946.816    23941947.2744   23941953.6244
      4395.459        3425.033
 -10750644.798 9  -7877196.30248  19609099.139    19609100.1824   19609106.0294
      1381.898        1076.804
  -4272782.333 9  -3313811.11346  23228560.914    23228561.3384   23228567.5094
      -399.169        -311.041
 97  5 15 16 36 29.9970000  0  7  2  4 27 26  9  7 15               -0.002066731
  -4388000.383 9  -3413709.13948  20545139.228    20545139.7604   20545145.3594
       546.343         425.722
  -2430936.885 9  -1864592.48845  23763785.220    23763786.7854   23763794.1424
      4568.881        3560.167
   2301333.416 9   1796479.15748  20929871.447    20929872.2174   20929877.8914
     -1670.849       -1301.960
  -7206294.601 9  -5585134.09348  22055904.773    22055906.0554   22055911.5364
       371.387         289.392
  -6517611.357 9  -5031534.86045  23916863.122    23916864.2244   23916870.6214
      4391.014        3421.569
 -10791864.284 9  -7909315.37848  19601255.375    19601256.3424   19601262.2014
      1365.024        1063.655
  -4260514.155 9  -3304251.51646  23230895.484    23230895.8384   23230902.0794
      -419.732        -327.064
 97  5 15 16 36 59.9970000  0  7  2  4 27 26  9  7 15               -0.002086920
  -4404321.484 9  -3426426.88048  20542033.460    20542033.9564   20542039.5554
       539.921         420.718
  -2568039.393 9  -1971425.52245  23737695.488    23737696.9654   23737704.2514
      4569.615        3560.739
   2351629.526 9   1835670.91448  20939442.509    20939443.2644   20939448.9194
     -1684.124       -1312.304
  -7217217.861 9  -5593645.72648  22053826.115    22053827.4254   22053832.8974
       355.036         276.651
  -6649330.942 9  -5134173.48245  23891798.476    23891798.8964   23891805.1774
      4388.412        3419.542
 -10832613.229 9  -7941067.79848  19593501.084    19593502.0864   19593507.9544
      1349.559        1051.604
  -4247675.831 9  -3294247.64746  23233338.628    23233338.8734   23233345.1934
      -438.004        -341.302
 97  5 15 16 37 29.9970000  0  7  2  4 27 26  9  7 15               -0.002107091
  -4420411.073 9  -3438964.22148  20538971.686    20538972.1944   20538977.8314
       532.726         415.111
  -2705137.424 9  -2078255.07345  23711606.807    23711608.0764   23711615.3804
      4570.148        3561.154
   2402368.057 9   1875207.41048  20949097.769    20949098.5114   20949104.1454
     -1698.444       -1323.463
  -7227619.370 9  -5601750.80248  22051846.825    22051848.0694   22051853.5294
       338.379         263.672
  -6780930.916 9  -5236718.89045  23866755.430    23866756.2684   23866762.4884
      4384.959        3416.851
 -10872846.748 9  -7972418.59248  19585844.935    19585845.9384   19585851.8094
      1332.601        1038.390
  -4234254.943 9  -3283789.83946  23235892.500    23235892.8044   23235899.0894
      -456.835        -355.975
 97  5 15 16 37 59.9970000  0  7  2  4 27 26  9  7 15               -0.002127257
  -4436289.845 9  -3451337.28848  20535950.016    20535950.5444   20535956.1934
       527.276         410.864
  -2842242.712 9  -2185090.34345  23685516.653    23685517.8234   23685525.0954
      4571.499        3562.207
   2453536.343 9   1915078.78648  20958834.790    20958835.5254   20958841.1684
     -1711.449       -1333.597
  -7237514.020 9  -5609460.92348  22049963.882    22049965.1504   22049970.6424
       322.573         251.356
  -6912434.588 9  -5339189.27646  23841731.486    23841731.9484   23841738.1004
      4383.470        3415.691
 -10912564.220 9  -8003367.27248  19578287.114    19578287.9914   19578293.8514
      1316.700        1026.000
  -4220260.009 9  -3272884.70446  23238555.481    23238555.9714   23238562.1954
      -474.871        -370.029
 97  5 15 16 38 29.9970000  0  7  2  4 27 26  9  7 15               -0.002147417
  -4451978.111 9  -3463561.90848  20532964.617    20532965.1474   20532970.8134
       518.579         404.088
  -2979355.003 9  -2291931.00445  23659425.145    23659426.3824   23659433.5394
      4569.305        3560.497
   2505125.976 9   1955278.48848  20968652.064    20968652.7464   20968658.3704
     -1727.733       -1346.285
  -7246892.075 9  -5616768.50348  22048179.145    22048180.5694   22048186.0684
       302.796         235.945
  -7043858.560 9  -5441597.55046  23816722.215    23816722.8524   23816728.8884
      4378.278        3411.645
 -10951774.800 9  -8033920.96548  19570825.692    19570826.4644   19570832.3284
      1297.481        1011.024
  -4205692.132 9  -3261533.12846  23241327.601    23241328.1744   23241334.4074
      -496.254        -386.691
 97  5 15 16 38 59.9970000  0  7  2  4 27 26  9  7 15               -0.002167563
  -4467466.374 9  -3475630.69248  20530017.236    20530017.8174   20530023.5004
       514.314         400.764
  -3116467.694 9  -2398772.02145  23633333.445    23633334.7264   23633341.8184
      4571.999        3562.597
   2557143.988 9   1995811.99348  20978550.713    20978551.4384   20978557.0674
     -1739.777       -1355.670
  -7255742.605 9  -5623665.02448  22046495.108    22046496.4084   22046501.9024
       287.457         223.992
  -7175191.262 9  -5543934.70846  23791730.133    23791731.1024   23791737.1894
      4377.518        3411.053
 -10990478.023 9  -8064079.31748  19563460.693    19563461.4924   19563467.3574
      1283.165         999.869
  -4190546.744 9  -3249731.54446  23244209.735    23244210.1984   23244216.4994
      -513.061        -399.788
 97  5 15 16 39 29.9970000  0  7  2  4 27 26  9  7 15               -0.002187705
  -4482775.479 9  -3487559.86648  20527104.003    20527104.5764   20527110.2944
       507.327         395.320
  -3253612.356 9  -2505637.97045  23607235.523    23607236.9544   23607244.0944
      4571.862        3562.490
   2609575.688 9   2036667.84848  20988528.106    20988528.8704   20988534.5114
     -1754.505       -1367.147
  -7264071.289 9  -5630154.91248  22044910.185    22044911.5464   22044917.0224
       268.856         209.498
  -7306451.291 9  -5646215.24246  23766751.815    23766753.1664   23766759.1964
      4374.256        3408.511
 -11028703.748 9  -8093865.59048  19556186.613    19556187.4094   19556193.2614
      1266.474         986.863
  -4174843.402 9  -3237495.20046  23247197.935    23247198.4504   23247204.6974
      -532.806        -415.174
 97  5 15 16 39 59.9970000  0  7  2  4 27 26  9  7 15               -0.002207843
  -4497928.622 9  -3499367.50848  20524220.399    20524221.0344   20524226.7444
       501.903         391.093
  -3390794.055 9  -2612532.74846  23581130.716    23581132.1104   23581138.9474
      4572.793        3563.215
   2662388.154 9   2077820.40048  20998577.940    20998578.7694   20998584.4594
     -1767.423       -1377.213
  -7271893.827 9  -5636250.40048  22043421.629    22043422.9974   22043428.4804
       251.806         196.212
  -7437665.885 9  -5748460.35546  23741782.427    23741783.8464   23741789.8784
      4372.401        3407.066
 -11066498.806 9  -8123316.27948  19548994.621    19548995.2294   19549001.1064
      1252.247         975.777
  -4158599.907 9  -3224837.95246  23250289.002    23250289.5004   23250295.7954
      -551.005        -429.355
 97  5 15 16 40 29.9970000  0  7  2  4 27 26  9  7 15               -0.002227963
  -4512900.789 9  -3511034.13148  20521371.333    20521371.8944   20521377.6294
       494.329         385.191
  -3528003.668 9  -2719449.27446  23555020.734    23555022.0224   23555028.8704
      4572.740        3563.174
   2715605.365 9   2119288.33948  21008704.808    21008705.7014   21008711.4064
     -1782.037       -1388.600
  -7279201.639 9  -5641944.80348  22042031.018    22042032.3804   22042037.9084
       233.737         182.133
  -7568808.719 9  -5850649.56146  23716827.354    23716828.2184   23716834.2084
      4368.573        3404.083
 -11103858.039 9  -8152427.36548  19541885.243    19541885.9424   19541891.8174
      1236.373         963.408
  -4141806.645 9  -3211752.30346  23253484.656    23253485.0924   23253491.5284
      -570.326        -444.410
 97  5 15 16 40 59.9970000  0  7  2  4 27 26  9  7 15               -0.002248056
  -4527641.467 9  -3522520.37748  20518566.203    20518566.8324   20518572.5484
       487.583         379.935
  -3665210.053 9  -2826363.25145  23528910.989    23528912.3954   23528919.3484
      4573.547        3563.803
   2769255.540 9   2161093.65248  21018914.128    21018915.0214   21018920.7314
     -1795.277       -1398.917
  -7285973.250 9  -5647221.38448  22040742.511    22040743.7984   22040749.2964
       217.075         169.149
  -7699835.625 9  -5952748.41846  23691893.538    23691894.5784   23691900.6214
      4365.781        3401.907
 -11140736.728 9  -8181164.00348  19534867.260    19534868.0994   19534873.9994
      1221.293         951.657
  -4124437.186 9  -3198217.66846  23256789.955    23256790.4104   23256796.8594
      -588.400        -458.494
 97  5 15 16 41 29.9970000  0  7  2  4 27 26  9  7 15               -0.002268145
  -4542177.248 9  -3533846.96848  20515800.217    20515800.7844   20515806.4634
       480.576         374.475
  -3802435.393 9  -2933292.11346  23502797.791    23502799.2084   23502806.0284
      4573.792        3563.994
   2823303.407 9   2203208.85948  21029199.098    21029200.0104   21029205.7714
     -1808.652       -1409.339
  -7292254.061 9  -5652115.53248  22039547.328    22039548.6234   22039554.0974
       201.004         156.626
  -7830775.105 9  -6054779.16446  23666976.930    23666977.5144   23666983.6984
      4362.741        3399.538
 -11177158.411 9  -8209544.53148  19527936.421    19527937.2744   19527943.1764
      1206.133         939.844
  -4106526.262 9  -3184261.13046  23260198.269    23260198.7484   23260205.2944
      -606.441        -472.551
 97  5 15 16 41 59.9970000  0  7  2  4 27 26  9  7 15               -0.002288205
  -4556466.160 9  -3544981.19248  20513081.103    20513081.7084   20513087.3724
       472.267         368.000
  -3939622.831 9  -3040191.31946  23476691.708    23476693.2054   23476700.2064
      4572.292        3562.825
   2877779.581 9   2245657.81648  21039565.585    21039566.4844   21039572.2644
     -1822.937       -1420.470
  -7298022.818 9  -5656610.66948  22038449.462    22038450.8604   22038456.3464
       183.807         143.226
  -7961584.626 9  -6156708.64546  23642084.741    23642085.2514   23642091.4404
      4358.034        3395.871
 -11213092.537 9  -8237545.14848  19521098.400    19521099.2304   19521105.1424
      1189.608         926.967
  -4088040.814 9  -3169856.89346  23263715.825    23263716.3324   23263722.9494
      -625.666        -487.532
 97  5 15 16 42 29.9970000  0  7  2  4 27 26  9  7 15               -0.002308251
  -4570527.145 9  -3555937.81148  20510405.421    20510405.9864   20510411.6324
       464.211         361.723
  -4076783.341 9  -3147069.60646  23450590.995    23450592.4354   23450599.3774
      4570.647        3561.543
   2932654.602 9   2288417.55948  21050007.956    21050008.8744   21050014.6394
     -1836.300       -1430.883
  -7303294.666 9  -5660718.61048  22037446.457    22037447.6484   22037453.1494
       166.595         129.814
  -8092272.055 9  -6258542.97846  23617215.468    23617216.2644   23617222.4414
      4353.366        3392.233
 -11248546.299 9  -8265171.45148  19514351.756    19514352.5824   19514358.5454
      1173.051         914.066
  -4069006.267 9  -3155024.80846  23267338.054    23267338.5624   23267345.1064
      -644.386        -502.119
 97  5 15 16 42 59.9970000  0  7  2  4 27 26  9  7 15               -0.002328281
  -4584372.944 9  -3566726.75448  20507770.646    20507771.2124   20507776.8674
       457.045         356.139
  -4213904.628 9  -3253917.29746  23424497.656    23424499.1144   23424506.0384
      4568.965        3560.232
   2987904.850 9   2331469.67248  21060521.727    21060522.6074   21060528.4444
     -1848.996       -1440.776
  -7308067.531 9  -5664437.72648  22036538.171    22036539.4224   22036544.9214
       149.814         116.738
  -8222842.898 9  -6360286.46746  23592368.675    23592369.4634   23592375.5914
      4349.426        3389.163
 -11283535.345 9  -8292435.64048  19507693.592    19507694.3674   19507700.3244
      1157.653         902.067
  -4049427.496 9  -3139768.65246  23271063.876    23271064.3424   23271070.8684
      -662.700        -516.390
 97  5 15 16 43 29.9970000  0  7  2  4 27 26  9  7 15               -0.002348279
  -4598001.367 9  -3577346.30748  20505177.299    20505177.8184   20505183.4524
       450.213         350.815
  -4350964.671 9  -3360717.29246  23398416.001    23398417.2964   23398424.2944
      4566.883        3558.610
   3043553.698 9   2374832.39648  21071111.424    21071112.2654   21071118.0754
     -1862.274       -1451.123
  -7312325.162 9  -5667755.36548  22035728.017    22035729.2224   22035734.7324
       132.512         103.256
  -8353284.685 9  -6461929.39846  23567546.684    23567547.1704   23567553.2994
      4345.377        3386.008
 -11318056.859 9  -8319335.51548  19501124.284    19501125.1154   19501131.0554
      1142.385         890.170
  -4029290.856 9  -3124077.79746  23274895.688    23274896.2244   23274902.7534
      -681.194        -530.801
 97  5 15 16 43 59.9970000  0  7  2  4 27 26  9  7 15               -0.002368249
  -4611438.985 9  -3587817.18248  20502620.204    20502620.7294   20502626.3564
       444.375         346.266
  -4487972.127 9  -3467476.26946  23372344.385    23372345.6594   23372352.6414
      4565.573        3557.589
   3099580.634 9   2418489.73248  21081773.101    21081773.8944   21081779.6794
     -1874.260       -1460.462
  -7316063.307 9  -5670668.22048  22035016.688    22035017.8734   22035023.4034
       115.300          89.844
  -8483611.647 9  -6563482.84846  23542745.979    23542746.8014   23542752.8604
      4341.727        3383.164
 -11352127.071 9  -8345883.73648  19494640.978    19494641.8054   19494647.7124
      1127.480         878.556
  -4008607.970 9  -3107961.29446  23278831.518    23278832.0974   23278838.5774
      -698.983        -544.662
 97  5 15 16 44 29.9970000  0  7  2  4 27 26  9  7 15               -0.002388187
  -4624678.595 9  -3598133.76348  20500100.735    20500101.3154   20500106.9434
       437.386         340.820
  -4624915.897 9  -3574185.66346  23346284.776    23346285.9584   23346292.8644
      4563.388        3555.887
   3155995.607 9   2462449.43448  21092508.571    21092509.3934   21092515.0774
     -1887.594       -1470.852
  -7319265.838 9  -5673163.71148  22034407.210    22034408.4344   22034413.9534
        97.552          76.014
  -8613808.503 9  -6664934.92146  23517970.597    23517971.1104   23517977.2084
      4337.297        3379.712
 -11385723.258 9  -8372062.57948  19488247.863    19488248.6914   19488254.5814
      1111.444         866.060
  -3987369.169 9  -3091411.60346  23282873.225    23282873.7824   23282880.2444
      -717.775        -559.305
 97  5 15 16 44 59.9970000  0  7  2  4 27 26  9  7 15               -0.002408112
  -4637728.438 9  -3608302.48148  20497617.414    20497618.0074   20497623.6434
       432.909         337.332
  -4761827.931 9  -3680870.29146  23320231.279    23320232.5144   23320239.3554
      4564.496        3556.750
   3212793.069 9   2506707.15848  21103316.741    21103317.6464   21103323.2894
     -1898.587       -1479.418
  -7321966.686 9  -5675268.27248  22033893.294    22033894.5084   22033900.0304
        83.031          64.699
  -8743897.685 9  -6766303.08646  23493214.941    23493215.9734   23493222.0234
      4335.693        3378.462
 -11418860.709 9  -8397883.97148  19481942.016    19481942.8774   19481948.7714
      1097.860         855.475
  -3965589.129 9  -3074440.15846  23287017.835    23287018.4064   23287024.8294
      -733.835        -571.819
 97  5 15 16 45 29.9970000  0  7  2  4 27 26  9  7 15               -0.002428034
  -4650586.986 9  -3618322.13748  20495170.499    20495171.1014   20495176.7574
       425.088         331.237
  -4898711.885 9  -3787533.08246  23294183.128    23294184.3334   23294191.0894
      4561.845        3554.684
   3269975.851 9   2551265.14148  21114198.318    21114199.1854   21114204.8564
     -1912.760       -1490.462
  -7324177.709 9  -5676991.15548  22033472.539    22033473.7924   22033479.3034
        65.157          50.772
  -8873881.086 9  -6867588.84546  23468480.124    23468480.9094   23468486.9804
      4330.587        3374.483
 -11451515.295 9  -8423329.10348  19475727.947    19475728.9624   19475734.8554
      1080.079         841.620
  -3943269.527 9  -3057048.29246  23291265.176    23291265.7084   23291272.1264
      -753.358        -587.032
 97  5 15 16 45 59.9970000  0  7  2  4 27 26  9  7 15               -0.002447957
  -4663248.059 9  -3628187.91548  20492761.134    20492761.7874   20492767.4714
       419.213         326.659
  -5035563.961 9  -3894170.99546  23268140.889    23268142.1974   23268149.0424
      4561.850        3554.688
   3327530.177 9   2596112.63248  21125150.600    21125151.4164   21125157.0814
     -1924.077       -1499.281
  -7325904.254 9  -5678336.51948  22033144.125    22033145.1994   22033150.7234
        50.274          39.175
  -9003749.280 9  -6968784.80546  23443767.166    23443767.7584   23443773.8674
      4327.503        3372.080
 -11483687.318 9  -8448398.21248  19469605.923    19469606.8404   19469612.7334
      1064.956         829.836
  -3920407.754 9  -3039233.93946  23295615.613    23295616.2444   23295622.5694
      -770.454        -600.354
 97  5 15 16 46 29.9970000  0  7  2  4 27 26  9  7 15               -0.002467900
  -4675734.832 9  -3637917.88148  20490385.041    20490385.6524   20490391.3414
       414.437         322.938
  -5172422.000 9  -4000813.60146  23242097.519    23242098.8934   23242105.7264
      4563.365        3555.869
   3385429.492 9   2641228.94748  21136168.534    21136169.2964   21136174.9654
     -1934.764       -1507.608
  -7327196.945 9  -5679343.81548  22032897.940    22032899.1694   22032904.7344
        37.154          28.951
  -9133524.945 9  -7069908.68846  23419071.425    23419072.2414   23419078.3964
      4325.545        3370.555
 -11515411.693 9  -8473118.50448  19463568.981    19463569.8784   19463575.7564
      1051.308         819.201
  -3897037.212 9  -3021023.14746  23300062.874    23300063.5684   23300069.9494
      -786.412        -612.788
 97  5 15 16 46 59.9970000  0  7  2  4 27 26  9  7 15               -0.002487836
  -4688015.728 9  -3647487.40848  20488048.134    20488048.7074   20488054.4054
       404.828         315.450
  -5309258.407 8  -4107439.33646  23216058.490    23216059.9004   23216066.6954
      4559.398        3552.778
   3443723.001 9   2686652.43848  21147261.472    21147262.2204   21147267.9444
     -1950.938       -1520.211
  -7328025.707 9  -5679989.60448  22032740.227    22032741.4334   22032746.9784
        18.485          14.404
  -9263168.754 9  -7170929.81146  23394401.285    23394401.8394   23394407.9334
      4317.855        3364.562
 -11546664.091 9  -8497471.02048  19457621.911    19457622.7424   19457628.5914
      1032.657         804.668
  -3873121.926 9  -3002387.88746  23304613.846    23304614.4784   23304620.8964
      -807.521        -629.237
 97  5 15 16 47 29.9970000  0  7  2  4 27 26  9  7 15               -0.002507749
  -4700098.734 9  -3656902.74348  20485748.796    20485749.4044   20485755.0904
       399.176         311.046
  -5446050.064 9  -4214030.19546  23190027.738    23190029.2194   23190036.0244
      4558.710        3552.242
   3502420.221 9   2732390.51748  21158431.151    21158431.9214   21158437.6214
     -1963.622       -1530.095
  -7328373.856 9  -5680260.89848  22032674.028    22032675.2014   22032680.7614
         3.206           2.498
  -9392659.883 9  -7271831.97346  23369760.288    23369760.4874   23369766.5664
      4313.398        3361.089
 -11577447.487 9  -8521458.08148  19451764.070    19451764.8894   19451770.7054
      1018.330         793.504
  -3848657.984 9  -2983325.10346  23309269.170    23309269.8464   23309276.2924
      -824.898        -642.778
 97  5 15 16 47 59.9970000  0  7  2  4 27 26  9  7 15               -0.002527636
  -4711984.014 9  -3666164.00548  20483487.140    20483487.6974   20483493.4024
       393.198         306.388
  -5582809.108 9  -4320595.59646  23164003.318    23164004.8194   23164011.6544
      4558.604        3552.159
   3561515.827 9   2778439.00548  21169676.704    21169677.4624   21169683.2354
     -1976.119       -1539.833
  -7328244.447 9  -5680160.06748  22032698.581    22032699.8144   22032705.3944
       -11.825          -9.214
  -9521995.472 9  -7372612.91846  23345148.178    23345148.7214   23345154.8284
      4309.204        3357.821
 -11607789.699 9  -8545101.36748  19445990.041    19445990.9784   19445996.7634
      1004.363         782.620
  -3823656.477 9  -2963843.44246  23314026.801    23314027.4404   23314033.9354
      -841.834        -655.975
 97  5 15 16 48 29.9970000  0  7  2  4 27 26  9  7 15               -0.002547508
  -4723676.834 9  -3675275.30048  20481262.103    20481262.6734   20481268.3454
       385.822         300.641
  -5719549.583 9  -4427146.57746  23137982.416    23137983.8964   23137990.7254
      4557.002        3550.911
   3621010.896 9   2824798.76748  21180998.211    21180998.9764   21181004.7674
     -1990.481       -1551.024
  -7327644.544 9  -5679692.61548  22032812.735    22032813.9554   22032819.5324
       -28.480         -22.192
  -9651199.684 9  -7473291.49146  23320561.097    23320561.9204   23320568.0764
      4304.086        3353.833
 -11637693.836 9  -8568403.29148  19440299.490    19440300.4354   19440306.2194
       988.904         770.575
  -3798136.777 9  -2943958.00446  23318883.091    23318883.8094   23318890.1894
      -859.921        -670.068
 97  5 15 16 48 59.9970000  0  7  2  4 27 26  9  7 15               -0.002567353
  -4735149.635 9  -3684215.14948  20479078.932    20479079.4574   20479085.1424
       378.428         294.879
  -5856242.556 9  -4533660.49946  23111970.563    23111971.9634   23111978.9994
      4555.219        3549.521
   3680917.516 9   2871479.22848  21192398.169    21192398.8464   21192404.6794
     -2003.582       -1561.233
  -7326552.713 9  -5678841.84648  22033020.555    22033021.7194   22033027.3084
       -44.859         -34.955
  -9780261.073 9  -7573858.78246  23296001.944    23296002.3014   23296008.4954
      4299.571        3350.315
 -11667145.087 9  -8591352.31848  19434695.165    19434696.0804   19434701.8404
       973.947         758.920
  -3772085.803 9  -2923658.57246  23323840.476    23323841.1354   23323847.5374
      -877.369        -683.664
 97  5 15 16 49 29.9970000  0  7  2  4 27 26  9  7 15               -0.002587173
  -4746378.413 9  -3692964.85148  20476942.193    20476942.7214   20476948.4274
       368.658         287.266
  -5992865.237 9  -4640119.66446  23085972.100    23085973.5374   23085980.2794
      4551.430        3546.569
   3741218.943 9   2918467.32548  21203873.160    21203873.8614   21203879.7074
     -2017.807       -1572.317
  -7324957.248 9  -5677598.64248  22033324.228    22033325.3404   22033330.8944
       -62.921         -49.029
  -9909185.065 9  -7674319.01346  23271468.103    23271468.8334   23271475.0714
      4293.968        3345.949
 -11696135.298 9  -8613942.09148  19429178.601    19429179.4334   19429185.2044
       957.256         745.914
  -3745498.821 9  -2902941.46646  23328899.785    23328900.5614   23328906.8284
      -896.587        -698.639
 97  5 15 16 49 59.9970000  0  7  2  4 27 26  9  7 15               -0.002606968
  -4757347.321 9  -3701512.05948  20474854.971    20474855.4264   20474861.1144
       362.767         282.675
  -6129409.763 9  -4746517.93346  23059988.698    23059990.0194   23059996.7924
      4551.404        3546.549
   3801903.343 9   2965753.83948  21215421.049    21215421.7544   21215427.6014
     -2027.890       -1580.174
  -7322856.637 9  -5675961.79848  22033723.842    22033725.0484   22033730.6074
       -77.056         -60.044
 -10037981.950 9  -7774680.19246  23246958.468    23246959.5404   23246965.8794
      4292.579        3344.867
 -11724659.775 9  -8636168.96148  19423750.722    19423751.4104   19423757.1614
       944.361         735.866
  -3718373.748 9  -2881805.05946  23334061.738    23334062.3094   23334068.5934
      -911.758        -710.461
 97  5 15 16 50 29.9970000  0  7  2  4 27 26  9  7 15               -0.002626752
  -4768092.501 9  -3709884.92648  20472810.270    20472810.7004   20472816.3664
       353.475         275.435
  -6265884.736 9  -4852861.98046  23034018.294    23034019.5254   23034026.5194
      4546.839        3542.991
   3862952.411 9   3013324.51748  21227038.343    21227039.0344   21227044.8834
     -2042.110       -1591.255
  -7320277.717 9  -5673952.26948  22034214.586    22034215.7714   22034221.3814
       -94.956         -73.992
 -10166675.680 9  -7874961.00146  23222468.669    23222469.9314   23222476.2484
      4286.735        3340.313
 -11752745.783 9  -8658054.15748  19418406.109    19418406.8164   19418412.5774
       927.923         723.057
  -3690735.479 9  -2860268.77946  23339321.278    23339321.7184   23339328.0704
      -930.993        -725.449
 97  5 15 16 50 59.9970000  0  7  2  4 27 26  9  7 15               -0.002646511
  -4778615.980 9  -3718085.04948  20470807.703    20470808.1734   20470813.8294
       346.823         270.252
  -6402271.020 9  -4959136.96346  23008064.852    23008066.0584   23008073.0014
      4544.252        3540.976
   3924365.756 9   3061179.03647  21238724.924    21238725.6334   21238731.4844
     -2053.591       -1600.201
  -7317213.552 9  -5671564.61248  22034797.674    22034798.8374   22034804.4884
      -110.816         -86.350
 -10295240.694 9  -7975141.49846  23198003.798    23198004.8554   23198011.1254
      4282.916        3337.337
 -11780391.273 9  -8679596.09648  19413145.409    19413146.0674   19413151.7984
       913.592         711.890
  -3662569.338 9  -2838321.14746  23344681.093    23344681.5954   23344687.9784
      -948.173        -738.836
 97  5 15 16 51 29.9970000  0  7  2  4 27 26  9  7 15               -0.002666253
  -4788945.605 9  -3726134.11548  20468842.069    20468842.5394   20468848.1774
       341.630         266.205
  -6538581.095 9  -5065352.50346  22982125.843    22982127.1324   22982133.9544
      4542.735        3539.794
   3986136.752 9   3109312.24647  21250479.641    21250480.2654   21250486.1274
     -2064.732       -1608.882
  -7313665.825 9  -5668800.17048  22035472.836    22035473.9724   22035479.6184
      -125.828         -98.048
 -10423686.003 9  -8075228.72446  23173561.280    23173562.5504   23173568.8124
      4279.865        3334.960
 -11807601.328 9  -8700798.73848  19407967.432    19407968.1404   19407973.8534
       900.099         701.376
  -3633885.006 9  -2815969.75246  23350139.571    23350139.9914   23350146.4434
      -964.343        -751.436
 97  5 15 16 51 59.9970000  0  7  2  4 27 26  9  7 15               -0.002685971
  -4799074.395 9  -3734026.68648  20466914.619    20466915.1064   20466920.7134
       335.818         261.676
  -6674800.269 9  -5171497.26846  22956204.144    22956205.3634   22956212.1804
      4540.743        3538.241
   4048293.695 9   3157746.20047  21262307.751    21262308.3464   21262314.2574
     -2076.973       -1618.421
  -7309623.821 9  -5665650.55948  22036242.002    22036243.1364   22036248.8214
      -141.347        -110.141
 -10551989.400 9  -8175205.36146  23149146.197    23149147.1814   23149153.4694
      4275.800        3331.792
 -11834355.201 9  -8721645.91348  19402876.288    19402877.0644   19402882.7804
       885.593         690.072
  -3604672.746 9  -2793206.98146  23355698.494    23355698.9184   23355705.4364
      -980.943        -764.371
 97  5 15 16 52 29.9970000  0  7  2  4 27 26  9  7 15               -0.002705669
  -4808997.133 9  -3741758.70048  20465026.356    20465026.8434   20465032.4814
       328.639         256.082
  -6810933.707 9  -5277575.25346  22930298.682    22930300.0884   22930306.8284
      4537.918        3536.040
   4110841.217 9   3206484.49947  21274210.132    21274210.8104   21274216.6704
     -2089.667       -1628.312
  -7305090.363 9  -5662118.00948  22037104.669    22037105.8364   22037111.5184
      -157.891        -123.032
 -10680141.023 9  -8275063.74146  23124759.558    23124760.6964   23124767.0164
      4270.640        3327.771
 -11860638.906 9  -8742126.72348  19397874.576    19397875.4334   19397881.1474
       869.596         677.607
  -3574932.643 9  -2770032.90246  23361357.825    23361358.3114   23361364.7714
      -998.649        -778.168
 97  5 15 16 52 59.9970000  0  7  2  4 27 26  9  7 15               -0.002725379
  -4818731.893 9  -3749344.23548  20463173.843    20463174.3844   20463180.0074
       320.115         249.440
  -6947020.282 9  -5383616.63546  22904402.175    22904403.6594   22904410.4074
      4534.193        3533.137
   4173724.155 9   3255484.15847  21286176.335    21286177.0384   21286182.9404
     -2102.704       -1638.471
  -7300088.833 9  -5658220.72348  22038056.318    22038057.5734   22038063.2714
      -175.692        -136.903
 -10808176.818 9  -8374831.85346  23100395.501    23100396.2674   23100402.5544
      4264.801        3323.222
 -11886468.283 9  -8762253.50648  19392959.516    19392960.2444   19392965.9664
       852.148         664.011
  -3544699.012 9  -2746474.27446  23367111.067    23367111.6254   23367118.0954
     -1017.112        -792.555
 97  5 15 16 53 29.9970000  0  7  2  4 27 26  9  7 15               -0.002745092
  -4828252.480 9  -3756762.88548  20461362.132    20461362.6644   20461368.3114
       312.689         243.654
  -7083036.831 9  -5489603.48346  22878519.047    22878520.4264   22878527.2794
      4531.735        3531.222
   4236958.016 9   3304757.28247  21298209.381    21298210.0294   21298215.9614
     -2114.501       -1647.663
  -7294601.868 9  -5653945.17448  22039100.421    22039101.7394   22039107.3804
      -191.637        -149.328
 -10936075.109 9  -8474492.81946  23076057.549    23076058.0124   23076064.3234
      4259.845        3319.360
 -11911816.789 9  -8782005.59148  19388135.914    19388136.5694   19388142.2984
       836.085         651.495
  -3513956.837 9  -2722519.35646  23372961.072    23372961.5724   23372968.1844
     -1034.072        -805.770
 97  5 15 16 53 59.9970000  0  7  2  4 27 26  9  7 15               -0.002764794
  -4837521.607 9  -3763985.59848  20459598.206    20459598.7714   20459604.4384
       305.556         238.096
  -7218955.592 9  -5595514.11346  22852654.472    22852655.8204   22852662.8164
      4529.762        3529.685
   4300559.013 9   3354316.46847  21310312.216    21310312.9344   21310318.8904
     -2125.307       -1656.083
  -7288625.694 9  -5649288.42248  22040237.839    22040238.9954   22040244.6164
      -206.602        -160.989
 -11063790.860 9  -8574011.54446  23051753.518    23051754.5204   23051760.8684
      4254.621        3315.289
 -11936663.368 9  -8801366.56448  19383407.714    19383408.3854   19383414.1434
       820.660         639.475
  -3482683.022 9  -2698150.17346  23378912.332    23378912.7814   23378919.4214
     -1050.740        -818.758
 97  5 15 16 54 29.9970000  0  7  2  4 27 26  9  7 15               -0.002784506
  -4846601.923 9  -3771061.17648  20457870.288    20457870.8384   20457876.5344
       299.844         233.645
  -7354824.858 9  -5701386.22046  22826799.441    22826800.6874   22826807.6394
      4528.147        3528.426
   4364458.704 9   3404108.41347  21322471.882    21322472.6664   21322478.5814
     -2134.677       -1663.385
  -7282212.572 9  -5644291.20048  22041458.168    22041459.3464   22041464.9744
      -220.842        -172.085
 -11191357.952 9  -8673414.44646  23027478.208    23027479.2434   23027485.6324
      4249.989        3311.680
 -11961073.008 9  -8820387.06248  19378762.663    19378763.3854   19378769.1394
       806.793         628.670
  -3450924.044 9  -2673402.93146  23384955.954    23384956.4454   23384963.0444
     -1066.514        -831.050
 97  5 15 16 54 59.9970000  0  7  2  4 27 26  9  7 15               -0.002804204
  -4855474.853 9  -3777975.15448  20456181.841    20456182.3754   20456188.0804
       292.910         228.242
  -7490601.371 9  -5807186.03246  22800962.063    22800963.2844   22800970.1194
      4524.763        3525.789
   4428684.513 9   3454154.46647  21334693.623    21334694.4404   21334700.3554
     -2145.894       -1672.125
  -7275341.225 9  -5638936.91448  22042765.728    22042766.9424   22042772.5594
      -235.835        -183.768
 -11318751.169 9  -8772681.84246  23003236.114    23003237.0894   23003243.4524
      4243.993        3307.008
 -11985040.242 9  -8839062.83248  19374202.001    19374202.5874   19374208.3234
       792.370         617.431
  -3418653.845 9  -2648257.35146  23391096.679    23391097.2504   23391103.8504
     -1083.619        -844.378
 97  5 15 16 55 29.9970000  0  7  2  4 27 26  9  7 15               -0.002823879
  -4864152.873 9  -3784737.25248  20454530.512    20454531.0234   20454536.7584
       285.252         222.274
  -7626282.859 9  -5912911.78246  22775142.532    22775143.8034   22775150.6604
      4520.482        3522.454
   4493244.999 9   3504461.30947  21346979.156    21346979.9474   21346985.8104
     -2158.375       -1681.851
  -7268039.172 9  -5633247.00548  22044155.262    22044156.5194   22044162.1714
      -251.184        -195.728
 -11445967.859 9  -8871811.70246  22979027.490    22979028.5474   22979034.8764
      4237.051        3301.598
 -12008594.627 9  -8857416.89648  19369719.663    19369720.3224   19369726.0784
       777.834         606.104
  -3385880.112 9  -2622719.43546  23397333.436    23397333.8894   23397340.4824
     -1101.463        -858.283
 97  5 15 16 55 59.9970000  0  7  2  4 27 26  9  7 15               -0.002843523
  -4872624.748 9  -3791338.71848  20452918.393    20452918.8934   20452924.6214
       280.101         218.261
  -7761860.734 9  -6018556.81746  22749342.755    22749344.0624   22749350.9824
      4518.480        3520.894
   4558149.696 9   3555036.36547  21359330.135    21359330.8674   21359336.8284
     -2168.163       -1689.478
  -7260302.501 9  -5627218.44648  22045627.534    22045628.7884   22045634.4154
      -264.202        -205.872
 -11573012.373 9  -8970807.39646  22954851.481    22954852.7964   22954859.1224
      4233.279        3298.659
 -12031749.600 9  -8875459.73248  19365313.349    19365314.0744   19365319.8494
       766.299         597.116
  -3352600.624 9  -2596787.40046  23403666.251    23403666.7414   23403673.3834
     -1116.710        -870.164
 97  5 15 16 56 29.9970000  0  7  2  4 27 26  9  7 15               -0.002863128
  -4880880.068 9  -3797771.44448  20451347.449    20451347.9364   20451353.6964
       271.204         211.328
  -7897317.817 9  -6124107.73546  22723566.231    22723567.5644   22723574.4734
      4513.067        3516.676
   4623415.239 9   3605892.61347  21371749.818    21371750.5424   21371756.4324
     -2181.878       -1700.165
  -7252109.952 9  -5620834.65748  22047186.575    22047187.8284   22047193.4254
      -280.725        -218.747
 -11699899.163 9  -9069680.19346  22930706.103    22930707.0484   22930713.3644
      4226.972        3293.744
 -12054499.478 9  -8893186.91048  19360984.298    19360984.9044   19360990.6734
       751.321         585.445
  -3318807.492 9  -2570455.11546  23410096.725    23410097.3964   23410104.0004
     -1135.092        -884.487
 97  5 15 16 56 59.9970000  0  7  2  4 27 26  9  7 15               -0.002882708
  -4888909.811 9  -3804028.38748  20449819.459    20449819.9554   20449825.6904
       263.250         205.130
  -8032667.015 9  -6229574.55346  22697810.143    22697811.5004   22697818.3854
      4509.346        3513.776
   4689051.410 9   3657037.64347  21384239.993    21384240.6894   21384246.6374
     -2194.713       -1710.166
  -7243479.816 9  -5614109.88548  22048828.863    22048830.1314   22048835.7114
      -295.558        -230.305
 -11826648.983 9  -9168446.25446  22906586.314    22906587.3704   22906593.6664
      4221.900        3289.792
 -12076843.852 9  -8910598.11248  19356732.232    19356732.9034   19356738.6954
       737.285         574.508
  -3284514.186 9  -2543733.09246  23416622.578    23416623.3524   23416629.8504
     -1152.039        -897.693
 97  5 15 16 57 29.9970000  0  7  2  4 27 26  9  7 15               -0.002902272
  -4896717.725 9  -3810112.48548  20448333.685    20448334.1724   20448339.8834
       256.867         200.156
  -8167920.771 9  -6334966.97046  22672071.925    22672073.3134   22672080.3964
      4507.229        3512.126
   4755051.005 9   3708465.87047  21396799.378    21396799.9774   21396805.9804
     -2205.581       -1718.635
  -7234413.667 9  -5607045.35748  22050554.177    22050555.3574   22050560.9734
      -309.215        -240.947
 -11953261.134 9  -9267105.04846  22882492.688    22882493.8344   22882500.1404
      4218.650        3287.260
 -12098774.624 9  -8927687.02848  19352558.831    19352559.5834   19352565.3844
       724.291         564.383
  -3249730.184 9  -2516628.68646  23423241.691    23423242.4724   23423249.0874
     -1167.246        -909.542
 97  5 15 16 57 59.9970000  0  7  2  4 27 26  9  7 15               -0.002921834
  -4904303.939 9  -3816023.82248  20446890.170    20446890.5884   20446896.2754
       249.195         194.178
  -8303083.041 9  -6440288.13646  22646351.252    22646352.6364   22646359.7254
      4503.737        3509.405
   4821400.895 9   3760167.06247  21409425.314    21409425.9824   21409431.9384
     -2217.545       -1727.957
  -7224906.853 9  -5599637.46348  22052363.243    22052364.4494   22052370.0354
      -324.339        -252.732
 -12079748.978 9  -9365666.97746  22858423.063    22858423.9634   22858430.2844
      4213.846        3283.516
 -12120275.490 9  -8944440.95248  19348467.178    19348468.1214   19348473.9024
       709.070         552.522
  -3214462.782 9  -2489147.64146  23429952.956    23429953.5304   23429960.3614
     -1183.854        -922.484
 97  5 15 16 58 29.9970000  0  7  2  4 27 26  9  7 15               -0.002941377
  -4911634.169 9  -3821735.69248  20445495.246    20445495.7104   20445501.3674
       240.418         187.339
  -8438117.136 9  -6545509.39546  22620655.101    22620656.5014   22620663.6224
      4499.382        3506.012
   4888138.376 9   3812170.26847  21422125.106    21422125.7114   21422131.6924
     -2230.698       -1738.206
  -7214920.198 9  -5591855.66048  22054263.693    22054264.8784   22054270.4504
      -340.581        -265.388
 -12206050.083 9  -9464083.39146  22834389.013    22834389.6494   22834395.9254
      4206.949        3278.142
 -12141283.303 9  -8960810.67748  19344469.689    19344470.4634   19344476.2434
       692.346         539.490
  -3178671.133 9  -2461258.06746  23436763.884    23436764.4034   23436771.3254
     -1201.402        -936.157
 97  5 15 16 58 59.9970000  0  7  2  4 27 26  9  7 15               -0.002960914
  -4918741.513 9  -3827273.88348  20444142.752    20444143.2164   20444148.8924
       232.579         181.230
  -8573053.034 9  -6650654.17346  22594977.687    22594979.0534   22594986.0594
      4495.304        3502.834
   4955229.341 9   3864448.90447  21434892.114    21434892.7604   21434898.7384
     -2242.874       -1747.694
  -7204479.269 9  -5583719.87648  22056250.695    22056251.7884   22056257.2814
      -356.466        -277.766
 -12332163.922 9  -9562353.87946  22810390.364    22810390.9394   22810397.2374
      4199.551        3272.377
 -12161823.154 9  -8976815.76048  19340561.307    19340561.8814   19340567.6504
       676.141         526.863
  -3142385.788 8  -2432983.78946  23443668.846    23443669.2414   23443676.2684
     -1218.558        -949.526
 97  5 15 16 59 29.9970000  0  7  2  4 27 26  9  7 15               -0.002980434
  -4925631.592 9  -3832642.78048  20442831.658    20442832.0764   20442837.7414
       225.781         175.933
  -8707873.441 9  -6755708.93946  22569322.158    22569323.4954   22569330.4784
      4491.691        3500.019
   5022668.344 9   3916998.74947  21447725.319    21447725.9624   21447731.9304
     -2254.168       -1756.495
  -7193570.185 9  -5575219.30247  22058326.581    22058327.7034   22058333.2054
      -371.703        -289.639
 -12458064.375 9  -9660458.09846  22786431.978    22786432.8824   22786439.0964
      4192.810        3267.125
 -12181893.694 9  -8992455.14348  19336741.979    19336742.6114   19336748.3724
       660.975         515.045
  -3105601.842 9  -2404321.01045  23450668.676    23450669.0534   23450676.1624
     -1234.676        -962.085
 97  5 15 16 59 59.9970000  0  7  2  4 27 26  9  7 15               -0.002999934
  -4932312.518 9  -3837848.70348  20441560.296    20441560.7314   20441566.4124
       218.133         169.974
  -8842579.317 9  -6860674.48446  22543688.488    22543689.7864   22543696.6444
      4487.134        3496.468
   5090455.415 9   3969819.80347  21460624.791    21460625.4564   21460631.4304
     -2266.471       -1766.081
  -7182205.219 9  -5566363.49947  22060489.308    22060490.4064   22060495.9024
      -387.545        -301.983
 -12583746.385 9  -9758392.09447  22762515.672    22762516.3384   22762522.5734
      4184.362        3260.542
 -12201511.687 9  -9007741.89348  19333008.748    19333009.4504   19333015.1874
       645.395         502.905
  -3068326.507 8  -2375275.33245  23457761.857    23457762.4424   23457769.4294
     -1251.859        -975.475
 97  5 15 17  0 29.9960000  0  7  2  4 27 26  9  7 15               -0.003019400
  -4938779.526 9  -3842887.93748  20440329.604    20440330.1314   20440335.7874
       211.766         165.012
  -8977152.623 9  -6965536.68446  22518079.885    22518081.2334   22518088.2134
      4483.359        3493.526
   5158590.133 9   4022911.76847  21473590.418    21473591.1204   21473597.0234
     -2277.251       -1774.481
  -7170380.406 9  -5557149.37247  22062739.597    22062740.6124   22062746.1084
      -402.142        -313.357
 -12709187.462 9  -9856138.36547  22738644.795    22738645.6514   22738651.8844
      4177.450        3255.156
 -12220688.766 9  -9022685.07448  19329359.480    19329360.1874   19329365.9014
       631.901         492.390
  -3030559.944 8  -2345846.86745  23464949.013    23464949.3014   23464956.1234
     -1267.258        -987.474
 97  5 15 17  0 59.9960000  0  7  2  4 27 26  9  7 15               -0.003038829
  -4945035.644 9  -3847762.84048  20439139.104    20439139.6194   20439145.2894
       204.330         159.218
  -9111588.057 9  -7070291.47646  22492497.738    22492499.0254   22492505.8804
      4478.167        3489.481
   5227072.946 9   4076274.97547  21486622.250    21486623.0004   21486628.8484
     -2289.064       -1783.686
  -7158096.190 9  -5547577.26147  22065077.155    22065078.2444   22065083.7044
      -417.479        -325.308
 -12834405.038 9  -9953710.48547  22714816.669    22714817.4554   22714823.7714
      4169.706        3249.122
 -12239435.924 9  -9037293.24848  19325791.905    19325792.7234   19325798.4354
       617.046         480.815
  -2992303.120 8  -2316036.37545  23472228.981    23472229.2834   23472236.2144
     -1283.932       -1000.466
 97  5 15 17  1 29.9960000  0  7  2  4 27 26  9  7 15               -0.003058233
  -4951076.741 9  -3852470.19548  20437989.547    20437990.0474   20437995.7404
       197.757         154.096
  -9245879.112 9  -7174933.76946  22466942.908    22466944.2554   22466950.8164
      4473.966        3486.207
   5295894.872 9   4129902.41947  21499718.673    21499719.4044   21499725.2914
     -2299.689       -1791.965
  -7145371.504 9  -5537661.93547  22067498.655    22067499.7074   22067505.1564
      -431.455        -336.199
 -12959418.846 9 -10051123.80347  22691027.422    22691028.0964   22691034.4114
      4164.074        3244.733
 -12257755.512 9  -9051568.25548  19322305.789    19322306.6354   19322312.3324
       603.611         470.346
  -2953566.967 8  -2285852.38446  23479600.330    23479600.4724   23479607.6004
     -1299.116       -1012.298
 97  5 15 17  1 59.9960000  0  7  2  4 27 26  9  7 15               -0.003077613
  -4956902.838 9  -3857010.02448  20436880.947    20436881.4314   20436887.1004
       190.385         148.352
  -9380032.586 9  -7279468.85546  22441414.354    22441415.6524   22441422.1924
      4469.143        3482.449
   5365034.632 9   4183777.52947  21512875.553    21512876.2824   21512882.0984
     -2309.846       -1799.880
  -7132219.695 9  -5527413.78847  22070001.359    22070002.4354   22070007.8794
      -445.649        -347.259
 -13084259.645 9 -10148402.33647  22667271.001    22667271.6254   22667277.9784
      4158.384        3240.299
 -12275662.159 9  -9065521.49548  19318898.288    19318899.1154   19318904.8094
       589.867         459.637
  -2914365.628 8  -2255305.90445  23487060.211    23487060.3514   23487067.2834
     -1314.607       -1024.369
 97  5 15 17  2 29.9960000  0  7  2  4 27 26  9  7 15               -0.003096974
  -4962491.616 9  -3861364.92648  20435817.547    20435817.9724   20435823.6204
       183.048         142.635
  -9514014.861 9  -7383870.50646  22415918.422    22415919.6474   22415926.2214
      4463.923        3478.381
   5434497.129 9   4237904.12647  21526093.806    21526094.5394   21526100.4144
     -2320.100       -1807.870
  -7118619.396 9  -5516816.16647  22072589.400    22072590.4604   22072595.9364
      -460.053        -358.483
 -13208912.363 9 -10245534.29947  22643550.419    22643550.9944   22643557.3554
      4152.689        3235.861
 -12293130.677 9  -9079133.32548  19315574.177    19315574.9804   19315580.6644
       575.559         448.488
  -2874679.155 8  -2224381.40245  23494612.159    23494612.4964   23494619.4194
     -1330.357       -1036.642
 97  5 15 17  2 59.9960000  0  7  2  4 27 26  9  7 15               -0.003116338
  -4967855.627 9  -3865544.68148  20434796.810    20434797.2354   20434802.9014
       174.304         135.821
  -9647846.615 9  -7488154.91746  22390450.844    22390452.1464   22390458.8064
      4457.912        3473.698
   5504269.144 9   4292271.91247  21539371.045    21539371.7674   21539377.5914
     -2331.550       -1816.792
  -7104593.541 9  -5505886.94947  22075258.475    22075259.5124   22075265.0174
      -475.071        -370.185
 -13333393.776 9 -10342532.77747  22619862.255    22619862.9364   22619869.2694
      4145.865        3230.544
 -12310163.588 9  -9092405.72448  19312332.792    19312333.7174   19312339.4184
       559.841         436.240
  -2834517.749 8  -2193086.83645  23502254.593    23502254.9624   23502261.8484
     -1347.309       -1049.851
 97  5 15 17  3 29.9960000  0  7  2  4 27 26  9  7 15               -0.003135700
  -4972991.229 9  -3869546.45948  20433819.528    20433819.9894   20433825.6374
       167.910         130.839
  -9781529.605 9  -7592323.44546  22365011.627    22365013.0404   22365019.7424
      4453.932        3470.596
   5574347.352 9   4346878.26247  21552706.460    21552707.2084   21552713.0824
     -2340.608       -1823.850
  -7090150.588 9  -5494632.71847  22078006.796    22078007.9264   22078013.4674
      -488.074        -380.317
 -13457701.274 9 -10439395.73547  22596207.457    22596208.0134   22596214.3764
      4140.927        3226.696
 -12326769.171 9  -9105345.14348  19309172.787    19309173.7844   19309179.4694
       546.813         426.088
  -2793884.260 8  -2161424.40945  23509986.942    23509987.3704   23509994.2544
     -1361.961       -1061.268
 97  5 15 17  3 59.9960000  0  7  2  4 27 26  9  7 15               -0.003155062
  -4977901.019 9  -3873372.27948  20432885.257    20432885.6814   20432891.3414
       161.002         125.456
  -9915050.882 9  -7696365.85746  22339603.291    22339604.7884   22339611.4374
      4449.004        3466.756
   5644728.907 9   4401720.99147  21566099.680    21566100.4154   21566106.3444
     -2350.124       -1831.265
  -7075284.117 9  -5483048.47147  22080835.807    22080836.9424   22080842.5074
      -501.481        -390.764
 -13581816.068 9 -10536108.53847  22572589.208    22572589.7474   22572596.0984
      4134.785        3221.910
 -12342936.439 9  -9117943.01348  19306096.435    19306097.2864   19306102.9824
       532.450         414.896
  -2752773.769 8  -2129390.27645  23517810.067    23517810.3854   23517817.2864
     -1377.368       -1073.274
 97  5 15 17  4 29.9960000  0  7  2  4 27 26  9  7 15               -0.003174436
  -4982601.301 9  -3877034.84548  20431990.795    20431991.2714   20431996.9354
       152.716         118.999
 -10048415.689 9  -7800286.41746  22314224.872    22314226.1684   22314232.9774
      4442.780        3461.906
   5715418.195 9   4456803.53747  21579551.565    21579552.1824   21579558.0764
     -2361.961       -1840.489
  -7060005.753 9  -5471143.26647  22083743.186    22083744.3394   22083749.8794
      -516.498        -402.466
 -13705728.999 9 -10632664.05147  22549009.387    22549009.9284   22549016.2394
      4126.716        3215.623
 -12358652.682 9  -9130189.43648  19303105.817    19303106.5974   19303112.2884
       516.035         402.105
  -2711189.654 8  -2096987.10745  23525723.298    23525723.6624   23525730.4584
     -1394.386       -1086.534
 97  5 15 17  4 59.9960000  0  7  2  4 27 26  9  7 15               -0.003193821
  -4987095.286 9  -3880536.65748  20431135.649    20431136.1234   20431141.7994
       145.389         113.290
 -10181649.261 9  -7904104.62746  22288871.318    22288872.5414   22288879.3814
      4437.875        3458.084
   5786414.158 9   4512125.02447  21593061.555    21593062.2504   21593068.2484
     -2372.644       -1848.813
  -7044331.120 9  -5458929.27947  22086725.901    22086727.1424   22086732.6784
      -530.054        -413.029
 -13829454.074 9 -10729073.18247  22525465.325    22525465.8304   22525472.1054
      4120.051        3210.429
 -12373941.614 9  -9142102.89048  19300196.345    19300197.1894   19300202.8774
       501.761         390.983
  -2669148.653 8  -2064227.93445  23533723.323    23533723.6984   23533730.6744
     -1409.803       -1098.548
 97  5 15 17  5 29.9960000  0  7  2  4 27 26  9  7 15               -0.003213196
  -4991370.416 9  -3883867.93748  20430322.156    20430322.5924   20430328.2834
       137.924         107.473
 -10314731.473 9  -8007804.95747  22263546.545    22263547.8794   22263554.5584
      4432.555        3453.939
   5857727.607 9   4567693.91647  21606632.044    21606632.7724   21606638.7784
     -2383.347       -1857.154
  -7028243.843 9  -5446393.75147  22089787.276    22089788.4644   22089794.0044
      -544.239        -424.082
 -13952974.620 9 -10825322.94047  22501960.098    22501960.6114   22501966.9154
      4113.007        3204.941
 -12388808.448 9  -9153687.43648  19297367.286    19297368.1344   19297373.8424
       487.579         379.932
  -2626650.243 8  -2031112.32545  23541810.362    23541810.9934   23541817.7844
     -1425.110       -1110.475
 97  5 15 17  5 59.9960000  0  7  2  4 27 26  9  7 15               -0.003232542
  -4995397.406 9  -3887005.86248  20429555.802    20429556.2594   20429561.9974
       129.533         100.935
 -10447638.114 9  -8111368.50547  22238255.357    22238256.5784   22238263.0614
      4426.962        3449.581
   5929383.912 9   4623529.96847  21620267.828    21620268.5784   21620274.6004
     -2394.848       -1866.115
  -7011714.048 9  -5433513.41147  22092932.845    22092933.9714   22092939.4894
      -558.752        -435.391
 -14076263.993 9 -10921392.55847  22478498.802    22478499.3984   22478505.6884
      4105.363        3198.984
 -12403232.056 9  -9164926.61448  19294622.390    19294623.4004   19294629.1334
       473.176         368.709
  -2583671.122 8  -1997622.12945  23549989.029    23549989.5784   23549996.5614
     -1441.067       -1122.909
 97  5 15 17  6 29.9960000  0  7  2  4 27 26  9  7 15               -0.003251855
  -4999182.251 9  -3889955.10148  20428835.551    20428836.0164   20428841.7854
       121.684          94.819
 -10580400.224 9  -8214819.50947  22212991.556    22212992.8164   22212999.1104
      4422.872        3446.394
   6001372.444 9   4679624.87447  21633966.738    21633967.4604   21633973.5864
     -2405.166       -1874.155
  -6994764.034 9  -5420305.62247  22096158.230    22096159.4234   22096164.9564
      -572.184        -445.858
 -14199342.392 9 -11017297.78447  22455077.502    22455078.3444   22455084.6464
      4098.938        3193.978
 -12417252.977 9  -9175852.00748  19291954.518    19291955.3284   19291961.0424
       460.701         358.988
  -2540230.185 8  -1963772.06745  23558255.453    23558256.1464   23558263.0884
     -1455.849       -1134.428
 97  5 15 17  6 59.9960000  0  7  2  4 27 26  9  7 15               -0.003271114
  -5002706.063 9  -3892700.93648  20428164.978    20428165.4554   20428171.2464
       113.412          88.373
 -10713015.982 9  -8318156.33447  22187755.439    22187756.8794   22187763.1274
      4417.907        3442.525
   6073682.822 9   4735970.61147  21647727.016    21647727.7524   21647733.7964
     -2415.498       -1882.206
  -6977388.319 9  -5406766.12247  22099464.650    22099465.9044   22099471.4414
      -586.122        -456.718
 -14322204.310 9 -11113034.31447  22431697.681    22431698.4624   22431704.7244
      4091.723        3188.356
 -12430884.805 9  -9186474.20848  19289360.516    19289361.2784   19289366.9964
       447.802         348.937
  -2496331.768 8  -1929565.54545  23566609.250    23566609.6384   23566616.7284
     -1470.779       -1146.062
 97  5 15 17  7 29.9960000  0  7  2  4 27 26  9  7 15               -0.003290352
  -5006014.757 9  -3895279.14648  20427535.370    20427535.8264   20427541.6264
       105.560          82.255
 -10845500.125 9  -8421390.62047  22162544.446    22162545.8434   22162552.1744
      4412.616        3438.402
   6146270.112 9   4792532.09347  21661539.839    21661540.6594   21661546.7414
     -2425.349       -1889.882
  -6959623.407 9  -5392923.34747  22102845.287    22102846.4704   22102852.0304
      -599.817        -467.390
 -14444866.586 9 -11208615.28947  22408355.802    22408356.5734   22408362.8204
      4084.211        3182.502
 -12444144.909 9  -9196806.75948  19286837.315    19286837.9774   19286843.6914
       434.437         338.522
  -2452005.718 8  -1895025.79245  23575044.222    23575044.6324   23575051.7434
     -1485.958       -1157.889
 97  5 15 17  7 59.9960000  0  7  2  4 27 26  9  7 15               -0.003309563
  -5009084.901 9  -3897671.47348  20426951.193    20426951.6214   20426957.4214
        97.673          76.109
 -10977817.893 9  -8524495.30047  22137365.403    22137366.6794   22137372.8964
      4407.033        3434.052
   6219158.818 9   4849328.44647  21675410.193    21675410.9164   21675417.0214
     -2435.314       -1897.647
  -6941449.401 9  -5378761.79947  22106303.780    22106304.8924   22106310.4624
      -613.284        -477.884
 -14567300.276 9 -11304018.14447  22385057.309    22385058.1554   22385064.3964
      4076.547        3176.530
 -12456994.220 9  -9206819.20948  19284392.163    19284392.8424   19284398.5334
       420.642         327.773
  -2407218.237 8  -1860126.50945  23583567.138    23583567.3564   23583574.5114
     -1501.334       -1169.871
 97  5 15 17  8 29.9960000  0  7  2  4 27 26  9  7 15               -0.003328762
  -5011925.698 9  -3899885.09548  20426410.544    20426411.0604   20426416.8574
        90.977          70.891
 -11109965.360 9  -8627467.24547  22112218.617    22112219.7814   22112225.8864
      4401.987        3430.120
   6292338.418 9   4906351.48647  21689335.747    21689336.5274   21689342.6004
     -2444.053       -1904.457
  -6922870.839 9  -5364285.00747  22109839.139    22109840.2904   22109845.8904
      -626.068        -487.845
 -14689508.581 9 -11399245.36747  22361801.892    22361802.6844   22361808.8944
      4069.906        3171.355
 -12469426.453 9  -9216506.66948  19282026.331    19282027.0944   19282032.7664
       407.508         317.539
  -2361975.389 8  -1824872.39245  23592176.749    23592176.8934   23592183.9544
     -1515.504       -1180.912
 97  5 15 17  8 59.9960000  0  7  2  4 27 26  9  7 15               -0.003347970
  -5014571.620 9  -3901946.85948  20425907.088    20425907.5844   20425913.3684
        86.575          67.461
 -11241956.353 9  -8730317.31447  22087101.243    22087102.6094   22087108.7424
      4398.339        3427.277
   6365781.172 9   4963579.56247  21703311.434    21703312.2474   21703318.3814
     -2451.157       -1909.992
  -6903908.680 9  -5349509.32647  22113447.589    22113448.6924   22113454.2804
      -636.923        -496.304
 -14811520.286 9 -11494319.40247  22338583.708    22338584.6334   22338590.8154
      4065.288        3167.757
 -12481469.604 9  -9225890.94348  19279734.664    19279735.3634   19279741.0254
       396.385         308.871
  -2316311.416 8  -1789290.10645  23600866.213    23600866.5314   23600873.5324
     -1527.731       -1190.440
 97  5 15 17  9 29.9960000  0  7  2  4 27 26  9  7 15               -0.003367170
  -5017001.759 9  -3903840.47948  20425444.654    20425445.1474   20425450.9354
        76.559          59.656
 -11373750.100 9  -8833013.64847  22062021.635    22062022.9994   22062029.0954
      4389.281        3420.219
   6439520.065 9   5021038.41247  21717343.505    21717344.3034   21717350.4804
     -2463.481       -1919.596
  -6884532.944 9  -5334411.35947  22117134.744    22117135.7524   22117141.3744
      -653.488        -509.211
 -14933311.932 9 -11589221.96047  22315407.726    22315408.4424   22315414.5834
      4055.493        3160.124
 -12493099.737 9  -9234953.38148  19277521.514    19277522.2054   19277527.8554
       380.340         296.369
  -2270197.621 8  -1753357.32045  23609641.370    23609641.6684   23609648.7144
     -1545.181       -1204.037
 97  5 15 17  9 59.9960000  0  7  2  4 27 26  9  7 15               -0.003386361
  -5019206.245 9  -3905558.26848  20425025.191    20425025.6524   20425031.4354
        68.076          53.046
 -11505364.927 9  -8935570.54447  22036976.013    22036977.4294   22036983.4924
      4382.663        3415.062
   6513550.526 9   5078724.45747  21731431.070    21731431.9334   21731437.9654
     -2474.161       -1927.918
  -6864743.390 9  -5318990.93847  22120900.465    22120901.6054   22120907.2514
      -667.903        -520.444
 -15054899.227 9 -11683965.29247  22292270.434    22292271.1824   22292277.2404
      4047.965        3154.258
 -12504335.520 9  -9243708.53848  19275383.372    19275384.0854   19275389.7414
       366.569         285.638
  -2223647.229 8  -1717084.33545  23618499.475    23618499.8314   23618507.0064
     -1560.463       -1215.945
 97  5 15 17 10 29.9960000  0  7  2  4 27 26  9  7 15               -0.003405514
  -5021157.374 9  -3907078.64048  20424653.972    20424654.4024   20424660.1944
        62.271          48.523
 -11636778.424 9  -9037970.58347  22011968.906    22011970.2354   22011976.3094
      4378.358        3411.707
   6587902.292 9   5136660.85747  21745579.836    21745580.5214   21745586.7394
     -2482.335       -1934.287
  -6844530.638 9  -5303240.75747  22124746.874    22124747.9354   22124753.5934
      -679.289        -529.316
 -15176261.969 9 -11778533.63647  22269175.813    22269176.6224   22269182.6454
      4042.987        3150.379
 -12515171.224 9  -9252151.94648  19273321.462    19273322.1554   19273327.7764
       356.209         277.565
  -2176647.610 8  -1680461.29545  23627443.220    23627443.6244   23627450.6944
     -1572.678       -1225.463
 97  5 15 17 10 59.9960000  0  7  2  4 27 26  9  7 15               -0.003424621
  -5022866.111 9  -3908410.13148  20424328.795    20424329.2564   20424335.0274
        54.405          42.394
 -11767989.539 9  -9140212.95647  21987000.334    21987001.6274   21987007.5854
      4371.701        3406.520
   6662565.979 9   5194840.32447  21759787.928    21759788.6504   21759794.7624
     -2492.465       -1942.181
  -6823915.690 9  -5287177.18747  22128669.656    22128670.8534   22128676.4794
      -692.119        -539.313
 -15297397.106 9 -11872924.62747  22246124.376    22246125.3744   22246131.3704
      4035.287        3144.379
 -12525627.710 9  -9260299.85848  19271331.552    19271332.3254   19271337.9654
       343.424         267.603
  -2129210.694 8  -1643497.50545  23636469.999    23636470.5414   23636477.6274
     -1587.036       -1236.651
 97  5 15 17 11 29.9960000  0  7  2  4 27 26  9  7 15               -0.003443701
  -5024353.309 9  -3909568.99348  20424045.816    20424046.2384   20424052.0314
        45.696          35.607
 -11899017.976 9  -9242312.97147  21962066.084    21962067.5764   21962073.6034
      4364.445        3400.866
   6737516.439 9   5253243.24347  21774050.546    21774051.2314   21774057.3334
     -2503.368       -1950.676
  -6802944.245 9  -5270835.81047  22132660.597    22132661.5594   22132667.2504
      -704.931        -549.297
 -15418308.009 9 -11967140.89447  22223115.925    22223116.7594   22223122.7584
      4026.383        3137.441
 -12535709.874 9  -9268156.08648  19269412.904    19269413.7264   19269419.3684
       329.612         256.841
  -2081354.069 8  -1606206.64345  23645576.961    23645577.3554   23645584.3084
     -1602.354       -1248.588
 97  5 15 17 11 59.9960000  0  7  2  4 27 26  9  7 15               -0.003462759
  -5025614.475 9  -3910551.73048  20423805.845    20423806.2974   20423812.0834
        39.340          30.655
 -12029853.377 9  -9344262.53247  21937168.852    21937170.3824   21937176.4604
      4358.570        3396.288
   6812768.464 9   5311881.13247  21788370.478    21788371.2374   21788377.3054
     -2512.540       -1957.823
  -6781638.140 9  -5254233.65547  22136714.864    22136715.9224   22136721.6394
      -714.863        -557.036
 -15538987.277 9 -12061176.66547  22200151.432    22200152.2544   22200158.1934
      4019.634        3132.182
 -12545402.817 9  -9275709.03048  19267568.452    19267569.1844   19267574.8504
       317.301         247.248
  -2033073.679 8  -1568585.60445  23654764.619    23654764.9244   23654771.8194
     -1615.583       -1258.896
 97  5 15 17 12 29.9960000  0  7  2  4 27 26  9  7 15               -0.003481793
  -5026645.628 9  -3911355.23448  20423609.632    20423610.1084   20423615.8834
        31.641          24.655
 -12160457.819 9  -9446032.12547  21912315.693    21912317.1024   21912323.1304
      4350.737        3390.185
   6888332.697 9   5370762.32447  21802750.048    21802750.7584   21802756.7944
     -2522.722       -1965.757
  -6759975.073 9  -5237353.36247  22140837.206    22140838.2744   22140844.0194
      -727.394        -566.801
 -15659406.889 9 -12155010.10647  22177236.378    22177237.1604   22177243.0644
      4010.612        3125.152
 -12554675.420 9  -9282934.43548  19265804.038    19265804.6514   19265810.3334
       302.936         236.054
  -1984349.346 8  -1530618.62446  23664036.586    23664036.9594   23664043.7234
     -1630.598       -1270.596
 97  5 15 17 12 59.9960000  0  7  2  4 27 26  9  7 15               -0.003500832
  -5027450.219 9  -3911982.19248  20423456.519    20423457.0094   20423462.7954
        23.095          17.996
 -12290842.491 9  -9547630.46247  21887504.270    21887505.6354   21887511.6424
      4342.826        3384.020
   6964187.074 9   5429869.57247  21817184.677    21817185.3404   21817191.5054
     -2533.128       -1973.866
  -6737934.901 9  -5220179.20247  22145031.272    22145032.3934   22145038.1734
      -740.859        -577.293
 -15779562.153 9 -12248637.55747  22154371.603    22154372.4014   22154378.2634
      4001.038        3117.692
 -12563503.799 9  -9289813.69648  19264124.106    19264124.6784   19264130.3264
       286.851         223.520
  -1935178.784 8  -1492303.90446  23673393.472    23673393.9564   23673400.4664
     -1646.379       -1282.893
 97  5 15 17 13 29.9960000  0  7  2  4 27 26  9  7 15               -0.003519913
  -5028059.002 9  -3912456.57548  20423340.697    20423341.1924   20423346.9514
        16.020          12.483
 -12421051.372 9  -9649091.85447  21862726.208    21862727.6524   21862733.5424
      4336.210        3378.865
   7040291.645 9   5489171.80647  21831667.031    21831667.6084   21831673.7584
     -2541.955       -1980.744
  -6715544.805 9  -5202732.38447  22149291.941    22149293.0814   22149298.8784
      -753.525        -587.162
 -15899503.095 9 -12342098.00647  22131547.645    22131548.3654   22131554.2114
      3993.558        3111.863
 -12571917.536 9  -9296369.85348  19262523.029    19262523.6014   19262529.2274
       272.714         212.504
  -1885598.474 8  -1453669.94046  23682828.364    23682828.7154   23682835.4764
     -1660.480       -1293.880
 97  5 15 17 13 59.9960000  0  7  2  4 27 26  9  7 15               -0.003539019
  -5028447.681 9  -3912759.45348  20423266.757    20423267.2344   20423272.9634
         8.963           6.984
 -12551048.198 9  -9750387.95547  21837988.623    21837989.9764   21837995.9054
      4329.395        3373.555
   7116658.380 9   5548678.29347  21846199.167    21846199.7754   21846205.9814
     -2550.135       -1987.118
  -6692747.769 9  -5184968.47447  22153630.087    22153631.2084   22153637.0584
      -767.283        -597.883
 -16019208.037 9 -12435374.56947  22108768.577    22108769.2644   22108775.0464
      3985.683        3105.727
 -12579904.476 9  -9302593.44748  19261003.145    19261003.7574   19261009.3614
       258.888         201.731
  -1835587.833 8  -1414700.70946  23692345.105    23692345.4314   23692352.2514
     -1674.443       -1304.761
 97  5 15 17 14 29.9960000  0  7  2  4 27 26  9  7 15               -0.003558133
  -5028610.422 9  -3912886.27448  20423235.837    20423236.2894   20423241.9944
         1.489           1.160
 -12680837.081 9  -9851522.08147  21813290.452    21813291.8784   21813297.7594
      4323.019        3368.586
   7193277.442 9   5608381.42046  21860779.260    21860779.8944   21860785.9754
     -2558.136       -1993.353
  -6669523.229 9  -5166871.45447  22158049.510    22158050.6644   22158056.5494
      -780.855        -608.458
 -16138655.438 9 -12528450.43347  22086038.506    22086039.2164   22086044.9194
      3977.323        3099.213
 -12587476.097 9  -9308493.41248  19259562.356    19259562.9684   19259568.5254
       245.792         191.526
  -1785147.468 8  -1375396.60446  23701943.551    23701943.8874   23701950.8044
     -1688.473       -1315.693
 97  5 15 17 14 59.9960000  0  7  2  4 27 26  9  7 15               -0.003577234
  -5028538.986 9  -3912830.62148  20423249.433    20423249.9324   20423255.5894
        -5.339          -4.160
 -12810432.076 9  -9952505.12247  21788629.400    21788630.7434   21788636.6174
      4317.329        3364.152
   7270143.207 9   5668276.76746  21875406.304    21875406.9954   21875413.1204
     -2565.425       -1999.032
  -6645916.753 9  -5148476.81247  22162541.744    22162542.8314   22162548.7294
      -791.896        -617.062
 -16257856.824 9 -12621334.61047  22063355.259    22063355.9264   22063361.6194
      3970.280        3093.725
 -12594667.552 9  -9314097.14348  19258193.879    19258194.4904   19258200.0184
       234.729         182.906
  -1734293.214 8  -1335769.96746  23711620.804    23711621.0784   23711628.0794
     -1701.027       -1325.476
 97  5 15 17 15 29.9960000  0  7  2  4 27 26  9  7 15               -0.003596278
  -5028205.485 9  -3912570.75548  20423312.889    20423313.3774   20423319.0384
       -15.095         -11.762
 -12939787.707 9 -10053301.66347  21764013.940    21764015.2524   21764021.0074
      4308.207        3357.044
   7347287.941 9   5728389.49947  21890086.530    21890087.2814   21890093.3484
     -2575.737       -2007.068
  -6621926.810 9  -5129783.37847  22167106.878    22167107.9754   22167113.8974
      -805.644        -627.774
 -16376777.776 9 -12714000.26147  22040725.067    22040725.9874   22040731.6764
      3959.558        3085.370
 -12601479.903 9  -9319405.46948  19256897.460    19256898.1214   19256903.6284
       221.072         172.264
  -1683006.345 8  -1295806.21646  23721380.257    23721380.7294   23721387.8294
     -1716.331       -1337.401
 97  5 15 17 15 59.9960000  0  7  2  4 27 26  9  7 15               -0.003615262
  -5027611.353 9  -3912107.80248  20423425.955    20423426.4664   20423432.0874
       -24.695         -19.243
 -13068910.127 9 -10153916.46047  21739442.715    21739443.9894   21739449.6954
      4299.875        3350.552
   7424700.460 9   5788710.91146  21904817.823    21904818.4734   21904824.5644
     -2585.350       -2014.558
  -6597567.577 9  -5110802.16747  22171742.334    22171743.4104   22171749.3434
      -818.313        -637.646
 -16495410.214 9 -12806441.10047  22018150.231    22018150.9724   22018156.6254
      3949.073        3077.200
 -12607916.785 9  -9324421.22848  19255672.667    19255673.2264   19255678.7114
       207.789         161.913
  -1631299.790 8  -1255515.42146  23731219.792    23731220.2314   23731227.3154
     -1730.869       -1348.729
 97  5 15 17 16 29.9960000  0  7  2  4 27 26  9  7 15               -0.003634182
  -5026735.832 9  -3911425.58948  20423592.542    20423593.0784   20423598.6994
       -33.775         -26.318
 -13197793.615 9 -10254345.08947  21714916.871    21714918.2064   21714923.9154
      4292.239        3344.602
   7502395.145 9   5849252.18646  21919602.637    21919603.2634   21919609.3384
     -2594.137       -2021.405
  -6572846.653 9  -5091539.13547  22176446.500    22176447.6864   22176453.6194
      -829.745        -646.555
 -16613744.911 9 -12898649.93047  21995631.928    21995632.5994   21995638.2794
      3939.969        3070.106
 -12613963.928 9  -9329133.29248  19254522.031    19254522.5094   19254527.9914
       195.322         152.199
  -1579166.368 8  -1214891.99446  23741140.704    23741141.0274   23741148.0264
     -1744.654       -1359.471
 97  5 15 17 16 59.9960000  0  7  2  4 27 26  9  7 15               -0.003653063
  -5025591.003 9  -3910533.51848  20423810.464    20423810.9434   20423816.5644
       -41.861         -32.619
 -13326443.817 9 -10354591.95447  21690435.679    21690436.9084   21690442.5324
      4284.843        3338.839
   7580348.214 9   5909994.77246  21934436.451    21934437.1554   21934443.4184
     -2602.205       -2027.692
  -6547774.779 9  -5072002.61747  22181217.530    22181218.6904   22181224.6404
      -841.422        -655.654
 -16731814.830 9 -12990652.43547  21973163.790    21973164.6004   21973170.2504
      3931.754        3063.704
 -12619632.361 9  -9333550.25148  19253443.317    19253443.8454   19253449.3084
       182.958         142.565
  -1526625.024 9  -1173950.69146  23751138.974    23751139.2574   23751146.2974
     -1757.629       -1369.581
 97  5 15 17 17 29.9960000  0  7  2  4 27 26  9  7 15               -0.003671926
  -5024193.292 9  -3909444.40248  20424076.490    20424076.9404   20424082.5424
       -50.950         -39.701
 -13454854.024 9 -10454651.80647  21666000.048    21666001.1474   21666006.8164
      4276.370        3332.236
   7658558.266 9   5970937.63546  21949319.364    21949320.0894   21949326.3634
     -2611.364       -2034.829
  -6522320.804 9  -5052168.38547  22186061.352    22186062.4314   22186068.3944
      -855.067        -666.286
 -16849612.109 9 -13082442.50047  21950747.851    21950748.5114   21950754.1664
      3921.872        3056.004
 -12624900.693 9  -9337655.45048  19252440.860    19252441.3394   19252446.7704
       168.624         131.395
  -1473678.525 8  -1132693.72046  23761214.350    23761214.6854   23761221.7774
     -1771.743       -1380.579
 97  5 15 17 17 59.9960000  0  7  2  4 27 26  9  7 15               -0.003690786
  -5022538.909 9  -3908155.27948  20424391.280    20424391.7644   20424397.3644
       -58.986         -45.963
 -13583027.614 9 -10554527.29547  21641609.389    21641610.4924   21641616.1114
      4268.574        3326.162
   7737022.917 9   6032078.86546  21964250.692    21964251.4104   21964257.7884
     -2619.461       -2041.138
  -6496476.837 9  -5032030.25947  22190979.340    22190980.4564   22190986.3874
      -867.535        -676.001
 -16967138.975 9 -13174021.84147  21928383.189    21928383.8334   21928389.5224
      3913.356        3049.368
 -12629758.604 9  -9341440.83748  19251516.507    19251516.9024   19251522.3484
       155.508         121.175
  -1420328.784 9  -1091122.50646  23771366.354    23771366.8884   23771373.8544
     -1784.724       -1390.694
 97  5 15 17 18 29.9960000  0  7  2  4 27 26  9  7 15               -0.003709649
  -5020647.113 9  -3906681.16148  20424751.312    20424751.7814   20424757.3804
       -67.533         -52.623
 -13710952.561 9 -10654209.05247  21617266.155    21617267.2554   21617272.7514
      4259.369        3318.989
   7815739.130 9   6093416.12346  21979230.005    21979230.6724   21979236.9764
     -2628.657       -2048.304
  -6470258.583 9  -5011600.46347  22195968.430    22195969.6424   22195975.5724
      -880.724        -686.278
 -17084406.641 9 -13265399.21547  21906067.716    21906068.5004   21906074.1734
      3904.045        3042.113
 -12634218.162 9  -9344915.82348  19250667.876    19250668.2984   19250673.7334
       141.489         110.251
  -1366584.607 8  -1049243.97646  23781593.434    23781594.0464   23781601.1304
     -1798.644       -1401.541
 97  5 15 17 18 59.9960000  0  7  2  4 27 26  9  7 15               -0.003728519
  -5018527.906 9  -3905029.83948  20425154.597    20425155.0474   20425160.6534
       -74.729         -58.230
 -13838621.454 9 -10753691.26447  21592971.452    21592972.5824   21592978.1404
      4250.877        3312.372
   7894718.275 9   6154958.28146  21994259.412    21994259.9554   21994266.3064
     -2637.719       -2055.365
  -6443669.189 9  -4990881.48147  22201028.294    22201029.4274   22201035.3624
      -892.828        -695.710
 -17201408.320 9 -13356569.32647  21883803.140    21883803.8184   21883809.4764
      3894.829        3034.932
 -12638275.967 9  -9348077.75448  19249895.672    19249896.1284   19249901.5954
       128.017          99.754
  -1312441.704 8  -1007054.75046  23791896.408    23791897.0804   23791904.2484
     -1811.852       -1411.833
 97  5 15 17 19 29.9960000  0  6  2  4 27 26  9  7                  -0.003747387
  -5016180.732 9  -3903200.88448  20425601.238    20425601.6974   20425607.3194
       -83.853         -65.340
 -13966036.956 9 -10852976.04347  21568724.936    21568726.1234   21568731.7204
      4241.362        3304.957
   7973969.196 9   6216712.19046  22009340.197    22009340.8404   22009347.4214
     -2647.777       -2063.203
  -6416725.951 9  -4969886.78847  22206155.308    22206156.5184   22206162.4704
      -905.509        -705.591
 -17318123.111 9 -13447515.89047  21861592.950    21861593.7444   21861599.3744
      3884.173        3026.628
 -12641927.230 9  -9350922.90148  19249200.794    19249201.3234   19249206.7874
       113.526          88.462
 97  5 15 17 19 59.9960000  0  6  2  4 27 26  9  7                  -0.003766247
  -5013603.192 9  -3901192.42448  20426091.707    20426092.1914   20426097.8094
       -89.653         -69.859
 -14093200.284 9 -10952064.30847  21544526.391    21544527.6974   21544533.3394
      4234.370        3299.509
   8053484.474 9   6278672.10346  22024471.417    22024472.0864   22024478.5954
     -2655.180       -2068.971
  -6389440.839 9  -4948625.68447  22211347.402    22211348.6574   22211354.6464
      -915.280        -713.205
 -17434566.192 9 -13538250.73747  21839434.588    21839435.3294   21839440.9664
      3876.911        3020.970
 -12645195.625 9  -9353469.70648  19248578.923    19248579.3754   19248584.8304
       102.607          79.954
 97  5 15 17 20 29.9960000  0  6  2  4 27 26  9  7                  -0.003785091
  -5010795.348 9  -3899004.50848  20426626.023    20426626.4904   20426632.1504
       -98.303         -76.600
 -14220097.932 9 -11050945.55947  21520378.511    21520379.8304   21520385.5144
      4225.090        3292.278
   8133284.904 9   6340854.20246  22039656.911    22039657.6694   22039664.1684
     -2665.377       -2076.917
  -6361795.846 9  -4927084.16647  22216608.078    22216609.3154   22216615.3304
      -928.350        -723.390
 -17550734.929 9 -13628771.81447  21817328.395    21817329.1034   21817334.7064
      3866.985        3013.235
 -12648082.473 9  -9355719.20348  19248029.579    19248030.0244   19248035.5144
        89.388          69.653
 97  5 15 17 20 59.9960000  0  6  2  4 27 26  9  7                  -0.003803910
  -5007757.246 9  -3896637.15848  20427204.178    20427204.6344   20427210.2834
      -105.768         -82.417
 -14346760.215 9 -11149643.42047  21496275.338    21496276.6984   21496282.4164
      4217.534        3286.390
   8213345.098 9   6403238.72246  22054891.960    22054892.7034   22054899.2444
     -2673.405       -2083.173
  -6333798.410 9  -4905268.00347  22221935.788    22221937.0884   22221943.1384
      -939.594        -732.151
 -17666635.808 9 -13719084.16447  21795273.125    21795273.7994   21795279.4224
      3858.208        3006.396
 -12650616.340 9  -9357693.64348  19247547.316    19247547.8284   19247553.3074
        78.094          60.852
 97  5 15 17 21 29.9960000  0  6  2  4 27 26  9  7                  -0.003822687
  -5004466.049 9  -3894072.60548  20427830.494    20427830.9604   20427836.6334
      -114.450         -89.182
 -14473177.296 9 -11248150.23147  21472218.920    21472220.3394   21472226.0704
      4209.384        3280.039
   8293654.073 9   6465817.07046  22070174.237    22070174.9894   22070181.5844
     -2681.490       -2089.473
  -6305446.618 9  -4883175.73047  22227330.983    22227332.2654   22227338.3274
      -951.429        -741.373
 -17782259.266 9 -13809180.34447  21773270.733    21773271.3394   21773276.9494
      3849.309        2999.462
 -12652804.010 9  -9359398.32548  19247130.980    19247131.5124   19247136.9914
        66.857          52.096
 97  5 15 17 21 59.9960000  0  6  2  4 27 26  9  7                  -0.003841430
  -5000936.887 9  -3891322.61848  20428502.105    20428502.5674   20428508.2394
      -122.712         -95.620
 -14599364.183 9 -11346477.62047  21448206.191    21448207.6824   21448213.5254
      4201.337        3273.769
   8374198.418 9   6528578.85346  22085501.479    22085502.2084   22085508.7204
     -2689.915       -2096.038
  -6276757.877 9  -4860820.91047  22232790.400    22232791.6164   22232797.6634
      -962.770        -750.210
 -17897632.451 9 -13899081.51247  21751315.863    21751316.5964   21751322.1694
      3840.286        2992.431
 -12654673.012 9  -9360854.69748  19246775.359    19246775.8384   19246781.3394
        55.682          43.389
 97  5 15 17 22 29.9960000  0  6  2  4 27 26  9  7                  -0.003860117
  -4997134.764 9  -3888359.93648  20429225.669    20429226.1244   20429231.7884
      -130.598        -101.765
 -14725299.048 9 -11444608.66647  21424241.657    21424243.0614   21424248.8724
      4194.444        3268.398
   8455008.802 9   6591547.94046  22100879.262    22100879.9744   22100886.4624
     -2697.155       -2101.679
  -6247724.079 9  -4838197.21347  22238315.460    22238316.6264   22238322.6224
      -972.463        -757.763
 -18012707.637 9 -13988750.47847  21729417.920    21729418.5444   21729424.0834
      3831.427        2985.528
 -12656181.990 9  -9362030.52748  19246488.257    19246488.7044   19246494.2044
        44.996          35.062
 97  5 15 17 22 59.9960000  0  6  2  4 27 26  9  7                  -0.003878748
  -4993058.589 9  -3885183.70848  20430001.359    20430001.7984   20430007.4764
      -140.072        -109.147
 -14850980.792 9 -11542542.47847  21400325.069    21400326.5824   21400332.4324
      4185.125        3261.136
   8536074.934 9   6654716.29046  22116305.436    22116306.2234   22116312.7864
     -2706.405       -2108.887
  -6218374.245 9  -4815327.24647  22243900.540    22243901.7554   22243907.7194
      -983.314        -766.219
 -18127470.811 9 -14078176.30647  21707579.122    21707579.8684   21707585.4144
      3820.505        2977.017
 -12657324.414 9  -9362920.73248  19246270.868    19246271.2894   19246276.8094
        31.918          24.871
 97  5 15 17 23 29.9960000  0  6  2  4 27 26  9  7                  -0.003897353
  -4988731.877 9  -3881812.25448  20430824.689    20430825.1384   20430830.8294
      -147.224        -114.720
 -14976408.685 9 -11640278.46147  21376456.791    21376458.3324   21376464.2734
      4177.603        3255.275
   8617393.589 9   6718081.40446  22131779.912    22131780.7264   22131787.2884
     -2713.823       -2114.667
  -6188722.151 9  -4792221.75647  22249543.206    22249544.3894   22249550.3744
      -992.596        -773.451
 -18241942.215 9 -14167374.78147  21685795.841    21685796.7114   21685802.2474
      3811.933        2970.337
 -12658098.173 9  -9363523.66648  19246123.583    19246124.0714   19246129.5954
        20.486          15.963
 97  5 15 17 23 59.9960000  0  6  2  4 27 26  9  7                  -0.003915956
  -4984173.402 9  -3878260.20648  20431692.159    20431692.5744   20431698.2704
      -154.399        -120.311
 -15101572.320 9 -11737808.54747  21352639.108    21352640.5144   21352646.4154
      4168.707        3248.343
   8698962.524 9   6781641.57146  22147302.118    22147302.8594   22147309.3544
     -2721.616       -2120.740
  -6158755.518 9  -4768871.18847  22255245.596    22255246.8484   22255252.8264
     -1002.887        -781.470
 -18356116.133 9 -14256341.45047  21664069.365    21664070.1334   21664075.6594
      3801.903        2962.522
 -12658484.909 9  -9363825.02448  19246049.917    19246050.4774   19246055.9954
         7.507           5.850
 97  5 15 17 24 29.9960000  0  6  2  4 27 26  9  7                  -0.003934580
  -4979392.145 9  -3874534.56048  20432602.005    20432602.4324   20432608.1474
      -163.699        -127.558
 -15226449.179 9 -11835115.14547  21328876.044    21328877.2344   21328883.1204
      4156.919        3239.158
   8780757.678 9   6845377.97746  22162867.261    22162867.9434   22162874.4594
     -2730.558       -2127.707
  -6128465.885 9  -4745268.92847  22261009.547    22261010.7854   22261016.7394
     -1015.802        -791.534
 -18469984.418 9 -14345069.95047  21642401.001    21642401.7184   21642407.2534
      3790.035        2953.274
 -12658472.433 9  -9363815.29848  19246052.368    19246052.8704   19246058.3884
        -7.537          -5.873
 97  5 15 17 24 59.9960000  0  6  2  4 27 26  9  7                  -0.003953236
  -4974384.598 9  -3870632.58548  20433554.847    20433555.3134   20433561.0694
      -170.977        -133.229
 -15351021.596 9 -11932184.54647  21305170.611    21305171.8704   21305177.7614
      4147.065        3231.479
   8862751.585 9   6909269.28246  22178470.216    22178470.8934   22178477.3774
     -2736.394       -2132.255
  -6097839.855 9  -4721404.54247  22266837.505    22266838.7404   22266844.7084
     -1026.830        -800.127
 -18583554.500 9 -14433566.09247  21620789.269    21620790.0384   21620795.5794
      3780.445        2945.801
 -12658069.022 9  -9363500.95748  19246129.237    19246129.6524   19246135.1644
       -20.113         -15.672
 97  5 15 17 25 29.9960000  0  6  2  4 27 26  9  7                  -0.003971932
  -4969163.613 9  -3866564.28848  20434548.368    20434548.8124   20434554.6134
      -178.811        -139.333
 -15475303.801 9 -12029027.78547  21281520.539    21281521.7664   21281527.6044
      4136.709        3223.410
   8944901.806 9   6973282.36646  22194102.910    22194103.5904   22194110.2274
     -2741.956       -2136.589
  -6066887.022 9  -4697285.50747  22272727.781    22272728.9034   22272734.8764
     -1038.091        -808.902
 -18696838.777 9 -14521839.52947  21599232.033    21599232.7364   21599238.2704
      3770.187        2937.808
 -12657300.821 9  -9362902.35648  19246275.501    19246275.8664   19246281.3774
       -32.702         -25.482
 97  5 15 17 25 59.9960000  0  7  2  4 27 26  9  7 24               -0.003990649
  -4963706.692 9  -3862312.15748  20435586.781    20435587.2164   20435593.0634
      -184.766        -143.974
 -15599278.055 9 -12125631.08647  21257928.752    21257930.1434   21257936.0374
      4128.683        3217.156
   9027216.146 9   7037423.35046  22209766.855    22209767.5504   22209774.1724
     -2745.525       -2139.370
  -6035608.871 9  -4672912.98147  22278679.710    22278680.9304   22278686.9234
     -1046.652        -815.573
 -18809818.815 9 -14609875.90947  21577732.716    21577733.3584   21577738.8714
      3762.266        2931.636
 -12656165.977 9  -9362018.06948  19246491.417    19246491.8294   19246497.3224
       -42.438         -33.069
   -415214.12218   -309911.18354  23373420.923           0.0005          0.0005
      4611.655        3593.497
 97  5 15 17 26 29.9960000  0  7  2  4 27 26  9  7 24               -0.004009374
  -4958010.957 9  -3857873.93048  20436670.632    20436671.0794   20436676.9374
      -193.722        -150.952
 -15722974.891 9 -12222018.21247  21234390.132    21234391.4874   21234397.3104
      4119.187        3209.756
   9109688.652 9   7101687.58446  22225460.859    22225461.5574   22225468.2794
     -2751.514       -2144.037
  -6004041.414 9  -4648315.00947  22284686.830    22284688.0734   22284694.0424
     -1056.543        -823.280
 -18922522.628 9 -14697697.03447  21556285.852    21556286.5664   21556292.0444
      3752.660        2924.151
 -12654704.352 9  -9360879.14848  19246769.522    19246769.9234   19246775.4284
       -53.523         -41.706
   -553547.963 8    -85470.73152  23347096.728           0.0005          0.0005
      4611.737        3593.561
 97  5 15 17 26 59.9950000  0  7  2  4 27 26  9  7 24               -0.004028052
  -4952026.075 9  -3853210.40048  20437809.541    20437809.9674   20437815.8434
      -203.899        -158.882
 -15846374.839 9 -12318173.98947  21210907.729    21210909.2064   21210915.0144
      4108.980        3201.803
   9192370.539 9   7166114.95646  22241194.753    22241195.4534   22241202.1224
     -2759.765       -2150.466
  -5972167.905 9  -4623478.59047  22290752.222    22290753.4284   22290759.4264
     -1067.180        -831.569
 -19034915.668 9 -14785276.00347  21534898.145    21534898.8684   21534904.3564
      3741.667        2915.585
 -12652901.067 9  -9359473.99448  19247112.592    19247113.0364   19247118.5364
       -65.413         -50.971
   -691861.127 8   -193246.53655  23320774.831           0.0004          0.0005
      4610.757        3592.798
 97  5 15 17 27 29.9950000  0  7  2  4 27 26  9  7 24               -0.004046667
  -4945757.452 9  -3848325.77048  20439002.441    20439002.8494   20439008.7414
      -213.847        -166.634
 -15969483.156 9 -12414102.52047  21187480.989    21187482.4694   21187488.2384
      4098.493        3193.631
   9275312.640 9   7230745.05846  22256978.166    22256978.9304   22256985.5154
     -2769.463       -2158.023
  -5939991.447 9  -4598406.11047  22296875.258    22296876.4654   22296882.4824
     -1077.627        -839.709
 -19147001.347 9 -14872615.48147  21513568.913    21513569.6414   21513575.1064
      3730.996        2907.270
 -12650760.105 9  -9357805.71448  19247519.899    19247520.4374   19247525.9444
       -77.279         -60.217
   -830179.701 8   -301027.33355  23294453.318           0.0004   23294461.3685
      4610.384        3592.507
 97  5 15 17 27 59.9950000  0  7  2  4 27 26  9  7 24               -0.004065173
  -4939205.418 9  -3843220.29648  20440249.232    20440249.6904   20440255.5824
      -223.218        -173.936
 -16092298.700 9 -12509802.91947  21164109.996    21164111.4764   21164117.1994
      4088.891        3186.149
   9358538.687 9   7295596.37246  22272815.630    22272816.3594   22272823.0164
     -2779.088       -2165.523
  -5907514.834 9  -4573099.70947  22303055.387    22303056.6434   22303062.6654
     -1087.888        -847.705
 -19258784.054 9 -14959718.86447  21492297.435    21492298.0794   21492303.5854
      3720.667        2899.221
 -12648275.353 9  -9355869.54548  19247992.708    19247993.3094   19247998.7874
       -88.777         -69.177
   -968500.026 8   -408809.35545  23268131.454    23268132.0855   23268140.8574
      4610.430        3592.543
 97  5 15 17 28 29.9950000  0  7  2  4 27 26  9  7 24               -0.004083662
  -4932375.342 9  -3837898.17748  20441549.002    20441549.4274   20441555.2994
      -232.654        -181.289
 -16214818.872 9 -12605273.16347  21140795.252    21140796.6634   21140802.4444
      4078.318        3177.910
   9442042.751 9   7360664.33746  22288705.873    22288706.6804   22288713.3854
     -2788.475       -2172.838
  -5874734.015 9  -4547556.27347  22309293.320    22309294.6834   22309300.6694
     -1098.348        -855.856
 -19370244.776 9 -15046571.35647  21471087.187    21471087.8124   21471093.3074
      3709.227        2890.307
 -12645438.259 9  -9353658.83048  19248532.632    19248533.2284   19248538.6884
      -101.115         -78.791
  -1106825.642 8   -516595.50755  23241809.541    23241809.6464   23241819.0075
      4610.320        3592.457
 97  5 15 17 28 59.9950000  0  7  2  4 27 26  9  7 24               -0.004102112
  -4925288.095 9  -3832375.66048  20442897.667    20442898.1214   20442903.9914
      -240.359        -187.293
 -16337026.788 9 -12700500.06847  21117539.854    21117541.2444   21117546.9924
      4068.142        3169.981
   9525810.500 9   7425937.68946  22304646.406    22304647.3274   22304654.0724
     -2796.596       -2179.166
  -5841641.533 9  -4521769.98647  22315590.838    22315592.0144   22315598.0444
     -1108.425        -863.708
 -19481365.292 9 -15133158.74847  21449941.558    21449942.2424   21449947.7674
      3698.134        2881.663
 -12642242.052 9  -9351168.28448  19249140.959    19249141.4654   19249146.9144
      -112.735         -87.845
  -1245159.850 9   -624388.30145  23215485.203    23215486.5225   23215494.5064
      4611.136        3593.093
 97  5 15 17 29 29.9950000  0  7  2  4 27 26  9  7 24               -0.004120548
  -4917971.933 9  -3826674.76648  20444289.904    20444290.3614   20444296.2184
      -248.157        -193.369
 -16458925.481 9 -12795486.03647  21094343.229    21094344.6384   21094350.4294
      4057.805        3161.926
   9609809.378 9   7491391.23146  22320631.237    22320631.9354   22320638.5674
     -2803.788       -2184.770
  -5808242.796 9  -4495745.06847  22321946.473    22321947.6854   22321953.7224
     -1118.878        -871.853
 -19592148.823 9 -15219483.55847  21428860.265    21428860.8144   21428866.3244
      3686.724        2872.772
 -12638691.129 9  -9348401.33648  19249816.685    19249817.1634   19249822.6024
      -124.811         -97.255
  -1383509.893 8   -732193.50545  23189158.289    23189159.0644   23189167.9604
      4611.249        3593.181
 97  5 15 17 29 59.9950000  0  7  2  4 27 26  9  7 24               -0.004138983
  -4910427.255 9  -3820795.81648  20445725.623    20445726.0674   20445731.9024
      -255.974        -199.460
 -16580523.128 9 -12890237.44847  21071203.990    21071205.4264   21071211.1654
      4047.470        3153.873
   9693993.944 9   7556989.35046  22336651.278    22336651.9064   22336658.5974
     -2809.645       -2189.334
  -5774534.417 9  -4469478.89947  22328361.119    22328362.1894   22328368.2644
     -1129.520        -880.145
 -19702586.249 9 -15305538.67147  21407844.677    21407845.2684   21407850.7754
      3674.640        2863.356
 -12634783.215 9  -9345356.21348  19250560.469    19250560.8344   19250566.2574
      -136.807        -106.603
  -1521863.960 8   -840001.81345  23162830.135    23162831.1854   23162840.2124
      4610.950        3592.948
 97  5 15 17 30 29.9950000  0  7  2  4 27 26  9  7 24               -0.004157414
  -4902647.148 9  -3814733.40748  20447206.113    20447206.5914   20447212.4214
      -262.462        -204.516
 -16701797.975 9 -12984737.29347  21048126.085    21048127.5444   21048133.2694
      4037.888        3146.406
   9778349.839 9   7622721.01446  22352703.853    22352704.4764   22352711.2574
     -2813.930       -2192.673
  -5740506.413 9  -4442963.65547  22334836.388    22334837.5474   22334843.6534
     -1138.815        -887.388
 -19812665.779 9 -15391314.91147  21386897.317    21386897.7744   21386903.2644
      3664.400        2855.377
 -12630516.589 9  -9342031.57348  19251372.361    19251372.7584   19251378.2024
      -147.247        -114.738
  -1660203.621 9   -947798.85745  23136505.076    23136505.8684   23136514.9024
      4611.649        3593.493
 97  5 15 17 30 59.9950000  0  7  2  4 27 26  9  7 24               -0.004175850
  -4894642.373 9  -3808495.93348  20448729.411    20448729.8664   20448735.7034
      -270.983        -211.156
 -16822769.477 9 -13079000.77647  21025105.870    21025107.3954   21025113.1934
      4027.161        3138.048
   9862859.026 9   7688572.16946  22368785.538    22368786.1994   22368792.9644
     -2819.781       -2197.232
  -5706169.687 9  -4416207.85447  22341370.518    22341371.7044   22341377.8144
     -1149.870        -896.003
 -19922417.082 9 -15476835.39447  21366012.157    21366012.7714   21366018.2814
      3652.688        2846.250
 -12625920.400 9  -9338450.13448  19252246.890    19252247.4194   19252252.8564
      -158.981        -123.881
  -1798530.052 8  -1055585.64145  23110182.349    23110183.2354   23110192.2184
      4610.248        3592.401
 97  5 15 17 31 29.9950000  0  7  2  4 27 26  9  7 24               -0.004194277
  -4886378.151 9  -3802056.29448  20450302.107    20450302.5204   20450308.3494
      -278.903        -217.327
 -16943424.166 9 -13173017.40847  21002146.076    21002147.5504   21002153.3204
      4017.476        3130.501
   9947537.598 8   7754555.31546  22384899.463    22384900.0834   22384906.8754
     -2824.491       -2200.902
  -5671517.662 9  -4389206.37147  22347964.655    22347965.8384   22347971.9544
     -1159.271        -903.328
 -20031825.766 9 -15562088.89647  21345192.395    21345192.9714   21345198.5024
      3642.323        2838.174
 -12620967.352 9  -9334590.62548  19253189.432    19253189.9904   19253195.4224
      -170.069        -132.521
  -1936815.985 8  -1163340.84846  23083867.291    23083868.3104   23083877.4844
      4609.830        3592.075
 97  5 15 17 31 59.9950000  0  7  2  4 27 26  9  7 24               -0.004212705
  -4877850.948 9  -3795411.73048  20451924.817    20451925.2174   20451931.0314
      -289.824        -225.837
 -17063757.655 9 -13266783.72647  20979247.455    20979248.8034   20979254.6114
      4004.532        3120.415
  10032384.479 8   7820669.65046  22401045.260    22401046.0294   22401052.8244
     -2832.293       -2206.982
  -5636563.245 9  -4361969.24147  22354616.403    22354617.5244   22354623.6574
     -1171.032        -912.492
 -20140903.095 9 -15647084.19447  21324435.513    21324436.2404   21324441.7864
      3629.482        2828.168
 -12615657.438 9  -9330453.03248  19254199.835    19254200.4434   19254205.8764
      -184.017        -143.390
  -2075065.353 9  -1271067.59245  23057559.356    23057560.1714   23057569.1624
      4606.556        3589.524
 97  5 15 17 32 29.9950000  0  7  2  4 27 26  9  7 24               -0.004231127
  -4869046.209 9  -3788550.90948  20453600.292    20453600.7174   20453606.4884
      -296.603        -231.119
 -17183747.927 9 -13360282.61347  20956413.985    20956415.3864   20956421.2354
      3995.591        3113.448
  10117423.807 9   7886933.99946  22417227.902    22417228.7054   22417235.4514
     -2836.464       -2210.232
  -5601315.946 9  -4334503.90147  22361323.814    22361324.9464   22361331.1014
     -1178.104        -918.003
 -20249653.784 9 -15731824.97647  21303741.035    21303741.6674   21303747.2314
      3621.067        2821.611
 -12609985.182 9  -9326033.10148  19255279.184    19255279.8274   19255285.2764
      -193.516        -150.792
  -2213264.652 9  -1378755.24245  23031260.799    23031261.7754   23031270.6784
      4607.270        3590.081
 97  5 15 17 32 59.9950000  0  7  2  4 27 26  9  7 24               -0.004249532
  -4859963.097 9  -3781473.16448  20455328.767    20455329.1724   20455334.9464
      -307.398        -239.531
 -17303411.782 9 -13453527.16347  20933642.738    20933644.0824   20933649.9654
      3983.231        3103.816
  10202661.798 8   7953352.99846  22433448.151    22433448.9004   22433455.8954
     -2844.479       -2216.477
  -5565798.088 9  -4306827.72947  22368082.676    22368083.7964   22368089.9924
     -1188.190        -925.862
 -20358077.641 9 -15816311.08247  21283108.660    21283109.2744   21283114.8454
      3608.598        2811.895
 -12603960.852 9  -9321338.82248  19256425.702    19256426.1774   19256431.6204
      -206.802        -161.144
  -2351417.816 8  -1486407.05745  23004971.188    23004972.1114   23004980.8604
      4604.486        3587.911
 97  5 15 17 33 29.9950000  0  7  2  4 27 26  9  7 24               -0.004267936
  -4850608.817 9  -3774184.12948  20457108.750    20457109.2584   20457115.0334
      -314.764        -245.271
 -17422740.415 9 -13546510.49247  20910935.283    20910936.5664   20910942.5044
      3973.404        3096.159
  10288099.238 9   8019927.57746  22449706.429    22449707.2394   22449714.2844
     -2849.911       -2220.710
  -5530029.590 9  -4278956.24047  22374889.246    22374890.3964   22374896.6214
     -1195.043        -931.202
 -20466177.659 9 -15900544.84547  21262537.897    21262538.5204   21262544.0844
      3599.437        2804.756
 -12597578.231 9  -9316365.35948  19257640.281    19257640.7514   19257646.1884
      -217.094        -169.164
  -2489547.250 9  -1594040.28645  22978686.194    22978686.9104   22978695.5904
      4605.339        3588.576
 97  5 15 17 33 59.9950000  0  7  2  4 27 26  9  7 24               -0.004286338
  -4841012.147 9  -3766706.21248  20458935.031    20458935.4564   20458941.2514
      -324.898        -253.167
 -17541751.630 9 -13639246.46847  20888288.135    20888289.4684   20888295.3764
      3960.898        3086.414
  10373720.403 9   8086645.27446  22465999.921    22466000.5454   22466007.5074
     -2858.148       -2227.128
  -5494030.200 9  -4250904.87247  22381739.813    22381740.9504   22381747.1524
     -1204.729        -938.750
 -20573975.483 9 -15984543.13447  21242024.716    21242025.2724   21242030.8144
      3587.155        2795.186
 -12590884.559 9  -9311149.51948  19258913.995    19258914.5114   19258919.9574
      -228.982        -178.428
  -2627679.756 9  -1701675.94746  22952400.464    22952401.2544   22952409.8474
      4603.569        3587.197
 97  5 15 17 34 29.9950000  0  7  2  4 27 26  9  7 24               -0.004304694
  -4831148.343 9  -3759020.14948  20460812.070    20460812.4994   20460818.2834
      -332.386        -259.002
 -17660420.992 9 -13731716.09047  20865706.051    20865707.4404   20865713.3444
      3950.748        3078.505
  10459566.302 9   8153538.04446  22482336.024    22482336.6234   22482343.6684
     -2864.417       -2232.013
  -5457764.024 9  -4222645.61147  22388641.291    22388642.2384   22388648.4254
     -1212.733        -944.987
 -20681422.541 9 -16068268.10047  21221578.092    21221578.7614   21221584.3124
      3576.190        2786.642
 -12583871.320 9  -9305684.66748  19260248.516    19260249.0604   19260254.5024
      -238.309        -185.695
  -2765792.396 9  -1809296.14645  22926118.558    22926119.2124   22926127.8974
      4604.129        3587.633
 97  5 15 17 34 59.9950000  0  7  2  4 27 26  9  7 24               -0.004322995
  -4821020.715 9  -3751128.50648  20462739.293    20462739.7234   20462745.4874
      -343.052        -267.313
 -17778749.896 9 -13823920.39247  20843188.776    20843190.1554   20843196.0964
      3937.272        3068.004
  10545625.130 8   8220596.82546  22498712.756    22498713.2964   22498720.1174
     -2873.201       -2238.858
  -5421218.105 9  -4194168.38147  22395595.624    22395596.7474   22395602.9484
     -1223.946        -953.724
 -20788499.409 9 -16151704.60948  21201202.057    21201202.7124   21201208.2384
      3561.850        2775.468
 -12576544.724 9  -9299975.64048  19261642.734    19261643.2754   19261648.7204
      -250.570        -195.249
  -2903890.902 9  -1916905.29645  22899839.449    22899840.0214   22899848.6164
      4601.913        3585.906
 97  5 15 17 35 29.9950000  0  8  5  2  4 27 26  9  7 24            -0.004341253
  -1937924.10919  -1232962.54256  23905252.668    23905253.4975   23905260.9235
      3716.259        2895.786
  -4810637.757 9  -3743037.90448  20464715.102    20464715.5064   20464721.2774
      -349.437        -272.288
 -17896724.865 9 -13915848.92847  20820738.980    20820740.3114   20820746.1764
      3927.591        3060.461
  10631884.730 9   8287811.94946  22515127.498    22515128.0074   22515134.8704
     -2877.577       -2242.268
  -5384392.263 9  -4165473.01047  22402603.421    22402604.5614   22402610.7514
     -1231.327        -959.476
 -20895199.865 9 -16234847.80747  21180897.620    21180898.2574   21180903.7834
      3551.223        2767.187
 -12568910.919 9  -9294027.23248  19263095.529    19263095.9374   19263101.3794
      -258.453        -201.392
  -3041973.888 9  -2024502.42446  22873562.872    22873563.7934   22873572.1904
      4602.975        3586.734
 97  5 15 17 35 59.9950000  0  8  5  2  4 27 26  9  7 24            -0.004359455
  -2049397.799 9  -1319825.12046  23884039.880    23884040.7814   23884048.2414
      3714.550        2894.455
  -4800010.859 9  -3734757.21548  20466737.348    20466737.7504   20466743.5384
      -359.787        -280.353
 -18014367.785 9 -14007518.69147  20798352.164    20798353.5694   20798359.4324
      3914.483        3050.246
  10718313.211 9   8355158.78146  22531574.498    22531575.0084   22531581.7644
     -2885.065       -2248.102
  -5347293.477 9  -4136564.94747  22409663.125    22409664.2694   22409670.5124
     -1242.529        -968.204
 -21001526.175 9 -16317699.47147  21160664.442    21160665.0184   21160670.5384
      3536.447        2755.673
 -12560997.550 9  -9287860.98648  19264601.386    19264601.7854   19264607.2484
      -270.188        -210.536
  -3180029.925 9  -2132078.47746  22847291.136    22847292.4674   22847300.6734
      4599.753        3584.223
 97  5 15 17 36 29.9950000  0  8  5  2  4 27 26  9  7 24            -0.004377622
  -2160873.715 9  -1406689.45146  23862826.645    23862827.5804   23862835.0594
      3715.274        2895.019
  -4789130.834 9  -3726279.28948  20468807.800    20468808.1464   20468813.9674
      -367.507        -286.369
 -18131669.816 9 -14098922.85747  20776030.345    20776031.7144   20776037.5294
      3903.600        3041.766
  10804901.188 8   8422629.77146  22548051.848    22548052.2864   22548059.0994
     -2889.170       -2251.301
  -5309925.047 9  -4107446.78347  22416774.348    22416775.3364   22416781.5884
     -1250.570        -974.470
 -21107465.687 9 -16400249.72948  21140504.822    21140505.4104   21140510.8964
      3524.333        2746.234
 -12552764.944 9  -9281445.97648  19266168.061    19266168.4104   19266173.8854
      -280.596        -218.646
  -3318036.833 9  -2239616.19346  22821029.478    22821030.4704   22821038.8734
      4598.509        3583.254
 97  5 15 17 36 59.9950000  0  8  5  2  4 27 26  9  7 24            -0.004395804
  -2272372.538 9  -1493571.58046  23841609.475    23841610.0074   23841617.4524
      3717.132        2896.466
  -4778026.558 9  -3717626.62748  20470920.873    20470921.2224   20470927.0754
      -373.521        -291.055
 -18248651.830 9 -14190077.66147  20753769.454    20753770.7684   20753776.5904
      3894.454        3034.639
  10891595.580 9   8490183.67146  22564549.092    22564549.5214   22564556.7534
     -2891.328       -2252.983
  -5272334.861 9  -4078155.81747  22423927.453    22423928.5414   22423934.8364
     -1256.204        -978.860
 -21213057.888 9 -16482529.35848  21120411.275    21120411.8814   21120417.3404
      3514.329        2738.438
 -12544225.120 9  -9274791.58148  19267793.002    19267793.4794   19267798.9544
      -289.613        -225.672
  -3456005.696 9  -2347124.43346  22794774.731    22794775.7824   22794784.0744
      4598.440        3583.200
 97  5 15 17 37 29.9950000  0  8  5  2  4 27 26  9  7 24            -0.004413994
  -2383847.262 9  -1580434.95346  23820396.864    23820397.0624   23820404.5684
      3715.296        2895.036
  -4766667.783 9  -3708775.64948  20473082.301    20473082.6874   20473088.5794
      -382.964        -298.413
 -18365281.006 9 -14280957.51047  20731575.645    20731576.9224   20731582.7564
      3881.630        3024.647
  10978440.263 8   8557854.76246  22581075.168    22581075.7384   22581082.8014
     -2897.400       -2257.714
  -5234495.151 9  -4048670.40747  22431127.942    22431129.2274   22431135.5634
     -1265.765        -986.310
 -21318272.633 9 -16564514.86448  21100389.583    21100390.1414   21100395.6394
      3500.877        2727.956
 -12535320.636 9  -9267853.03348  19269487.559    19269487.9764   19269493.4744
      -303.210        -236.268
  -3593885.048 9  -2454562.78346  22768536.940    22768538.0974   22768546.6354
      4594.147        3579.855
 97  5 15 17 37 59.9950000  0  8  5  2  4 27 26  9  7 24            -0.004432224
  -2495324.757 9  -1667300.47846  23799183.496    23799183.6714   23799191.0334
      3715.013        2894.815
  -4755079.036 9  -3699745.46848  20475287.527    20475287.9584   20475293.8474
      -391.175        -304.812
 -18481578.384 9 -14371578.80947  20709444.869    20709446.2084   20709452.0864
      3869.932        3015.531
  11065409.448 9   8625622.87546  22597624.913    22597625.4724   22597632.4874
     -2902.203       -2261.457
  -5196423.880 9  -4019004.52947  22438372.762    22438374.0394   22438380.3814
     -1273.734        -992.520
 -21423145.665 9 -16646234.09548  21080432.888    21080433.4754   21080438.9704
      3489.147        2718.816
 -12526059.143 9  -9260636.28948  19271249.975    19271250.4194   19271255.9144
      -315.740        -246.031
  -3731693.579 9  -2561945.99946  22742313.060    22742313.9084   22742322.4264
      4591.618        3577.884
 97  5 15 17 38 29.9950000  0  8  5  2  4 27 26  9  7 24            -0.004450494
  -2606798.996 9  -1754163.44446  23777970.223    23777970.8084   23777978.2604
      3714.773        2894.628
  -4743247.081 9  -3690525.78248  20477539.122    20477539.5174   20477545.4094
      -399.403        -311.223
 -18597517.497 9 -14461920.96248  20687382.291    20687383.6764   20687389.5754
      3857.536        3005.872
  11152530.167 8   8693509.02246  22614203.402    22614203.8694   22614211.1014
     -2907.662       -2265.711
  -5158119.150 9  -3989156.73447  22445661.947    22445663.2524   22445669.6384
     -1281.656        -998.693
 -21527665.233 9 -16727677.90048  21060543.375    21060544.0234   21060549.5044
      3477.115        2709.440
 -12516424.884 9  -9253129.08448  19273083.335    19273083.7674   19273089.2664
      -327.880        -255.491
  -3869435.502 9  -2669277.33746  22716101.741    22716102.3444   22716110.8994
      4589.209        3576.007
 97  5 15 17 38 59.9950000  0  8  5  2  4 27 26  9  7 24            -0.004468775
  -2718268.143 9  -1841022.44046  23756758.185    23756758.9904   23756766.3574
      3714.759        2894.617
  -4731164.339 9  -3681110.66748  20479838.353    20479838.7644   20479844.6904
      -407.744        -317.723
 -18713087.019 9 -14551975.10248  20665390.151    20665391.4984   20665397.4234
      3845.499        2996.493
  11239828.733 9   8761533.76446  22630815.764    22630816.4094   22630823.6064
     -2913.948       -2270.609
  -5119571.838 9  -3959119.95447  22452997.286    22452998.5794   22453005.0254
     -1289.723       -1004.979
 -21631828.729 9 -16808844.24448  21040721.692    21040722.3414   21040727.8024
      3465.491        2700.383
 -12506444.878 9  -9245352.47148  19274982.511    19274982.8824   19274988.4014
      -339.042        -264.189
  -4007109.021 9  -2776555.28846  22689903.074    22689903.9764   22689912.5904
      4587.281        3574.505
 97  5 15 17 39 29.9950000  0  8  5  2  4 27 26  9  7 24            -0.004487042
  -2829724.299 9  -1927871.31846  23735548.675    23735549.6184   23735556.8684
      3714.487        2894.405
  -4718806.696 9  -3671481.35648  20482189.921    20482190.3464   20482196.2784
      -417.092        -325.007
 -18828269.701 9 -14641727.82048  20643471.686    20643472.9694   20643478.8454
      3832.305        2986.212
  11327333.041 9   8829718.91746  22647467.432    22647468.0974   22647474.9034
     -2920.622       -2275.809
  -5080755.175 9  -3928873.29547  22460383.922    22460385.1854   22460391.6504
     -1298.949       -1012.168
 -21735628.670 9 -16889727.29848  21020969.325    21020969.8564   21020975.2954
      3453.383        2690.948
 -12496117.336 9  -9237305.05148  19276947.642    19276948.1314   19276953.6844
      -350.233        -272.909
  -4144715.347 9  -2883780.97646  22663717.121    22663718.2594   22663726.8514
      4585.224        3572.902
 97  5 15 17 39 59.9950000  0  8  5  2  4 27 26  9  7 24            -0.004505272
  -2941176.058 9  -2014716.78546  23714340.301    23714340.9564   23714348.3454
      3715.025        2894.825
  -4706159.979 9  -3661626.78548  20484596.497    20484596.9394   20484602.8854
      -426.862        -332.620
 -18943057.135 9 -14731172.55748  20621628.438    20621629.6354   20621635.4934
      3819.394        2976.151
  11415035.593 8   8898058.45346  22664156.877    22664157.5104   22664164.4274
     -2927.023       -2280.797
  -5041671.410 9  -3898418.48947  22467821.443    22467822.6574   22467829.1724
     -1307.394       -1018.749
 -21839058.654 9 -16970322.07448  21001287.234    21001287.7734   21001293.1494
      3441.049        2681.337
 -12485476.232 9  -9229013.29048  19278972.578    19278973.0814   19278978.6444
      -359.896        -280.438
  -4282266.950 9  -2990963.95846  22637541.960    22637542.9694   22637551.5004
      4583.921        3571.886
 97  5 15 17 40 29.9950000  0  8  5  2  4 27 26  9  7 24            -0.004523443
  -3052663.166 9  -2101589.78146  23693125.203    23693125.5544   23693133.0234
      3717.359        2896.643
  -4693221.643 9  -3651544.98348  20487058.583    20487059.0514   20487064.9894
      -435.754        -339.548
 -19057459.549 9 -14820317.25948  20599858.274    20599859.5404   20599865.4334
      3807.444        2966.839
  11502926.580 8   8966544.76446  22680881.931    22680882.5734   22680889.6924
     -2932.240       -2284.862
  -5002340.082 9  -3867770.76847  22475306.068    22475307.1964   22475313.8134
     -1314.704       -1024.445
 -21942114.317 9 -17050625.17748  20981676.332    20981676.8834   20981682.3064
      3429.326        2672.202
 -12474551.802 9  -9220500.75848  19281051.385    19281051.9214   19281057.4814
      -368.398        -287.063
  -4419770.661 9  -3098109.61546  22611375.746    22611376.8394   22611385.4184
      4582.684        3570.923
 97  5 15 17 40 59.9950000  0  8  5  2  4 27 26  9  7 24            -0.004541545
  -3164185.714 9  -2188490.39946  23671903.269    23671903.3984   23671910.9354
      3717.312        2896.607
  -4679973.952 9  -3641222.11848  20489579.546    20489580.0204   20489585.9724
      -447.480        -348.686
 -19171471.609 9 -14909157.80348  20578162.418    20578163.7364   20578169.6294
      3793.272        2955.796
  11590998.232 9   9035171.96146  22697641.574    22697642.3234   22697649.1914
     -2939.246       -2290.322
  -4962749.287 9  -3836920.87147  22482840.002    22482841.1234   22482847.7784
     -1324.643       -1032.189
 -22044784.529 9 -17130627.92948  20962138.788    20962139.3904   20962144.8214
      3415.130        2661.140
 -12463335.989 9  -9211761.16648  19283185.683    19283186.2334   19283191.8144
      -379.649        -295.830
  -4557200.978 9  -3205198.12146  22585223.522    22585224.6894   22585233.1564
      4579.076        3568.111
 97  5 15 17 41 29.9950000  0  8  5  2  4 27 26  9  7 24            -0.004559583
  -3275742.765 9  -2275417.91246  23650674.321    23650674.6604   23650682.2734
      3720.237        2898.886
  -4666415.302 9  -3630656.95348  20492159.724    20492160.1734   20492166.1394
      -455.823        -355.187
 -19285098.895 9 -14997698.53048  20556539.862    20556541.1764   20556547.0834
      3782.348        2947.284
  11679224.709 8   9103919.74245  22714430.321    22714430.9814   22714438.3074
     -2942.194       -2292.619
  -4922899.940 9  -3805869.50047  22490423.079    22490424.2414   22490430.9004
     -1331.281       -1037.362
 -22147056.122 9 -17210320.06748  20942677.133    20942677.7544   20942683.1874
      3403.384        2651.988
 -12451816.937 9  -9202785.28748  19285377.770    19285378.2194   19285383.8184
      -387.791        -302.175
  -4694556.365 9  -3312228.23246  22559085.887    22559086.9644   22559095.2774
      4578.192        3567.422
 97  5 15 17 41 59.9950000  0  8  5  2  4 27 26  9  7 24            -0.004577558
  -3387327.029 9  -2362366.60945  23629440.091    23629440.8374   23629448.2864
      3719.398        2898.232
  -4652551.284 9  -3619853.83848  20494797.982    20494798.4324   20494804.3924
      -467.702        -364.443
 -19398335.100 9 -15085934.50448  20534991.691    20534993.0184   20534998.9324
      3767.255        2935.523
  11767598.273 8   9172782.20246  22731247.245    22731247.9504   22731255.1644
     -2948.835       -2297.794
  -4882808.123 9  -3774629.21047  22498052.326    22498053.5254   22498060.1444
     -1340.856       -1044.823
 -22248912.861 9 -17289688.94248  20923294.417    20923295.0594   20923300.4494
      3387.767        2639.818
 -12439994.815 9  -9193573.25748  19287627.479    19287627.8994   19287633.4814
      -399.820        -311.548
  -4831813.195 9  -3419181.57146  22532967.060    22532967.8124   22532976.0134
      4572.739        3563.173
 97  5 15 17 42 29.9950000  0  8  5  2  4 27 26  9  7 24            -0.004595496
  -3498937.464 9  -2449335.72046  23608201.468    23608202.0934   23608209.4044
      3721.731        2900.050
  -4638398.565 9  -3608825.76848  20497491.181    20497491.6354   20497497.5624
      -475.037        -370.159
 -19511174.096 9 -15173860.97348  20513519.203    20513520.4694   20513526.3344
      3756.116        2926.844
  11856114.608 9   9241755.77646  22748091.276    22748092.1364   22748099.7084
     -2951.576       -2299.929
  -4842489.712 9  -3743212.35947  22505724.831    22505725.8994   22505732.5174
     -1346.361       -1049.112
 -22350367.595 9 -17368744.57348  20903988.253    20903988.8684   20903994.2474
      3376.613        2631.127
 -12427861.566 9  -9184118.79648  19289936.287    19289936.8054   19289942.3734
      -408.336        -318.184
  -4968957.967 9  -3526047.56446  22506869.039    22506869.8544   22506878.1464
      4570.894        3561.736
 97  5 15 17 42 59.9950000  0  8  5  2  4 27 26  9  7 24            -0.004613427
  -3610565.860 9  -2536318.84546  23586959.359    23586959.8364   23586967.1104
      3721.368        2899.767
  -4623994.192 9  -3597601.59748  20500232.294    20500232.7394   20500238.6574
      -483.962        -377.113
 -19623639.724 9 -15261496.50848  20492117.695    20492118.9664   20492124.8644
      3742.728        2916.411
  11944752.988 8   9310824.60146  22764958.813    22764959.6584   22764967.0264
     -2956.472       -2303.744
  -4801968.096 9  -3711637.14147  22513436.074    22513436.9914   22513443.6104
     -1353.807       -1054.915
 -22451453.238 9 -17447512.59148  20884752.288    20884752.9444   20884758.2924
      3363.601        2620.988
 -12415441.756 9  -9174441.02948  19292299.778    19292300.2394   19292305.8084
      -418.502        -326.105
  -5106022.110 9  -3632850.69546  22480786.279    22480787.4584   22480795.6314
      4567.838        3559.354
 97  5 15 17 43 29.9950000  0  8  5  2  4 27 26  9  7 24            -0.004631350
  -3722186.462 9  -2623295.87646  23565718.398    23565719.0784   23565726.4014
      3720.260        2898.904
  -4609330.902 9  -3586175.67248  20503022.632    20503023.0784   20503029.0054
      -493.398        -384.466
 -19735702.026 9 -15348817.76648  20470792.868    20470794.2094   20470800.0654
      3728.236        2905.119
  12033536.203 8   9380006.19945  22781853.758    22781854.5604   22781862.0974
     -2962.231       -2308.232
  -4761232.583 9  -3679895.23647  22521187.945    22521188.7754   22521195.3174
     -1361.509       -1060.916
 -22552155.400 9 -17525981.79948  20865589.307    20865589.9674   20865595.3114
      3350.226        2610.566
 -12402727.384 9  -9164533.73148  19294719.184    19294719.7264   19294725.2964
      -428.883        -334.195
  -5242992.020 9  -3739580.43646  22454721.794    22454722.8884   22454731.0524
      4563.634        3556.078
 97  5 15 17 43 59.9950000  0  8  5  2  4 27 26  9  7 24            -0.004649256
  -3833802.240 9  -2710269.16146  23544478.838    23544479.4594   23544486.5684
      3720.009        2898.708
  -4594406.935 9  -3574546.62348  20505862.623    20505863.0464   20505868.9734
      -502.351        -391.442
 -19847344.632 9 -15435811.99748  20449548.152    20449549.3374   20449555.1334
      3714.009        2894.033
  12122467.970 8   9449303.58646  22798777.042    22798777.8844   22798785.3214
     -2967.228       -2312.126
  -4720301.623 9  -3648001.04247  22528976.814    22528977.7184   22528984.2934
     -1368.168       -1066.105
 -22652486.029 9 -17604161.50348  20846496.981    20846497.6574   20846503.0124
      3337.672        2600.783
 -12389729.213 9  -9154405.29148  19297192.721    19297193.1984   19297198.7424
      -438.480        -341.673
  -5379861.315 9  -3846231.78146  22428676.497    22428677.3454   22428685.5204
      4560.071        3553.302
 97  5 15 17 44 29.9950000  0  8  5  2  4 27 26  9  7 24            -0.004667179
  -3945429.178 9  -2797251.16946  23523236.621    23523237.5744   23523244.6684
      3721.343        2899.748
  -4579235.986 9  -3562725.12948  20508749.536    20508749.9804   20508755.9224
      -509.306        -396.862
 -19958601.815 9 -15522505.87948  20428376.460    20428377.7744   20428383.5904
      3702.912        2885.386
  12211530.230 8   9518702.58145  22815725.210    22815726.0554   22815733.4674
     -2970.429       -2314.620
  -4679180.525 9  -3615958.70546  22536801.837    22536802.8894   22536809.4904
     -1373.581       -1070.323
 -22752459.777 9 -17682063.12048  20827472.653    20827473.2874   20827478.6464
      3326.811        2592.320
 -12376466.069 9  -9144070.38648  19299716.676    19299717.1364   19299722.6634
      -446.190        -347.680
  -5516651.645 9  -3952821.56646  22402646.184    22402646.8804   22402655.2424
      4558.926        3552.410
 97  5 15 17 44 59.9950000  0  8  5  2  4 27 26  9  7 24            -0.004685086
  -4057052.075 8  -2884230.01045  23501995.118    23501996.3964   23502003.4434
      3722.173        2900.395
  -4563809.516 9  -3550704.52648  20511685.059    20511685.5384   20511691.4884
      -517.222        -403.030
 -20069475.210 9 -15608900.70648  20407277.915    20407279.2514   20407285.0544
      3690.507        2875.720
  12300728.340 8   9588207.47545  22832698.798    22832699.7464   22832707.3374
     -2974.035       -2317.430
  -4637843.622 9  -3583748.20047  22544668.095    22544669.0714   22544675.7484
     -1380.243       -1075.514
 -22852050.436 9 -17759666.22348  20808521.158    20808521.8084   20808527.1954
      3314.340        2582.602
 -12362919.839 9  -9133514.89448  19302294.472    19302294.9014   19302300.4154
      -455.049        -354.584
  -5653361.768 9  -4059348.87846  22376630.837    22376631.6144   22376640.1104
      4556.690        3550.668
 97  5 15 17 45 29.9950000  0  8  5  2  4 27 26  9  7 24            -0.004702980
  -4168673.277 9  -2971207.51845  23480754.312    23480755.5794   23480762.5684
      3719.417        2898.247
  -4548133.412 9  -3538489.39348  20514668.120    20514668.5844   20514674.5744
      -527.769        -411.249
 -20179969.188 9 -15694999.88548  20386251.643    20386252.9594   20386258.7594
      3675.791        2864.253
  12390040.261 8   9657801.05745  22849694.319    22849695.2614   22849702.9884
     -2980.074       -2322.136
  -4596298.329 9  -3551375.30546  22552573.989    22552574.9104   22552581.6484
     -1389.340       -1082.602
 -22951250.509 9 -17836964.96748  20789644.025    20789644.6764   20789650.0794
      3298.978        2570.632
 -12349089.932 9  -9122738.35548  19304926.250    19304926.6524   19304932.1714
      -466.861        -363.788
  -5789983.810 9  -4165807.57746  22350632.505    22350633.3094   22350641.7854
      4551.233        3546.415
 97  5 15 17 45 59.9950000  0  8  5  2  4 27 26  9  7 24            -0.004720858
  -4280273.445 9  -3058168.63845  23459518.034    23459518.7324   23459525.6694
      3719.287        2898.146
  -4532208.446 9  -3526080.35348  20517698.576    20517699.0354   20517705.0174
      -535.083        -416.948
 -20290079.948 9 -15780800.46348  20365298.306    20365299.5734   20365305.3284
      3663.804        2854.912
  12479468.670 8   9727485.46045  22866712.119    22866713.0294   22866720.5714
     -2983.085       -2324.482
  -4554530.943 9  -3518829.38247  22560522.070    22560523.0104   22560529.7494
     -1396.406       -1088.109
 -23050039.981 9 -17913943.76648  20770845.007    20770845.6494   20770851.0724
      3285.779        2560.347
 -12334958.971 9  -9111727.23048  19307615.252    19307615.6844   19307621.2274
      -476.379        -371.204
  -5926501.082 9  -4272184.58546  22324654.044    22324654.9414   22324663.3924
      4548.487        3544.276
 97  5 15 17 46 29.9950000  0  8  5  2  4 27 26  9  7 24            -0.004738726
  -4391844.984 9  -3145107.47545  23438286.500    23438287.2794   23438294.2814
      3718.032        2897.168
  -4516047.294 9  -3513487.26548  20520773.953    20520774.3974   20520780.4304
      -543.201        -423.274
 -20399810.683 9 -15866304.91848  20344417.174    20344418.5364   20344424.3244
      3650.498        2844.544
  12569009.866 8   9797257.78045  22883751.257    22883752.1134   22883759.6694
     -2987.149       -2327.649
  -4512525.001 9  -3486097.55247  22568515.515    22568516.5174   22568523.2724
     -1404.636       -1094.522
 -23148412.000 9 -17990597.27848  20752125.386    20752126.0344   20752131.4774
      3271.550        2549.260
 -12320516.857 9  -9100473.64748  19310363.477    19310363.9194   19310369.4624
      -487.250        -379.675
  -6062920.206 9  -4378485.12346  22298694.223    22298695.1744   22298703.6184
      4545.051        3541.598
 97  5 15 17 46 59.9950000  0  8  5  2  4 27 26  9  7 24            -0.004756621
  -4503405.397 9  -3232037.64045  23417057.204    23417057.8674   23417065.0054
      3718.074        2897.200
  -4499655.168 9  -3500714.19248  20523893.289    20523893.6854   20523899.7664
      -550.924        -429.291
 -20509137.705 9 -15951494.79248  20323612.927    20323614.2974   20323620.0174
      3636.661        2833.762
  12658637.363 7   9867097.15545  22900806.297    22900807.4164   22900815.3784
     -2989.292       -2329.318
  -4470309.483 9  -3453202.45946  22576549.043    22576549.9134   22576556.6724
     -1410.867       -1099.377
 -23246377.959 9 -18066934.37748  20733483.037    20733483.7164   20733489.1734
      3258.300        2538.935
 -12305771.042 9  -9088983.40248  19313169.615    19313169.9894   19313175.5404
      -496.877        -387.177
  -6199248.621 9  -4484715.00046  22272751.822    22272752.6054   22272761.0684
      4542.046        3539.257
 97  5 15 17 47 29.9950000  0  8  5  2  4 27 26  9  7 24            -0.004774534
  -4614944.176 9  -3318950.95045  23395832.568    23395832.7314   23395839.9564
      3717.373        2896.654
  -4483004.906 9  -3487739.98248  20527061.699    20527062.1274   20527068.2344
      -559.853        -436.249
 -20618028.703 9 -16036344.90048  20302891.683    20302893.0344   20302898.7474
      3621.925        2822.279
  12748362.445 8   9937012.63646  22917880.371    22917881.6174   22917889.6154
     -2993.007       -2332.213
  -4427893.785 9  -3420151.35946  22584620.409    22584621.3554   22584628.1584
     -1417.530       -1104.569
 -23343927.089 9 -18142946.67948  20714920.072    20714920.7314   20714926.1794
      3244.371        2528.081
 -12290718.766 9  -9077254.37348  19316034.069    19316034.3864   19316039.9224
      -507.284        -395.286
  -6335457.632 9  -4590851.82646  22246831.935    22246832.7884   22246841.3034
      4537.837        3535.977
 97  5 15 17 47 59.9950000  0  8  5  2  4 27 26  9  7 24            -0.004792476
  -4726505.560 8  -3405881.86145  23374602.910    23374603.1704   23374610.4994
      3718.182        2897.285
  -4466108.957 9  -3474574.32248  20530276.933    20530277.3374   20530283.4414
      -568.682        -443.129
 -20726500.716 9 -16120868.53348  20282250.120    20282251.4894   20282257.1604
      3607.642        2811.150
  12838170.028 9  10006992.55345  22934970.803    22934971.6614   22934979.4514
     -2996.101       -2334.624
  -4385309.965 9  -3386969.23946  22592723.929    22592724.8074   22592731.6824
     -1423.379       -1109.126
 -23441091.916 9 -18218659.51748  20696430.226    20696430.8974   20696436.3184
      3231.280        2517.881
 -12275382.561 9  -9065304.09348  19318952.454    19318952.7864   19318958.3294
      -517.131        -402.959
  -6471577.481 9  -4696919.15846  22220929.209    22220930.0384   22220938.5114
      4534.663        3533.504
 97  5 15 17 48 29.9950000  0  8  5  2  4 27 26  9  7 24            -0.004810411
  -4838084.115 9  -3492826.15545  23353370.148    23353370.3924   23353377.6324
      3718.672        2897.666
  -4448914.482 9  -3461176.04848  20533548.918    20533549.3594   20533555.4554
      -579.284        -451.390
 -20834527.990 9 -16205045.61448  20261693.255    20261694.6114   20261700.2344
      3592.377        2799.255
  12928098.660 8  10077066.80845  22952084.244    22952085.0544   22952092.2834
     -3000.830       -2338.309
  -4342535.908 9  -3353638.91146  22600863.534    22600864.5044   22600871.3644
     -1429.851       -1114.170
 -23537842.142 9 -18294049.29448  20678019.285    20678019.9494   20678025.3694
      3216.995        2506.749
 -12259734.895 9  -9053111.11548  19321930.126    19321930.4704   19321936.0124
      -527.749        -411.233
  -6607581.828 9  -4802896.46546  22195048.117    22195049.1654   22195057.7154
      4530.469        3530.236
 97  5 15 17 48 59.9950000  0  8  5  2  4 27 26  9  7 24            -0.004828342
  -4949721.421 8  -3579816.21845  23332127.004    23332126.4504   23332133.7054
      3720.170        2898.834
  -4431442.038 9  -3447561.17148  20536873.815    20536874.2854   20536880.3664
      -588.821        -458.822
 -20942134.220 9 -16288894.60648  20241216.433    20241217.7994   20241223.4144
      3578.173        2788.187
  13018131.360 8  10147221.93145  22969216.680    22969217.6054   22969225.2094
     -3004.957       -2341.525
  -4299611.538 9  -3320191.46246  22609031.925    22609032.8274   22609039.6834
     -1435.339       -1118.446
 -23634197.966 9 -18369131.74548  20659683.475    20659684.0364   20659689.4684
      3203.302        2496.079
 -12243812.968 9  -9040704.43248  19324959.891    19324960.3104   19324965.8574
      -537.047        -418.478
  -6743496.690 9  -4908804.08346  22169184.426    22169185.3054   22169193.7684
      4527.133        3527.636
 97  5 15 17 49 29.9950000  0  8  5  2  4 27 26  9  7 24            -0.004846156
  -5061380.795 9  -3666823.49345  23310879.080    23310878.3084   23310885.6614
      3722.068        2900.313
  -4413672.214 9  -3433714.57548  20540255.345    20540255.8284   20540261.8664
      -597.440        -465.538
 -21049316.306 9 -16372413.10448  20220820.434    20220821.7244   20220827.3334
      3565.468        2778.287
  13108318.016 8  10217497.12346  22986378.706    22986379.7634   22986387.2664
     -3009.152       -2344.794
  -4256497.160 9  -3286595.90046  22617236.298    22617237.3184   22617244.1514
     -1440.708       -1122.630
 -23730124.486 9 -18443879.67948  20641429.192    20641429.7934   20641435.2184
      3190.076        2485.774
 -12227591.257 9  -9028064.15648  19328046.727    19328047.1994   19328052.7494
      -546.131        -425.557
  -6879298.800 9  -5014623.81746  22143342.276    22143342.9364   22143351.5614
      4524.593        3525.657
 97  5 15 17 49 59.9950000  0  8  5  2  4 27 26  9  7 24            -0.004864020
  -5173080.544 9  -3753862.20445  23289623.026    23289622.6114   23289629.8604
      3723.970        2901.795
  -4395638.771 9  -3419662.56348  20543687.042    20543687.4934   20543693.5444
      -605.240        -471.615
 -21156103.927 9 -16455624.21948  20200499.440    20200500.7064   20200506.2744
      3553.232        2768.752
  13198640.986 8  10287878.59645  23003567.068    23003567.7974   23003575.1904
     -3012.626       -2347.501
  -4213205.879 9  -3252862.49346  22625474.562    22625475.4754   22625482.3524
     -1445.802       -1126.599
 -23825638.083 9 -18518305.85248  20623253.467    20623254.1484   20623259.5434
      3176.943        2475.540
 -12211089.851 9  -9015205.93248  19331186.809    19331187.2854   19331192.8354
      -554.280        -431.906
  -7015015.484 9  -5120376.99146  22117516.387    22117516.9304   22117525.4354
      4522.577        3524.086
 97  5 15 17 50 29.9950000  0  8  5  2  4 27 26  9  7 24            -0.004881858
  -5284807.882 8  -3840922.42845  23268361.614    23268361.4984   23268368.6834
      3726.274        2903.590
  -4377349.177 9  -3405410.95748  20547167.513    20547167.9284   20547173.9864
      -611.970        -476.860
 -21262493.885 9 -16538525.47648  20180254.093    20180255.3624   20180260.9434
      3541.327        2759.476
  13289083.337 8  10358353.05145  23020777.409    23020778.5074   23020785.4544
     -3014.812       -2349.204
  -4169738.897 9  -3218992.20446  22633746.067    22633747.0334   22633753.8824
     -1449.921       -1129.809
 -23920725.053 9 -18592399.58548  20605159.116    20605159.7094   20605165.0794
      3164.340        2465.719
 -12194325.828 9  -9002143.07148  19334376.867    19334377.3994   19334382.9124
      -561.224        -437.317
  -7150643.213 9  -5226060.86246  22091707.232    22091707.8634   22091716.2204
      4521.192        3523.007
 97  5 15 17 50 59.9950000  0  8  5  2  4 27 26  9  7 24            -0.004899693
  -5396536.243 8  -3927983.44245  23247099.792    23247100.2714   23247107.4594
      3724.277        2902.034
  -4358815.707 9  -3390969.30848  20550694.303    20550694.7134   20550700.8044
      -621.659        -484.410
 -21368476.583 9 -16621109.39648  20160086.298    20160087.5084   20160093.1014
      3526.260        2747.735
  13379625.401 8  10428905.26045  23038007.037    23038008.3234   23038015.1704
     -3019.354       -2352.743
  -4126105.636 9  -3184992.31346  22642049.280    22642050.2364   22642057.0974
     -1457.012       -1135.334
 -24015392.888 9 -18666166.72248  20587144.448    20587145.0684   20587150.3924
      3148.838        2453.640
 -12177308.771 9  -8988883.03448  19337615.165    19337615.6504   19337621.1664
      -571.271        -445.146
  -7286179.166 9  -5331673.18946  22065915.498    22065916.1344   22065924.5264
      4516.455        3519.316
 97  5 15 17 51 29.9950000  0  8  5  2  4 27 26  9  7 24            -0.004917519
  -5508251.704 9  -4015034.41745  23225840.914    23225841.3704   23225848.6634
      3724.654        2902.328
  -4340030.272 9  -3376331.33148  20554268.985    20554269.4934   20554275.5484
      -629.400        -490.442
 -21474054.409 9 -16703377.81148  20139995.493    20139996.6974   20140002.2994
      3513.365        2737.687
  13470246.496 8  10499519.02346  23055251.696    23055252.9364   23055260.1604
     -3020.692       -2353.786
  -4082316.882 9  -3150871.28646  22650382.020    22650383.0464   22650389.8954
     -1460.937       -1138.392
 -24109650.237 9 -18739613.99748  20569207.849    20569208.4994   20569213.8254
      3136.240        2443.823
 -12160032.596 9  -8975421.08748  19340902.773    19340903.1994   19340908.7034
      -579.140        -451.278
  -7421617.452 9  -5437209.42546  22040141.990    22040142.9904   22040151.3824
      4513.816        3517.259
 97  5 15 17 51 59.9950000  0  8  5  2  4 27 26  9  7 24            -0.004935318
  -5619945.122 8  -4102068.20945  23204586.516    23204586.8074   23204594.1154
      3721.772        2900.082
  -4320961.567 9  -3361472.62348  20557897.690    20557898.1624   20557904.2514
      -641.792        -500.098
 -21579194.530 9 -16785305.15248  20119988.048    20119989.1894   20119994.7744
      3496.181        2724.297
  13560942.666 8  10570191.22745  23072510.901    23072511.8514   23072519.3854
     -3025.536       -2357.561
  -4038366.205 9  -3116624.08446  22658745.636    22658746.6334   22658753.5054
     -1468.961       -1144.645
 -24203486.876 9 -18812733.44048  20551351.336    20551351.9864   20551357.3234
      3119.667        2430.909
 -12142489.327 9  -8961751.01048  19344241.083    19344241.5534   19344247.0664
      -590.302        -459.976
  -7556929.904 9  -5542647.61146  22014392.747    22014393.8764   22014402.2374
      4506.807        3511.798
 97  5 15 17 52 29.9950000  0  8  5  2  4 27 26  9  7 24            -0.004952966
  -5731618.917 8  -4189086.72045  23183335.876    23183336.0014   23183343.1584
      3722.169        2900.391
  -4301577.526 9  -3346368.19448  20561586.404    20561586.8604   20561592.9314
      -651.415        -507.596
 -21683882.227 9 -16866879.96248  20100066.537    20100067.7724   20100073.3704
      3481.975        2713.227
  13651713.048 8  10640921.16745  23089784.087    23089784.9854   23089792.6074
     -3027.134       -2358.806
  -3994239.743 9  -3082239.87146  22667142.644    22667143.6444   22667150.4664
     -1473.708       -1148.344
 -24296893.383 9 -18885517.72448  20533576.662    20533577.3294   20533582.6594
      3106.382        2420.557
 -12124668.141 9  -8947864.38348  19347632.454    19347632.8164   19347638.3564
      -598.869        -466.651
  -7692086.611 9  -5647964.46946  21988673.057    21988674.3214   21988682.6874
      4502.357        3508.330
 97  5 15 17 52 59.9950000  0  8  5  2  4 27 26  9  7 24            -0.004970643
  -5843286.536 8  -4276100.43445  23162086.127    23162086.4354   23162093.6214
      3722.813        2900.893
  -4281885.609 9  -3331023.86448  20565333.681    20565334.1184   20565340.1964
      -660.832        -514.934
 -21788120.935 9 -16948104.91048  20080230.553    20080231.7794   20080237.4024
      3467.769        2702.158
  13742563.271 8  10711713.48745  23107072.325    23107073.1994   23107080.9484
     -3029.002       -2360.261
  -3949951.842 9  -3047729.89146  22675570.273    22675571.3684   22675578.2034
     -1478.374       -1151.980
 -24389876.349 9 -18957971.97048  20515882.613    20515883.2494   20515888.5784
      3092.901        2410.053
 -12106563.990 9  -8933757.26648  19351077.403    19351077.9204   19351083.4744
      -607.627        -473.476
  -7827081.268 9  -5753155.03146  21962984.417    21962985.6294   21962993.9544
      4497.587        3504.613
 97  5 15 17 53 29.9950000  0  8  5  2  4 27 26  9  7 24            -0.004988282
  -5954962.634 8  -4363120.73645  23140834.646    23140835.1214   23140842.3474
      3722.407        2900.577
  -4261889.397 9  -3315442.42448  20569138.829    20569139.2614   20569145.3454
      -671.738        -523.432
 -21891904.151 9 -17028974.92948  20060481.205    20060482.4614   20060488.0994
      3451.473        2689.459
  13833495.672 8  10782569.90445  23124376.390    23124377.2454   23124384.8074
     -3032.791       -2363.214
  -3905500.799 9  -3013092.76146  22684029.102    22684030.1654   22684037.0184
     -1484.852       -1157.028
 -24482429.435 9 -19030091.24448  20498270.235    20498270.9524   20498276.2714
      3077.553        2398.093
 -12088175.458 9  -8919428.55148  19354576.699    19354577.1194   19354582.6614
      -617.759        -481.371
  -7961899.754 9  -5858208.33646  21937329.218    21937330.5364   21937338.6394
      4490.601        3499.170
 97  5 15 17 53 59.9950000  0  8  5  2  4 27 26  9  7 24            -0.005005904
  -6066677.668 8  -4450171.36745  23119576.665    23119576.3914   23119583.6544
      3725.324        2902.850
  -4241618.230 9  -3299646.74048  20572996.325    20572996.7614   20573002.8464
      -679.389        -529.394
 -21995242.273 9 -17109498.12848  20040816.550    20040817.8544   20040823.5134
      3437.854        2678.847
  13924501.838 8  10853483.84245  23141694.361    23141695.1484   23141702.4834
     -3034.042       -2364.189
  -3860888.791 9  -2978330.23146  22692518.468    22692519.6114   22692526.5214
     -1488.996       -1160.257
 -24574554.867 9 -19101877.28948  20480739.355    20480740.0244   20480745.3644
      3064.317        2387.779
 -12069537.341 9  -8904905.35248  19358123.286    19358123.8414   19358129.3554
      -624.757        -486.824
  -8096554.378 9  -5963133.91446  21911705.215    21911706.5524   21911714.6954
      4486.592        3496.046
 97  5 15 17 54 29.9940000  0  8  5  2  4 27 26  9  7 24            -0.005023536
  -6178416.032 8  -4537240.18145  23098313.733    23098313.3504   23098320.5554
      3724.617        2902.299
  -4221087.662 9  -3283648.90848  20576903.174    20576903.6004   20576909.6994
      -688.676        -536.631
 -22098115.576 9 -17189659.12648  20021240.415    20021241.7044   20021247.3554
      3421.167        2665.844
  14015596.88218  10924466.86355  23159029.193    23159028.9755   23159038.3425
     -3038.546       -2367.698
  -3816119.521 9  -2943445.12046  22701037.843    22701039.0054   22701045.9034
     -1494.891       -1164.850
 -24666230.339 9 -19173312.71248  20463294.061    20463294.7414   20463300.0704
      3048.097        2375.140
 -12050634.207 9  -8890175.64648  19361720.489    19361721.0254   19361726.5034
      -634.848        -494.687
  -8231043.711 9  -6067930.70246  21886112.720    21886114.0104   21886122.2044
      4480.301        3491.144
 97  5 15 17 54 59.9940000  0  8  5  2  4 27 26  9  7 24            -0.005041197
  -6290166.124 8  -4624318.12145  23077047.829    23077047.8704   23077055.1314
      3724.732        2902.389
  -4200313.914 9  -3267461.59548  20580856.278    20580856.7344   20580862.8384
      -696.897        -543.037
 -22200523.347 9 -17269457.36948  20001752.794    20001754.1404   20001759.7874
      3405.438        2653.588
  14106798.611 8  10995532.90646  23176384.452    23176384.6614   23176393.5354
     -3042.185       -2370.534
  -3771205.234 9  -2908447.01646  22709584.812    22709585.9654   22709592.8574
     -1500.045       -1168.866
 -24757448.187 9 -19244391.54448  20445935.799    20445936.5214   20445941.8844
      3032.552        2363.028
 -12031465.162 9  -8875238.73448  19365368.335    19365368.8024   19365374.2784
      -643.710        -501.592
  -8365393.557 9  -6172618.80746  21860547.105    21860548.1264   21860556.3384
      4475.661        3487.528
 97  5 15 17 55 29.9940000  0  8  5  2  4 27 26  9  7 24            -0.005058876
  -6401914.598 8  -4711394.80245  23055782.627    23055782.8324   23055790.2454
      3725.140        2902.706
  -4179288.325 9  -3251078.03848  20584857.334    20584857.7834   20584863.9054
      -704.995        -549.347
 -22302458.602 9 -17348887.42248  19982355.161    19982356.4544   19982362.1374
      3390.156        2641.680
  14198105.328 9  11066680.96246  23193759.659    23193760.0214   23193768.4404
     -3045.095       -2372.801
  -3726136.589 9  -2873328.65946  22718161.074    22718162.3384   22718169.2124
     -1504.689       -1172.485
 -24848199.174 9 -19315106.58748  20428666.461    20428667.1844   20428672.5654
      3017.428        2351.243
 -12012035.282 9  -8860098.57748  19369065.717    19369066.2094   19369071.6704
      -651.781        -507.881
  -8499606.243 9  -6277200.03946  21835007.253    21835008.2744   21835016.4064
      4471.695        3484.438
 97  5 15 17 55 59.9940000  0  8  5  2  4 27 26  9  7 24            -0.005076587
  -6513689.952 8  -4798492.44545  23034512.272    23034512.6654   23034520.0884
      3726.029        2903.399
  -4158029.188 9  -3234512.49748  20588902.783    20588903.2844   20588909.3934
      -712.543        -555.228
 -22403950.209 9 -17427971.77248  19963041.812    19963043.1964   19963048.8924
      3375.612        2630.347
  14289488.345 9  11137888.41046  23211149.411    23211149.8154   23211158.2824
     -3047.392       -2374.591
  -3680938.676 9  -2838109.56746  22726762.084    22726763.2184   22726770.1244
     -1508.568       -1175.508
 -24938504.161 9 -19385474.09448  20411482.010    20411482.7154   20411488.1084
      3002.790        2339.836
 -11992370.520 9  -8844775.39848  19372807.848    19372808.3074   19372813.7434
      -659.569        -513.950
  -8633724.809 9  -6381707.91846  21809485.266    21809486.3454   21809494.4254
      4469.050        3482.377
 97  5 15 17 56 29.9940000  0  8  5  2  4 27 26  9  7 24            -0.005094328
  -6625479.905 9  -4885601.47845  23013239.395    23013239.5944   23013247.0754
      3726.384        2903.676
  -4136544.169 9  -3217770.93648  20592991.274    20592991.7484   20592997.8654
      -720.000        -561.039
 -22505007.210 9 -17506717.47048  19943811.336    19943812.6794   19943818.3974
      3361.520        2619.366
  14380942.802 8  11209151.58945  23228552.746    23228553.2684   23228561.5804
     -3049.511       -2376.242
  -3635629.649 9  -2802803.87546  22735384.111    22735385.3014   22735392.1764
     -1512.192       -1178.331
 -25028378.038 9 -19455505.66948  20394379.580    20394380.2694   20394385.6514
      2988.797        2328.933
 -11972466.281 9  -8829265.60948  19376595.444    19376595.9744   19376601.4114
      -667.431        -520.076
  -8767753.614 9  -6486145.85646  21783980.139    21783981.4324   21783989.4484
      4465.901        3479.923
 97  5 15 17 56 59.9940000  0  7  5  2  4 26  9  7 24               -0.005112052
  -6737256.311 8  -4972699.92745  22991969.252    22991969.2284   22991976.7324
      3725.068        2902.650
  -4114791.931 9  -3200821.15948  20597130.551    20597131.0704   20597137.2074
      -730.308        -569.071
 -22605616.411 9 -17585114.23648  19924666.072    19924667.3634   19924673.0794
      3345.554        2606.925
  -3590165.303 9  -2767377.17646  22744035.765    22744036.8664   22744043.7544
     -1518.923       -1183.576
 -25117805.671 9 -19525189.53148  20377362.017    20377362.7264   20377368.1364
      2973.021        2316.640
 -11952298.496 9  -8813550.46648  19380433.350    19380433.7864   19380439.2324
      -677.207        -527.694
  -8901655.205 9  -6590484.66846  21758499.088    21758500.6854   21758508.7264
      4460.437        3475.665
 97  5 15 17 57 29.9940000  0  7  5  2  4 26  9  7 24               -0.005129745
  -6849027.695 8  -5059794.47545  22970699.817    22970699.8164   22970707.2444
      3725.524        2903.006
  -4092766.531 9  -3183658.52448  20601321.874    20601322.3604   20601328.5444
      -738.932        -575.791
 -22705785.146 9 -17663167.79048  19905604.511    19905605.8524   19905611.5584
      3331.490        2595.966
  -3544538.084 9  -2731823.53046  22752718.397    22752719.4114   22752726.3914
     -1523.647       -1187.257
 -25206805.530 9 -19594540.06048  20360425.891    20360426.6214   20360432.0124
      2959.328        2305.970
 -11931879.443 9  -8797639.52748  19384319.083    19384319.4144   19384324.8824
      -684.976        -533.748
  -9035424.505 9  -6694720.39546  21733043.651    21733045.2774   21733053.2144
      4456.490        3472.590
 97  5 15 17 57 59.9940000  0  8  5  2  4 27 26  9  7 24            -0.005147395
  -6960785.991 9  -5146878.80345  22949432.538    22949432.7894   22949440.2364
      3724.187        2901.964
  -4070461.502 9  -3166278.00548  20605566.392    20605566.8574   20605573.0854
      -748.817        -583.494
 -22805516.030 9 -17740880.15948  19886626.348    19886627.6574   19886633.3604
      3316.330        2584.153
     65953.68819     33990.33452  23280844.391           0.0005          0.0005
     -3056.817       -2381.935
  -3498751.196 9  -2696145.49546  22761431.308    22761432.4264   22761439.3784
     -1529.445       -1191.775
 -25295370.414 9 -19663551.64148  20343572.508    20343573.2644   20343578.7004
      2944.290        2294.252
 -11911205.135 9  -8781529.68448  19388253.232    19388253.6364   19388259.0724
      -693.957        -540.746
  -9169047.432 9  -6798842.04146  21707616.289    21707617.6344   21707625.4764
      4450.710        3468.086
 97  5 15 17 58 29.9940000  0  8  5  2  4 27 26  9  7 24            -0.005164990
  -7072522.099 9  -5233945.86146  22928169.845    22928170.0374   22928177.4734
      3724.588        2902.276
  -4047872.464 9  -3148676.17148  20609864.974    20609865.4174   20609871.6494
      -757.611        -590.346
 -22904803.446 9 -17818246.96748  19867732.609    19867733.8984   19867739.5964
      3302.519        2573.391
    157664.949 9    105453.99456  23298297.530           0.0004          0.0005
     -3057.467       -2382.442
  -3452808.456 9  -2660346.02346  22770173.959    22770175.1004   22770182.0464
     -1533.717       -1195.104
 -25383502.118 9 -19732225.68548  20326801.597    20326802.3374   20326807.7864
      2930.610        2283.592
 -11890282.820 9  -8765226.58848  19392234.617    19392235.0394   19392240.4644
      -701.218        -546.404
  -9302505.110 9  -6902834.94846  21682220.148    21682221.4434   21682229.2664
      4445.957        3464.382
 97  5 15 17 58 59.9940000  0  8  5  2  4 27 26  9  7 24            -0.005182535
  -7184261.422 8  -5321015.39946  22906906.565    22906906.6824   22906914.1174
      3723.589        2901.498
  -4024996.868 9  -3130851.04648  20614218.059    20614218.5234   20614224.7404
      -768.582        -598.895
 -23003658.036 9 -17895276.49948  19848921.302    19848922.5084   19848928.1774
      3286.370        2560.808
    249399.342 9    176935.15656  23315755.349           0.0005   23315762.4455
     -3059.478       -2384.009
  -3406728.992 9  -2624440.01146  22778942.650    22778943.7824   22778950.8184
     -1539.302       -1199.456
 -25471195.815 9 -19800558.41748  20310114.033    20310114.7594   20310120.2184
      2914.361        2270.931
 -11869140.137 9  -8748751.77248  19396257.928    19396258.3514   19396263.7844
      -709.476        -552.838
  -9435803.132 9  -7006703.43046  21656854.405    21656855.5764   21656863.4224
      4439.121        3459.055
 97  5 15 17 59 29.9940000  0  8  5  2  4 27 26  9  7 24            -0.005200027
  -7295981.211 9  -5408069.73546  22885646.882    22885647.1654   22885654.5274
      3724.261        2902.022
  -4001810.252 9  -3112783.57248  20618630.372    20618630.8164   20618637.0234
      -777.474        -605.824
 -23102033.605 9 -17971932.77248  19830200.929    19830202.2604   19830207.9184
      3271.697        2549.374
    341189.031 7    248459.50545  23333214.740    23333220.0585   23333229.4434
     -3060.234       -2384.598
  -3360505.559 9  -2588421.82546  22787738.736    22787739.8564   22787746.9044
     -1542.374       -1201.850
 -25558407.495 9 -19868515.55648  20293518.217    20293518.9184   20293524.3804
      2899.435        2259.300
 -11847759.321 9  -8732091.40248  19400326.459    19400327.0044   19400332.4414
      -716.285        -558.144
  -9568900.246 9  -7110415.38346  21631526.843    21631527.9824   21631535.7884
      4433.662        3454.802
 97  5 15 17 59 59.9940000  0  8  5  2  4 27 26  9  7 24            -0.005217506
  -7407723.145 9  -5495141.33346  22864383.047    22864383.4094   22864390.6494
      3726.043        2903.410
  -3978347.664 9  -3094501.05548  20623095.228    20623095.6374   20623101.8514
      -785.608        -612.162
 -23199948.343 9 -18048229.95948  19811568.386    19811569.6994   19811575.3444
      3256.706        2537.693
    433029.905 7    320023.69155  23350693.285    23350697.5535   23350705.4615
     -3061.448       -2385.544
  -3314182.234 9  -2552325.78046  22796553.995    22796554.9504   22796562.0074
     -1544.912       -1203.828
 -25645159.656 9 -19936114.63348  20277009.775    20277010.4914   20277015.9554
      2884.990        2248.044
 -11826156.547 9  -8715258.08448  19404437.393    19404437.9074   19404443.3184
      -722.972        -563.355
  -9701817.230 9  -7213986.96846  21606233.528    21606234.6344   21606242.4984
      4428.183        3450.532
 97  5 15 18  0 29.9940000  0  8  5  2  4 27 26  9  7 24            -0.005235007
  -7519510.749 9  -5582248.51346  22843110.604    22843110.9224   22843118.1364
      3726.008        2903.383
  -3954639.146 9  -3076026.89748  20627606.763    20627607.2344   20627613.4674
      -795.449        -619.830
 -23297399.802 9 -18124166.14648  19793023.932    19793025.3064   19793030.9524
      3239.667        2524.416
    524905.848 8    391615.15145  23368178.318    23368180.1974   23368189.0674
     -3063.826       -2387.397
  -3267780.209 9  -2516168.40546  22805384.026    22805385.0964   22805392.1234
     -1548.970       -1206.990
 -25731468.309 9 -20003368.11748  20260585.762    20260586.4974   20260591.9594
      2868.325        2235.058
 -11804341.494 9  -8698259.35248  19408588.708    19408589.1604   19408594.5614
      -731.918        -570.326
  -9834566.136 9  -7317427.56247  21580972.127    21580973.3094   21580981.1224
      4421.104        3445.016
 97  5 15 18  0 59.9940000  0  8  5  2  4 27 26  9  7 24            -0.005252523
  -7631322.953 9  -5669374.86246  22821833.285    22821833.7754   22821841.0604
      3726.949        2904.116
  -3930662.948 9  -3057344.16448  20632169.317    20632169.8014   20632176.0014
      -803.908        -626.422
 -23394355.538 9 -18199716.05848  19774573.887    19774575.2304   19774580.8754
      3223.007        2511.434
    616829.214 8    463243.66745  23385671.089    23385673.4424   23385681.8074
     -3065.524       -2388.720
  -3221284.096 9  -2479937.73046  22814231.938    22814233.0614   22814240.0734
     -1551.830       -1209.218
 -25817306.424 9 -20070254.95148  20244251.299    20244252.0464   20244257.5174
      2853.241        2223.305
 -11782278.064 9  -8681067.07948  19412787.217    19412787.7094   19412793.1224
      -740.133        -576.727
  -9967120.827 9  -7420716.84447  21555747.695    21555748.8934   21555756.7274
      4414.788        3440.095
 97  5 15 18  1 29.9940000  0  8  5  2  4 27 26  9  7 24            -0.005270078
  -7743180.747 9  -5756536.73846  22800547.302    22800547.8704   22800555.1504
      3728.682        2905.466
  -3906453.316 9  -3038479.54148  20636776.282    20636776.7614   20636782.9544
      -811.495        -632.334
 -23490830.915 9 -18274891.65948  19756215.264    19756216.6004   19756222.2014
      3207.419        2499.287
    708780.121 8    534893.78245  23403169.626    23403171.7594   23403179.4344
     -3065.951       -2389.053
  -3174718.055 9  -2443652.56346  22823093.258    22823094.3084   22823101.4084
     -1553.872       -1210.809
 -25902717.907 9 -20136809.34648  20227998.035    20227998.7744   20228004.2564
      2839.488        2212.588
 -11759971.610 9  -8663685.43448  19417031.991    19417032.5104   19417037.9474
      -748.310        -583.099
 -10099509.432 9  -7523876.72547  21530554.968    21530556.0954   21530563.9144
      4409.739        3436.160
 97  5 15 18  1 59.9940000  0  7  5  2  4 26  9  7 24               -0.005287647
  -7855051.821 9  -5843708.96946  22779258.892    22779259.4874   22779266.8474
      3728.375        2905.227
  -3881983.930 9  -3019412.50648  20641432.582    20641433.1444   20641439.3614
      -820.619        -639.443
 -23586808.577 9 -18349679.43348  19737951.381    19737952.6714   19737958.2524
      3190.160        2485.839
  -3128069.746 9  -2407303.26646  22831970.227    22831971.2824   22831978.3654
     -1556.939       -1213.199
 -25987692.496 9 -20203023.29748  20211827.959    20211828.6624   20211834.1424
      2824.501        2200.910
 -11737397.833 9  -8646095.48448  19421327.717    19421328.1934   19421333.6084
      -757.257        -590.070
 -10231726.990 9  -7626903.31147  21505394.872    21505395.9164   21505403.6024
      4403.745        3431.490
 97  5 15 18  2 29.9940000  0  7  5  2  4 26  9  7 24               -0.005305227
  -7966926.429 9  -5930883.95446  22757969.987    22757970.4254   22757977.7274
      3729.783        2906.324
  -3857265.013 9  -3000151.04048  20646136.443    20646137.0174   20646143.2364
      -827.614        -644.894
 -23682300.935 9 -18424089.04548  19719779.667    19719781.0624   19719786.6334
      3175.762        2474.620
  -3081359.893 9  -2370906.03046  22840858.953    22840859.8444   22840866.9734
     -1557.291       -1213.474
 -26072239.125 9 -20268903.77748  20195739.207    20195739.9824   20195745.4564
      2811.680        2190.919
 -11714589.583 9  -8628322.83048  19425668.021    19425668.4314   19425673.8484
      -763.410        -594.865
 -10363789.576 9  -7729809.10047  21480264.007    21480265.0954   21480272.7824
      4400.168        3428.702
 97  5 15 18  2 59.9940000  0  7  5  2  4 26  9  7 24               -0.005322803
  -8078794.401 9  -6018053.76046  22736682.231    22736682.7104   22736689.8854
      3729.495        2906.100
  -3832286.458 9  -2980687.24048  20650889.707    20650890.3014   20650896.5464
      -836.134        -651.533
 -23777312.516 9 -18498124.02748  19701699.591    19701700.9164   19701706.4924
      3159.822        2462.199
  -3034588.730 9  -2334461.03446  22849759.063    22849760.2004   22849767.2914
     -1559.372       -1215.095
 -26156358.782 9 -20334451.54848  20179731.783    20179732.5354   20179737.9994
      2797.678        2180.009
 -11691555.556 9  -8610374.24348  19430051.186    19430051.6604   19430057.0614
      -770.644        -600.502
 -10495695.163 9  -7832592.62347  21455163.151    21455164.2804   21455171.8314
      4394.916        3424.610
 97  5 15 18  3 29.9940000  0  7  5  2  4 26  9  7 24               -0.005340355
  -8190637.180 9  -6105203.93646  22715399.701    22715399.7484   22715406.7644
      3726.911        2904.086
  -3807037.243 9  -2961012.54148  20655694.556    20655695.0834   20655701.3134
      -847.046        -660.036
 -23871845.890 9 -18571786.38548  19683710.510    19683711.7854   19683717.3634
      3142.479        2448.685
  -2987743.381 9  -2297958.20046  22858673.486    22858674.5814   22858681.7874
     -1563.465       -1218.284
 -26240032.109 9 -20399651.52848  20163809.255    20163810.0064   20163815.4684
      2780.572        2166.679
 -11668304.797 9  -8592256.77748  19434475.661    19434476.1274   19434481.5504
      -779.167        -607.143
 -10627439.352 9  -7935250.34947  21430093.193    21430094.2204   21430101.7524
      4388.001        3419.222
 97  5 15 18  3 59.9940000  0  7  5  2  4 26  9  7 24               -0.005357868
  -8302430.882 9  -6192315.87846  22694126.071    22694126.1004   22694133.1484
      3727.314        2904.401
  -3781487.708 9  -2941103.83148  20660556.497    20660557.0104   20660563.2434
      -855.040        -666.265
 -23965882.799 9 -18645061.88748  19665815.819    19665817.1384   19665822.7384
      3127.742        2437.202
  -2940803.218 9  -2261381.48846  22867605.928    22867607.0334   22867614.2504
     -1565.004       -1219.484
 -26323210.229 9 -20464465.64048  20147980.945    20147981.7414   20147987.1774
      2765.720        2155.106
 -11644836.293 9  -8573969.64048  19438941.601    19438942.0634   19438947.4834
      -784.308        -611.149
 -10758991.189 9  -8037758.17947  21405059.832    21405060.6754   21405068.2004
      4382.933        3415.272
 97  5 15 18  4 29.9940000  0  7  5  2  4 26  9  7 24               -0.005375364
  -8414225.785 9  -6279428.74646  22672852.217    22672852.2614   22672859.2644
      3727.977        2904.917
  -3755676.234 9  -2920991.01648  20665468.231    20665468.7844   20665475.0394
      -863.560        -672.904
 -24059462.185 9 -18717980.87648  19648008.277    19648009.5674   19648015.1634
      3113.037        2425.743
  -2893776.790 9  -2224737.57246  22876554.779    22876555.9344   22876563.0374
     -1567.864       -1221.712
 -26405910.912 9 -20528907.72048  20132243.504    20132244.2894   20132249.7424
      2749.894        2142.774
 -11621184.599 9  -8555539.75548  19443442.218    19443442.8214   19443448.2594
      -790.377        -615.878
 -10890358.332 9  -8140122.11547  21380061.492    21380062.2824   21380069.7254
      4376.982        3410.635
 97  5 15 18  4 59.9940000  0  7  5  2  4 26  9  7 24               -0.005392830
  -8526028.195 9  -6366547.45846  22651577.175    22651576.9644   22651583.9724
      3727.079        2904.217
  -3729583.966 9  -2900659.39148  20670433.541    20670434.0074   20670440.2504
      -874.380        -681.335
 -24152577.453 9 -18790538.21048  19630288.969    19630290.3354   19630295.9114
      3096.139        2412.576
  -2846637.548 9  -2188005.74646  22885525.046    22885526.2644   22885533.3964
     -1573.178       -1225.853
 -26488111.018 9 -20592959.74748  20116601.313    20116602.1244   20116607.5534
      2731.625        2128.539
 -11597323.696 9  -8536946.85048  19447982.849    19447983.3844   19447988.8184
      -798.895        -622.515
 -11021519.129 9  -8242325.24047  21355101.992    21355103.1544   21355110.5704
      4368.375        3403.928
 97  5 15 18  5 29.9940000  0  7  5  2  4 26  9  7 24               -0.005410283
  -8637874.441 9  -6453700.32946  22630293.096    22630293.2474   22630300.3474
      3728.434        2905.273
  -3703224.588 9  -2880119.63548  20675449.649    20675450.0314   20675456.2754
      -883.720        -688.613
 -24245248.228 9 -18862749.19348  19612654.358    19612655.6604   19612661.2174
      3080.658        2400.513
  -2799403.222 9  -2151199.83246  22894513.549    22894514.6434   22894521.8754
     -1576.558       -1228.487
 -26569821.288 9 -20656630.08248  20101052.429    20101053.1644   20101058.5854
      2714.908        2115.513
 -11573268.637 9  -8518202.65348  19452560.442    19452560.8794   19452566.3264
      -805.879        -627.958
 -11152480.431 9  -8344372.92947  21330180.814    21330182.0574   21330189.4294
      4361.210        3398.345
 97  5 15 18  5 59.9940000  0  7  5  2  4 26  9  7 24               -0.005427718
  -8749745.999 9  -6540872.93346  22609004.273    22609004.7694   22609011.9174
      3729.469        2906.080
  -3676577.063 9  -2859355.33748  20680520.460    20680520.9174   20680527.1854
      -892.743        -695.644
 -24337421.720 9 -18934572.68348  19595114.266    19595115.5964   19595121.1574
      3064.159        2387.656
  -2752046.439 9  -2114298.49946  22903525.342    22903526.3724   22903533.6424
     -1580.515       -1231.570
 -26651024.634 9 -20719905.40548  20085599.956    20085600.6794   20085606.1044
      2698.774        2102.941
 -11548974.386 9  -8499272.07248  19457183.598    19457183.9004   19457189.3524
      -813.795        -634.126
 -11283199.179 9  -8446231.56747  21305306.091    21305307.0494   21305314.4004
      4353.316        3392.194
 97  5 15 18  6 29.9940000  0  7  5  2  4 26  9  7 24               -0.005445144
  -8861634.997 9  -6628059.12746  22587712.574    22587712.8764   22587720.1204
      3730.984        2907.260
  -3649662.132 9  -2838382.69548  20685642.191    20685642.6594   20685648.9544
      -900.476        -701.670
 -24429095.571 9 -19006006.84148  19577669.319    19577670.6374   19577676.2064
      3048.517        2375.468
  -2704575.837 9  -2077308.46146  22912558.642    22912559.7314   22912567.0434
     -1582.630       -1233.218
 -26731746.240 9 -20782805.35348  20070239.136    20070239.8294   20070245.2594
      2683.955        2091.394
 -11524434.095 9  -8480149.78048  19461853.411    19461853.7644   19461859.2374
      -821.036        -639.768
 -11413689.984 9  -8547912.63647  21280474.505    21280475.4104   21280482.7924
      4347.372        3387.562
 97  5 15 18  6 59.9940000  0  7  5  2  4 26  9  7 24               -0.005462574
  -8973541.110 9  -6715258.64846  22566417.117    22566417.7784   22566424.9794
      3730.738        2907.069
  -3622486.251 9  -2817206.70448  20690813.561    20690814.0524   20690820.3674
      -909.696        -708.854
 -24520266.734 9 -19077049.29748  19560320.036    19560321.3554   19560326.8884
      3031.031        2361.842
  -2657032.256 9  -2040261.54546  22921605.932    22921607.0154   22921614.3454
     -1585.324       -1235.317
 -26812004.650 9 -20845344.36348  20054966.422    20054967.1584   20054972.5714
      2668.259        2079.163
 -11499655.641 9  -8460841.90248  19466568.512    19466568.9134   19466574.4304
      -829.289        -646.199
 -11543984.759 9  -8649440.96647  21255680.106    21255681.0914   21255688.4194
      4340.374        3382.110
 97  5 15 18  7 29.9940000  0  7  5  2  4 26  9  7 24               -0.005480001
  -9085433.118 9  -6802447.19046  22545124.620    22545125.3334   22545132.5264
      3729.771        2906.315
  -3595038.127 9  -2795818.56448  20696036.748    20696037.2574   20696043.5904
      -918.938        -716.056
 -24610903.897 9 -19147675.64148  19543072.352    19543073.6674   19543079.1604
      3012.601        2347.481
  -2609417.774 9  -2003159.40346  22930666.655    22930667.7784   22930675.1484
     -1587.696       -1237.166
 -26891803.766 9 -20907525.48248  20039781.136    20039781.8894   20039787.2774
      2652.745        2067.074
 -11474638.042 9  -8441347.67548  19471329.107    19471329.5704   19471335.1204
      -837.440        -652.551
 -11674082.737 9  -8750815.96247  21230923.178    21230924.2134   21230931.5364
      4333.891        3377.058
 97  5 15 18  7 59.9940000  0  7  5  2  4 26  9  7 24               -0.005497441
  -9197313.581 9  -6889626.72946  22523834.215    22523835.1304   22523842.2584
      3728.522        2905.342
  -3567348.735 9  -2774242.42848  20701305.854    20701306.4054   20701312.7504
      -927.558        -722.772
 -24701028.367 9 -19217902.49248  19525922.182    19525923.5324   19525929.0184
      2995.366        2334.051
  -2561766.061 9  -1966028.23846  22939734.414    22939735.5834   22939743.1034
     -1589.468       -1238.546
 -26971172.168 9 -20969370.98348  20024677.875    20024678.5794   20024683.9594
      2637.772        2055.407
 -11449410.748 9  -8421690.05048  19476129.727    19476130.1884   19476135.7424
      -844.735        -658.235
 -11804025.520 9  -8852070.01647  21206196.007    21206196.8884   21206204.1884
      4328.295        3372.697
 97  5 15 18  8 29.9940000  0  7  5  2  4 26  9  7 24               -0.005514877
  -9309169.090 9  -6976786.82646  22502549.183    22502549.7864   22502556.8844
      3728.264        2905.141
  -3539399.984 9  -2752464.19848  20706624.340    20706624.8964   20706631.2434
      -936.318        -729.598
 -24790646.434 9 -19287734.74748  19508868.456    19508869.7944   19508875.2694
      2978.696        2321.062
  -2514077.677 9  -1928868.50646  22948809.219    22948810.3004   22948817.9964
     -1590.240       -1239.148
 -27050084.998 9 -21030861.49048  20009661.285    20009661.9744   20009667.2924
      2622.536        2043.535
 -11423975.391 9  -8401870.29748  19480969.912    19480970.3684   19480975.9434
      -851.329        -663.373
 -11933810.127 9  -8953200.77647  21181498.967    21181499.6944   21181506.9324
      4323.190        3368.719
 97  5 15 18  8 59.9940000  0  7  5  2  4 26  9  7 24               -0.005532308
  -9421015.725 9  -7063940.02646  22481265.385    22481266.1134   22481273.1474
      3728.568        2905.378
  -3511173.736 9  -2730469.73748  20711995.652    20711996.1864   20712002.5364
      -944.715        -736.142
 -24879755.071 9 -19357170.04048  19491911.576    19491912.9504   19491918.4554
      2962.531        2308.466
  -2466349.184 9  -1891677.51846  22957891.682    22957892.7124   22957900.5214
     -1591.170       -1239.873
 -27128527.581 9 -21091985.57648  19994734.123    19994734.8774   19994740.1874
      2607.556        2031.862
 -11398344.152 9  -8381897.91248  19485847.387    19485847.8144   19485853.4284
      -856.711        -667.567
 -12063416.696 9  -9054192.81047  21156835.284    21156836.3414   21156843.5724
      4317.530        3364.309
 97  5 15 18  9 29.9940000  0  7  5  2  4 26  9  7 24               -0.005549731
  -9532852.326 9  -7151085.39146  22459983.607    22459984.3664   22459991.2624
      3726.494        2903.762
  -3482684.345 9  -2708270.22848  20717417.104    20717417.5804   20717423.9304
      -955.250        -744.351
 -24968362.631 9 -19426214.88148  19475050.124    19475051.4954   19475056.9944
      2944.003        2294.028
  -2418572.559 9  -1854449.02646  22966983.198    22966984.3574   22966992.1304
     -1594.682       -1242.609
 -27206493.330 9 -21152738.10148  19979897.772    19979898.4744   19979903.7854
      2589.258        2017.604
 -11372539.866 9  -8361790.68148  19490757.796    19490758.2254   19490763.8224
      -864.341        -673.512
 -12192828.189 9  -9155032.85247  21132208.886    21132210.0744   21132217.2684
      4308.931        3357.609
 97  5 15 18  9 59.9940000  0  7  5  2  4 26  9  7 24               -0.005567137
  -9644666.599 9  -7238213.36246  22438706.404    22438706.8054   22438713.7004
      3727.715        2904.713
  -3453923.362 9  -2685859.10448  20722890.155    20722890.6524   20722897.0074
      -962.334        -749.871
 -25056465.070 9 -19494866.13348  19458284.838    19458286.1654   19458291.6474
      2929.115        2282.427
  -2370723.903 9  -1817164.39646  22976088.614    22976089.7104   22976097.4624
     -1595.349       -1243.129
 -27283943.017 9 -21213088.50548  19965159.555    19965160.2944   19965165.6054
      2573.877        2005.618
 -11346549.412 9  -8341538.39648  19495703.581    19495704.0814   19495709.6734
      -868.461        -676.723
 -12322008.993 9  -9255693.15547  21107626.728    21107627.6824   21107634.8514
      4302.727        3352.774
 97  5 15 18 10 29.9940000  0  7  5  2  4 26  9  7 24               -0.005584545
  -9756480.992 9  -7325341.42246  22417428.898    22417429.2454   22417436.0584
      3727.098        2904.232
  -3424910.738 9  -2663251.88548  20728411.088    20728411.5724   20728417.9394
      -971.395        -756.931
 -25144066.346 9 -19563126.85648  19441614.810    19441616.1914   19441621.6934
      2911.453        2268.665
  -2322822.309 9  -1779838.51846  22985204.054    22985205.0324   22985212.8164
     -1597.707       -1244.966
 -27360886.626 9 -21273044.55448  19950517.634    19950518.4294   19950523.7334
      2556.380        1991.984
 -11320395.666 9  -8321158.86048  19500680.418    19500680.9564   19500686.5674
      -874.674        -681.564
 -12450956.623 9  -9356171.82847  21083088.923    21083089.7274   21083096.8634
      4294.066        3346.025
 97  5 15 18 10 59.9940000  0  7  5  2  4 26  9  7 24               -0.005601953
  -9868282.061 9  -7412459.09646  22396153.695    22396154.1004   22396160.9714
      3725.378        2902.892
  -3395643.570 9  -2640446.32048  20733980.451    20733980.9394   20733987.3214
      -980.605        -764.108
 -25231148.766 9 -19630983.27948  19425043.597    19425044.9434   19425050.4724
      2893.207        2254.447
  -2274855.685 9  -1742461.97946  22994331.893    22994332.8234   22994340.5904
     -1600.731       -1247.323
 -27437322.437 9 -21332604.91948  19935972.453    19935973.2004   19935978.4984
      2538.438        1978.004
 -11294069.416 9  -8300644.90648  19505690.242    19505690.6904   19505696.3114
      -881.475        -686.864
 -12579652.667 9  -9456454.39447  21058598.762    21058599.6474   21058606.7514
      4284.695        3338.723
 97  5 15 18 11 29.9940000  0  7  5  2  4 26  9  7 24               -0.005619363
  -9980063.235 9  -7499561.27146  22374882.522    22374882.8614   22374889.7014
      3725.451        2902.949
  -3366131.986 9  -2617450.29348  20739596.314    20739596.8544   20739603.1974
      -988.263        -770.075
 -25317716.679 9 -19698438.78848  19408570.278    19408571.5844   19408577.1114
      2876.510        2241.436
  -2226839.512 9  -1705046.81646  23003469.207    23003470.1024   23003477.9174
     -1601.683       -1248.065
 -27513247.494 9 -21391767.29548  19921524.399    19921525.1454   19921530.4834
      2521.873        1965.096
 -11267555.262 9  -8279984.53548  19510735.762    19510736.1624   19510741.7904
      -887.780        -691.777
 -12708104.981 9  -9556547.00547  21034154.669    21034155.8704   21034162.9924
      4277.247        3332.920
 97  5 15 18 11 59.9940000  0  7  5  2  4 26  9  7 24               -0.005636771
 -10091825.007 9  -7586648.34546  22353614.595    22353615.2954   22353622.1474
      3724.648        2902.323
  -3336361.808 9  -2594252.76648  20745261.377    20745261.9334   20745268.2734
      -997.254        -777.081
 -25403752.495 9 -19765479.67248  19392198.135    19392199.5044   19392205.0344
      2858.268        2227.222
  -2178770.754 9  -1667590.68646  23012616.325    23012617.3044   23012625.2404
     -1603.513       -1249.491
 -27588657.172 9 -21450528.07848  19907174.376    19907175.1714   19907180.4994
      2504.666        1951.688
 -11240814.005 9  -8259147.20248  19515824.516    19515824.8674   19515830.5044
      -895.781        -698.011
 -12836306.031 9  -9656443.87347  21009758.838    21009760.0044   21009767.0584
      4268.596        3326.179
 97  5 15 18 12 29.9940000  0  7  5  2  4 26  9  7 24               -0.005654195
 -10203598.706 9  -7673744.69346  22332345.063    22332345.4564   22332352.2734
      3725.193        2902.748
  -3306346.220 9  -2570864.01248  20750973.119    20750973.7244   20750980.0494
     -1005.643        -783.618
 -25489267.455 9 -19832114.69648  19375925.209    19375926.5644   19375932.0844
      2841.138        2213.874
  -2130682.056 9  -1630118.99846  23021767.366    23021768.2894   23021776.2864
     -1604.195       -1250.022
 -27663576.736 9 -21508906.95548  19892917.716    19892918.4454   19892923.7874
      2488.301        1938.936
 -11213854.606 9  -8238139.88448  19520954.620    19520955.0814   19520960.7114
      -903.179        -703.776
 -12964282.868 9  -9756165.95447  20985405.734    20985406.6744   20985413.8314
      4261.339        3320.524
 97  5 15 18 12 59.9940000  0  7  5  2  4 26  9  7 24               -0.005671608
 -10315366.103 9  -7760836.13046  22311076.432    22311076.7864   22311083.5804
      3724.461        2902.177
  -3276049.370 9  -2547256.08348  20756738.423    20756739.0224   20756745.3814
     -1015.854        -791.575
 -25574254.126 9 -19898338.06248  19359752.769    19359754.1224   19359759.6864
      2822.975        2199.721
  -2082549.203 9  -1592612.92746  23030926.789    23030927.7044   23030935.6744
     -1606.181       -1251.570
 -27737978.012 9 -21566881.97048  19878759.637    19878760.3464   19878765.6874
      2470.091        1924.746
 -11186650.578 9  -8216941.94448  19526131.330    19526131.8424   19526137.5074
      -912.060        -710.696
 -13092023.350 9  -9855703.91647  20961097.300    20961098.4484   20961105.5584
      4252.962        3313.996
 97  5 15 18 13 29.9940000  0  7  5  2  4 26  9  7 24               -0.005689025
 -10427159.295 9  -7847947.66246  22289802.984    22289803.2224   22289809.9614
      3726.617        2903.857
  -3245482.302 9  -2523437.62047  20762555.213    20762555.7244   20762562.1184
     -1023.703        -797.691
 -25658737.167 9 -19964168.98848  19343676.190    19343677.5294   19343683.0994
      2807.379        2187.568
  -2034405.967 9  -1555098.76246  23040088.049    23040089.0634   23040097.0624
     -1605.286       -1250.872
 -27811872.554 9 -21624462.12648  19864697.919    19864698.6494   19864704.0074
      2454.580        1912.660
 -11159222.666 9  -8195569.55048  19531350.724    19531351.2264   19531356.9214
      -918.105        -715.406
 -13219558.286 9  -9955081.69347  20936828.054    20936829.2394   20936836.3574
      4247.334        3309.611
 97  5 15 18 13 59.9940000  0  7  5  2  4 26  9  7 24               -0.005706446
 -10538983.444 9  -7935083.33146  22268523.458    22268523.7654   22268530.4464
      3727.908        2904.863
  -3214640.893 9  -2499405.37647  20768424.153    20768424.6374   20768431.0654
     -1032.603        -804.626
 -25742710.931 9 -20029603.07848  19327696.527    19327697.8274   19327703.4194
      2790.721        2174.588
  -1986250.581 9  -1517575.11446  23049251.729    23049252.7474   23049260.6774
     -1605.198       -1250.804
 -27885270.477 9 -21681655.30648  19850730.749    19850731.4684   19850736.8454
      2438.461        1900.099
 -11131591.637 9  -8174038.89348  19536608.771    19536609.2214   19536614.9284
      -923.934        -719.949
 -13346882.489 9 -10054295.29347  20912598.997    20912600.1644   20912607.2714
      4240.665        3304.414
 97  5 15 18 14 29.9940000  0  7  5  2  4 26  9  7 24               -0.005723843
 -10650794.253 9  -8022208.60546  22247246.414    22247246.8524   22247253.4714
      3726.097        2903.452
  -3183487.644 9  -2475130.14748  20774352.369    20774352.9114   20774359.3734
     -1044.191        -813.655
 -25826145.768 9 -20094617.22348  19311819.325    19311820.6914   19311826.3114
      2771.624        2159.707
  -1938059.096 9  -1480023.35046  23058422.218    23058423.3354   23058431.1904
     -1607.603       -1252.678
 -27958146.786 9 -21738442.03648  19836862.760    19836863.5264   19836868.9334
      2420.008        1885.721
 -11103757.125 9  -8152349.67548  19541905.493    19541905.9374   19541911.6894
      -931.668        -725.975
 -13473968.639 9 -10153323.40747  20888415.227    20888416.3994   20888423.4704
      4231.457        3297.239
 97  5 15 18 14 59.9940000  0  7  5  2  4 26  9  7 24               -0.005741214
 -10762587.991 9  -8109320.57246  22225973.053    22225973.2084   22225979.7724
      3726.799        2903.999
  -3152035.070 9  -2450621.66148  20780337.544    20780338.1674   20780344.6344
     -1052.497        -820.128
 -25909048.418 9 -20159216.67848  19296043.501    19296044.8464   19296050.4644
      2755.058        2146.798
  -1889838.441 9  -1442448.84746  23067598.268    23067599.4684   23067607.2304
     -1607.031       -1252.232
 -28030514.400 9 -21794832.37448  19823091.597    19823092.3934   19823097.8194
      2404.537        1873.665
 -11075737.923 9  -8130516.54848  19547237.403    19547237.8144   19547243.5874
      -936.275        -729.565
 -13600810.413 9 -10252161.08847  20864278.044    20864279.1374   20864286.2554
      4224.477        3291.800
 97  5 15 18 15 29.9940000  0  7  5  2  4 26  9  7 24               -0.005758579
 -10874364.411 9  -8196419.02946  22204702.512    22204702.7924   22204709.3734
      3725.291        2902.824
  -3120315.343 9  -2425905.00847  20786373.600    20786374.1964   20786380.6794
     -1061.624        -827.239
 -25991413.764 9 -20223397.43848  19280369.805    19280371.2204   19280376.8584
      2736.401        2132.261
  -1841603.526 9  -1404863.23345  23076777.183    23076778.2554   23076786.0744
     -1608.338       -1253.250
 -28102397.024 9 -21850844.79748  19809412.784    19809413.5924   19809418.9994
      2388.191        1860.928
 -11047557.509 9  -8108557.79648  19552599.784    19552600.3214   19552606.1524
      -941.855        -733.913
 -13727403.909 9 -10350805.30347  20840187.934    20840189.1594   20840196.2304
      4215.306        3284.654
 97  5 15 18 15 59.9940000  0  7  5  2  4 26  9  7 24               -0.005775925
 -10986096.860 9  -8283483.24446  22183440.397    22183440.7404   22183447.2834
      3723.727        2901.605
  -3088334.313 9  -2400984.73747  20792459.355    20792459.9354   20792466.4324
     -1070.332        -834.025
 -26073225.364 9 -20287146.72548  19264801.577    19264802.9664   19264808.5794
      2717.904        2117.847
  -1793331.515 9  -1367248.72445  23085963.061    23085964.1234   23085971.8534
     -1609.435       -1254.105
 -28173805.462 9 -21906487.72648  19795824.189    19795825.0164   19795830.4114
      2372.491        1848.694
 -11019224.899 9  -8086480.44948  19557991.218    19557991.8084   19557997.6884
      -946.839        -737.797
 -13853727.648 9 -10449239.28047  20816149.419    20816150.4794   20816157.5464
      4206.437        3277.743
 97  5 15 18 16 29.9940000  0  7  5  2  4 26  9  7 24               -0.005793240
 -11097767.517 9  -8370499.29146  22162190.306    22162190.4654   22162197.0494
      3721.204        2899.639
  -3056073.825 9  -2375846.71247  20798598.360    20798598.9194   20798605.3754
     -1080.285        -841.781
 -26154467.503 9 -20350452.29148  19249341.653    19249343.0884   19249348.7114
      2698.397        2102.647
  -1745009.187 9  -1329595.01745  23095158.439    23095159.6984   23095167.4114
     -1611.864       -1255.998
 -28244719.797 9 -21961745.64648  19782329.613    19782330.4564   19782335.8484
      2355.057        1835.109
 -10990719.977 9  -8064268.83048  19563415.462    19563416.0944   19563421.9874
      -953.510        -742.995
 -13979767.714 9 -10547452.23247  20792164.698    20792165.7944   20792172.8394
      4196.190        3269.758
 97  5 15 18 16 59.9940000  0  7  5  2  4 26  9  7 24               -0.005810539
 -11209410.572 9  -8457493.84846  22140945.275    22140945.5434   22140952.0754
      3720.628        2899.191
  -3023555.462 9  -2350507.74647  20804786.428    20804786.9734   20804793.4584
     -1088.779        -848.399
 -26235172.974 9 -20413339.66648  19233983.892    19233985.3354   19233990.9394
      2680.790        2088.927
  -1696656.115 8  -1291917.31245  23104359.629    23104360.9414   23104368.7864
     -1612.817       -1256.741
 -28315146.733 9 -22016623.77248  19768927.765    19768928.6104   19768934.0474
      2338.860        1822.488
 -10962044.641 9  -8041924.42148  19568872.287    19568872.8294   19568878.7414
      -959.293        -747.501
 -14105543.966 9 -10645459.63547  20768230.241    20768231.3164   20768238.3914
      4187.785        3263.209
 97  5 15 18 17 29.9940000  0  7  5  2  4 26  9  7 24               -0.005827816
 -11321034.084 9  -8544473.16846  22119703.989    22119704.2594   22119710.8244
      3721.821        2900.120
  -2990763.784 9  -2324955.81547  20811026.521    20811027.0514   20811033.5654
     -1096.573        -854.472
 -26315338.176 9 -20475806.04948  19218729.005    19218730.3954   19218736.0184
      2664.481        2076.219
  -1648263.406 9  -1254208.75245  23113568.456    23113569.8274   23113577.6904
     -1612.465       -1256.466
 -28385079.306 9 -22071116.68348  19755620.070    19755620.8894   19755626.3104
      2324.067        1810.961
 -10933185.052 9  -8019436.44548  19574364.104    19574364.6654   19574370.5804
      -963.933        -751.117
 -14231066.107 9 -10743269.00747  20744344.239    20744345.2284   20744352.2424
      4181.116        3258.012
 97  5 15 18 17 59.9940000  0  7  5  2  4 26  9  7 24               -0.005845072
 -11432658.841 9  -8631453.46646  22098462.658    22098462.7284   22098469.2774
      3721.638        2899.978
  -2957684.411 9  -2299179.69747  20817321.327    20817321.8674   20817328.4194
     -1106.988        -862.588
 -26394978.177 9 -20537863.17448  19203573.994    19203575.4114   19203581.0534
      2646.530        2062.231
  -1599847.947 8  -1216482.44545  23122781.677    23122782.8834   23122790.8504
     -1613.435       -1257.222
 -28454507.819 9 -22125216.81948  19742408.212    19742409.0634   19742414.5314
      2306.063        1796.932
 -10904133.746 9  -7996799.07548  19579892.378    19579892.9554   19579898.8634
      -971.201        -756.780
 -14356350.034 9 -10840892.76347  20720503.310    20720504.4734   20720511.4384
      4172.742        3251.487
 97  5 15 18 18 29.9940000  0  7  5  2  4 26  9  7 24               -0.005862322
 -11544313.425 9  -8718457.00446  22077215.483    22077215.5554   22077222.0974
      3722.696        2900.802
  -2924321.839 9  -2273182.91347  20823669.973    20823670.5544   20823677.1084
     -1116.373        -869.901
 -26474115.395 9 -20599528.52448  19188514.721    19188516.1244   19188521.7584
      2629.939        2049.303
  -1551433.103 9  -1178756.62345  23131994.839    23131996.0314   23132003.9284
     -1613.417       -1257.208
 -28523413.720 9 -22178909.72048  19729295.790    19729296.6994   19729302.1494
      2288.499        1783.246
 -10874888.520 9  -7974010.60148  19585457.565    19585458.1534   19585464.0394
      -977.604        -761.769
 -14481410.814 9 -10938342.70547  20696704.906    20696706.1324   20696713.1094
      4165.193        3245.605
 97  5 15 18 18 59.9940000  0  7  5  2  4 26  9  7 24               -0.005879550
 -11655965.766 9  -8805458.80446  22055968.387    22055968.7844   22055975.3314
      3722.395        2900.568
  -2890654.411 9  -2246948.57947  20830076.653    20830077.2634   20830083.8244
     -1126.388        -877.705
 -26552718.025 9 -20660777.31548  19173557.071    19173558.5224   19173564.1644
      2611.657        2035.057
  -1502991.685 8  -1141010.11945  23141212.969    23141214.1194   23141222.1034
     -1614.384       -1257.962
 -28591770.497 9 -22232174.73648  19716287.924    19716288.8464   19716294.2574
      2270.269        1769.041
 -10845433.323 9  -7951058.51948  19591062.628    19591063.3134   19591069.1954
      -984.297        -766.985
 -14606213.317 9 -11035591.36347  20672955.883    20672957.0044   20672963.8874
      4156.399        3238.752
 97  5 15 18 19 29.9940000  0  7  5  2  4 26  9  7 24               -0.005896788
 -11767637.864 9  -8892475.98446  22034717.432    22034718.2774   22034724.8834
      3721.758        2900.071
  -2856725.561 9  -2220510.53047  20836533.127    20836533.7304   20836540.2774
     -1136.058        -885.240
 -26630799.304 9 -20721619.85448  19158698.695    19158700.1234   19158705.7684
      2593.236        2020.703
  -1454567.469 8  -1103277.01845  23150427.983    23150428.9394   23150436.9464
     -1614.313       -1257.906
 -28659615.916 9 -22285041.28448  19703377.412    19703378.2764   19703383.6864
      2252.199        1754.960
 -10815825.483 9  -7927987.48248  19596696.864    19596697.5164   19596703.3634
      -990.049        -771.467
 -14730780.211 9 -11132656.41647  20649251.539    20649252.6654   20649259.5294
      4147.288        3231.653
 97  5 15 18 19 59.9940000  0  8  5  2  4 26  9  7 16 24            -0.005914019
 -11879282.696 9  -8979471.91946  22013472.154    22013472.9074   22013479.5474
      3721.039        2899.511
  -2822517.691 9  -2193855.06647  20843042.751    20843043.3114   20843049.8914
     -1144.749        -892.012
 -26708336.403 9 -20782038.37848  19143943.885    19143945.3084   19143950.9174
      2575.419        2006.820
  -1406152.796 8  -1065551.34845  23159640.887    23159641.9974   23159649.9584
     -1613.559       -1257.319
 -28726910.799 9 -22337478.85648  19690571.628    19690572.4814   19690577.8704
      2234.063        1740.828
 -10786052.866 9  -7904788.05148  19602362.535    19602363.0774   19602368.9204
      -995.099        -775.402
   -813420.11819   -617325.27756  23400987.683    23400988.5615   23400996.7285
      2628.295        2048.022
 -14855069.651 9 -11229505.28547  20625599.993    20625601.1414   20625607.9344
      4138.214        3224.582
 97  5 15 18 20 29.9940000  0  8  5  2  4 26  9  7 16 24            -0.005931335
 -11990910.730 9  -9066454.77046  21992229.870    21992230.7524   21992237.4304
      3720.325        2898.955
  -2788062.979 9  -2167007.26947  20849599.221    20849599.8414   20849606.3924
     -1152.726        -898.228
 -26785339.626 9 -20842040.88548  19129290.662    19129292.0804   19129297.6894
      2557.595        1992.931
  -1357772.046 8  -1027852.09345  23168847.511    23168848.6264   23168856.5794
     -1612.125       -1256.201
 -28793684.074 9 -22389509.98148  19677865.130    19677865.9484   19677871.3494
      2217.124        1727.629
 -10756136.764 9  -7881476.81148  19608055.387    19608055.9434   19608061.7564
      -999.738        -779.017
   -892147.275 9   -678671.07146  23386006.476    23386007.3014   23386015.2894
      2619.879        2041.464
 -14979088.439 9 -11326143.26047  20601999.952    20602001.1184   20602007.8924
      4129.208        3217.565
 97  5 15 18 20 59.9940000  0  8  5  2  4 26  9  7 16 24            -0.005948571
 -12102495.748 9  -9153404.09046  21970995.628    21970996.8074   21971003.4994
      3717.963        2897.114
  -2753347.293 9  -2139956.10447  20856205.457    20856206.0064   20856212.5764
     -1162.399        -905.765
 -26861779.781 9 -20901604.64148  19114744.590    19114745.9944   19114751.5884
      2537.750        1977.468
  -1309422.295 8   -990176.99845  23178048.215    23178049.2154   23178057.1524
     -1611.985       -1256.092
 -28859928.356 9 -22441128.90148  19665259.294    19665260.1074   19665265.5094
      2198.261        1712.931
 -10726059.523 9  -7858040.00948  19613778.874    19613779.4054   19613785.2344
     -1006.368        -784.183
   -970605.968 9   -739807.69546  23371076.327    23371077.0994   23371085.1254
      2609.619        2033.469
 -15102823.638 9 -11422560.25247  20578453.879    20578455.0314   20578461.7734
      4118.820        3209.470
 97  5 15 18 21 29.9940000  0  8  5  2  4 26  9  7 16 24            -0.005965800
 -12214044.600 9  -9240325.23246  21949768.431    21949769.6704   21949776.3694
      3717.596        2896.828
  -2718372.693 9  -2112703.18047  20862860.907    20862861.4864   20862868.0254
     -1170.477        -912.060
 -26937666.821 9 -20960737.38948  19100303.794    19100305.1654   19100310.7694
      2520.292        1963.864
  -1261117.689 8   -952537.09745  23187240.195    23187241.4724   23187249.2124
     -1609.434       -1254.104
 -28925636.219 9 -22492329.82848  19652755.537    19652756.3444   19652761.7384
      2181.229        1699.659
 -10695809.367 9  -7834468.47248  19619535.295    19619535.8354   19619541.6504
     -1011.534        -788.208
  -1048783.576 9   -800725.27046  23356199.642    23356200.3564   23356208.4024
      2601.238        2026.939
 -15226278.108 9 -11518758.50647  20554961.211    20554962.3854   20554969.0974
      4110.242        3202.786
 97  5 15 18 21 59.9940000  0  8  5  2  4 26  9  7 16 24            -0.005983021
 -12325569.647 9  -9327227.82646  21928546.137    21928547.1164   21928553.7604
      3717.792        2896.981
  -2683131.395 9  -2085242.45547  20869567.073    20869567.7234   20869574.2454
     -1178.658        -918.435
 -27013001.668 9 -21019439.85948  19085968.040    19085969.4064   19085974.9944
      2502.182        1949.752
  -1212858.920 8   -914932.88945  23196423.671    23196424.7934   23196432.7074
     -1607.582       -1252.661
 -28990813.010 9 -22543116.93248  19640352.796    19640353.6024   19640359.0034
      2164.253        1686.431
 -10665372.533 9  -7810751.47348  19625327.207    19625327.7714   19625333.6124
     -1017.305        -792.705
  -1126682.307 9   -861425.54646  23341376.081    23341376.7214   23341384.7404
      2592.147        2019.855
 -15349452.291 9 -11614738.35447  20531521.837    20531523.0874   20531529.7914
      4101.469        3195.950
